Temperatur und Luftfeuchte

Temperatur und Luftfeuchte

Nummer Datum und Zeit Sensor ID Temperatur in Celsius gef├╝hlte Temperatur Luftfeuchte in %
17640 2019-11-20 22:31:25 ESP12E-S1 3.40 2.40 99.90
17639 2019-11-20 22:03:27 ESP12E-S1 3.60 2.62 99.90
17638 2019-11-20 21:35:04 ESP12E-S1 3.60 2.62 99.90
17637 2019-11-20 21:06:51 ESP12E-S1 3.70 2.73 99.90
17636 2019-11-20 20:38:30 ESP12E-S1 3.90 2.95 99.90
17635 2019-11-20 20:10:22 ESP12E-S1 4.20 3.28 99.90
17634 2019-11-20 19:42:10 ESP12E-S1 4.60 3.72 99.90
17633 2019-11-20 19:13:55 ESP12E-S1 4.80 3.94 99.90
17632 2019-11-20 18:45:43 ESP12E-S1 5.00 4.16 99.90
17631 2019-11-20 18:17:22 ESP12E-S1 5.10 4.27 99.90
17630 2019-11-20 17:49:13 ESP12E-S1 5.30 4.49 99.90
17629 2019-11-20 17:21:00 ESP12E-S1 5.60 4.82 99.90
17628 2019-11-20 16:52:46 ESP12E-S1 5.80 5.04 99.90
17627 2019-11-20 16:24:35 ESP12E-S1 6.30 5.59 99.90
17626 2019-11-20 15:56:28 ESP12E-S1 7.20 6.47 95.50
17625 2019-11-20 15:28:34 ESP12E-S1 10.20 9.27 76.30
17624 2019-11-20 14:59:48 ESP12E-S1 7.60 7.00 98.80
17623 2019-11-20 14:31:51 ESP12E-S1 9.70 9.05 89.00
17622 2019-11-20 14:03:25 ESP12E-S1 9.90 9.34 91.60
17621 2019-11-20 13:35:14 ESP12E-S1 9.20 8.78 99.90
17620 2019-11-20 13:06:54 ESP12E-S1 8.40 7.90 99.90
17619 2019-11-20 12:38:41 ESP12E-S1 8.60 8.12 99.90
17618 2019-11-20 12:10:46 ESP12E-S1 10.70 10.32 95.40
17617 2019-11-20 11:42:02 ESP12E-S1 8.40 7.90 99.90
17616 2019-11-20 11:13:41 ESP12E-S1 7.50 6.91 99.90
17615 2019-11-20 10:45:20 ESP12E-S1 6.60 5.92 99.90
17614 2019-11-20 10:16:56 ESP12E-S1 5.20 4.38 99.90
17613 2019-11-20 09:48:46 ESP12E-S1 4.20 3.28 99.90
17612 2019-11-20 09:20:22 ESP12E-S1 3.60 2.62 99.90
17611 2019-11-20 08:52:08 ESP12E-S1 3.40 2.40 99.90
17610 2019-11-20 08:23:55 ESP12E-S1 3.30 2.29 99.90
17609 2019-11-20 07:55:39 ESP12E-S1 3.10 2.07 99.90
17608 2019-11-20 07:27:24 ESP12E-S1 3.00 1.96 99.90
17607 2019-11-20 06:59:03 ESP12E-S1 3.00 1.96 99.90
17606 2019-11-20 06:30:54 ESP12E-S1 3.10 2.07 99.90
17605 2019-11-20 06:02:39 ESP12E-S1 3.10 2.07 99.90
17604 2019-11-20 05:34:26 ESP12E-S1 2.90 1.85 99.90
17603 2019-11-20 05:06:11 ESP12E-S1 2.50 1.41 99.90
17602 2019-11-20 04:37:57 ESP12E-S1 2.30 1.19 99.90
17601 2019-11-20 04:09:44 ESP12E-S1 2.50 1.41 99.90
17600 2019-11-20 03:41:33 ESP12E-S1 2.80 1.74 99.90
17599 2019-11-20 03:13:11 ESP12E-S1 3.20 2.18 99.90
17598 2019-11-20 02:45:02 ESP12E-S1 3.30 2.29 99.90
17597 2019-11-20 02:16:49 ESP12E-S1 3.70 2.73 99.90
17596 2019-11-20 01:48:39 ESP12E-S1 4.00 3.06 99.90
17595 2019-11-20 01:20:26 ESP12E-S1 4.00 3.06 99.90
17594 2019-11-20 00:52:11 ESP12E-S1 3.80 2.84 99.90
17593 2019-11-20 00:23:54 ESP12E-S1 3.80 2.84 99.90
17592 2019-11-19 23:55:34 ESP12E-S1 3.70 2.73 99.90
17591 2019-11-19 23:27:15 ESP12E-S1 3.60 2.62 99.90
17590 2019-11-19 22:59:03 ESP12E-S1 3.80 2.84 99.90
17589 2019-11-19 22:30:44 ESP12E-S1 4.10 3.17 99.90
17588 2019-11-19 22:02:45 ESP12E-S1 4.10 3.17 99.90
17587 2019-11-19 21:34:41 ESP12E-S1 4.30 3.39 99.90
17586 2019-11-19 21:06:23 ESP12E-S1 4.60 3.72 99.90
17585 2019-11-19 20:38:11 ESP12E-S1 4.90 4.05 99.90
17584 2019-11-19 20:10:00 ESP12E-S1 5.10 4.27 99.90
17583 2019-11-19 19:41:47 ESP12E-S1 5.10 4.27 99.90
17582 2019-11-19 19:13:25 ESP12E-S1 5.20 4.38 99.90
17581 2019-11-19 18:45:15 ESP12E-S1 5.40 4.60 99.90
17580 2019-11-19 18:17:02 ESP12E-S1 5.60 4.82 99.90
17579 2019-11-19 17:48:40 ESP12E-S1 5.80 5.04 99.90
17578 2019-11-19 17:20:30 ESP12E-S1 6.00 5.26 99.90
17577 2019-11-19 16:52:18 ESP12E-S1 6.50 5.81 99.90
17576 2019-11-19 16:24:13 ESP12E-S1 7.70 7.13 99.90
17575 2019-11-19 15:56:13 ESP12E-S1 9.70 9.08 90.00
17574 2019-11-19 15:27:57 ESP12E-S1 12.50 12.04 85.70
17573 2019-11-19 14:59:28 ESP12E-S1 8.90 8.45 99.90
17572 2019-11-19 14:31:10 ESP12E-S1 7.70 7.13 99.90
17571 2019-11-19 14:03:00 ESP12E-S1 8.40 7.90 99.90
17570 2019-11-19 13:34:38 ESP12E-S1 7.70 7.13 99.90
17569 2019-11-19 13:06:29 ESP12E-S1 8.20 7.68 99.90
17568 2019-11-19 12:38:17 ESP12E-S1 8.90 8.45 99.90
17567 2019-11-19 12:09:59 ESP12E-S1 9.00 8.56 99.90
17566 2019-11-19 11:41:26 ESP12E-S1 7.70 7.13 99.90
17565 2019-11-19 11:13:02 ESP12E-S1 6.20 5.48 99.90
17564 2019-11-19 10:44:36 ESP12E-S1 5.30 4.49 99.90
17563 2019-11-19 10:16:20 ESP12E-S1 4.80 3.94 99.90
17562 2019-11-19 09:48:15 ESP12E-S1 4.40 3.50 99.90
17561 2019-11-19 09:19:55 ESP12E-S1 4.20 3.28 99.90
17560 2019-11-19 08:51:41 ESP12E-S1 4.10 3.17 99.90
17559 2019-11-19 08:23:26 ESP12E-S1 4.00 3.06 99.90
17558 2019-11-19 07:55:13 ESP12E-S1 3.90 2.95 99.90
17557 2019-11-19 07:27:00 ESP12E-S1 3.80 2.84 99.90
17556 2019-11-19 06:58:46 ESP12E-S1 3.80 2.84 99.90
17555 2019-11-19 06:30:33 ESP12E-S1 3.80 2.84 99.90
17554 2019-11-19 06:02:20 ESP12E-S1 3.80 2.84 99.90
17553 2019-11-19 05:34:06 ESP12E-S1 3.80 2.84 99.90
17552 2019-11-19 05:05:53 ESP12E-S1 3.80 2.84 99.90
17551 2019-11-19 04:37:41 ESP12E-S1 3.70 2.73 99.90
17550 2019-11-19 04:09:28 ESP12E-S1 3.60 2.62 99.90
17549 2019-11-19 03:41:10 ESP12E-S1 3.50 2.51 99.90
17548 2019-11-19 03:13:11 ESP12E-S1 3.40 2.40 99.90
17547 2019-11-19 02:44:52 ESP12E-S1 3.30 2.29 99.90
17546 2019-11-19 02:16:37 ESP12E-S1 3.20 2.18 99.90
17545 2019-11-19 01:48:23 ESP12E-S1 3.10 2.07 99.90
17544 2019-11-19 01:20:12 ESP12E-S1 3.00 1.96 99.90
17543 2019-11-19 00:52:01 ESP12E-S1 3.00 1.96 99.90
17542 2019-11-19 00:24:08 ESP12E-S1 2.90 1.85 99.90
17541 2019-11-18 23:55:43 ESP12E-S1 2.90 1.85 99.90
17540 2019-11-18 23:27:29 ESP12E-S1 2.90 1.85 99.90
17539 2019-11-18 22:59:16 ESP12E-S1 3.10 2.07 99.90
17538 2019-11-18 22:31:04 ESP12E-S1 3.20 2.18 99.90
17537 2019-11-18 22:02:53 ESP12E-S1 3.30 2.29 99.90
17536 2019-11-18 21:34:41 ESP12E-S1 3.40 2.40 99.90
17535 2019-11-18 21:06:26 ESP12E-S1 3.40 2.40 99.90
17534 2019-11-18 20:38:14 ESP12E-S1 3.60 2.62 99.90
17533 2019-11-18 20:10:03 ESP12E-S1 3.60 2.62 99.90
17532 2019-11-18 19:41:49 ESP12E-S1 3.60 2.62 99.90
17531 2019-11-18 19:13:36 ESP12E-S1 3.70 2.73 99.90
17530 2019-11-18 18:45:23 ESP12E-S1 3.70 2.73 99.90
17529 2019-11-18 18:17:11 ESP12E-S1 3.70 2.73 99.90
17528 2019-11-18 17:48:57 ESP12E-S1 3.80 2.84 99.90
17527 2019-11-18 17:20:42 ESP12E-S1 3.90 2.95 99.90
17526 2019-11-18 16:52:27 ESP12E-S1 3.90 2.95 99.90
17525 2019-11-18 16:24:16 ESP12E-S1 4.00 3.06 99.90
17524 2019-11-18 15:56:03 ESP12E-S1 4.10 3.17 99.90
17523 2019-11-18 15:27:51 ESP12E-S1 4.10 3.17 99.90
17522 2019-11-18 14:59:37 ESP12E-S1 4.20 3.28 99.90
17521 2019-11-18 14:31:26 ESP12E-S1 4.20 3.28 99.90
17520 2019-11-18 14:03:13 ESP12E-S1 4.40 3.50 99.90
17519 2019-11-18 13:34:55 ESP12E-S1 4.50 3.61 99.90
17518 2019-11-18 13:06:44 ESP12E-S1 4.60 3.72 99.90
17517 2019-11-18 12:38:31 ESP12E-S1 4.70 3.83 99.90
17516 2019-11-18 12:10:18 ESP12E-S1 4.80 3.94 99.90
17515 2019-11-18 11:42:05 ESP12E-S1 4.80 3.94 99.90
17514 2019-11-18 11:13:52 ESP12E-S1 4.90 4.05 99.90
17513 2019-11-18 10:45:40 ESP12E-S1 4.80 3.94 99.90
17512 2019-11-18 10:17:26 ESP12E-S1 4.90 4.05 99.90
17511 2019-11-18 09:49:14 ESP12E-S1 4.90 4.05 99.90
17510 2019-11-18 09:21:05 ESP12E-S1 4.90 4.05 99.90
17509 2019-11-18 08:52:52 ESP12E-S1 5.00 4.16 99.90
17508 2019-11-18 08:24:29 ESP12E-S1 5.10 4.27 99.90
17507 2019-11-18 07:56:16 ESP12E-S1 5.10 4.27 99.90
17506 2019-11-18 07:27:59 ESP12E-S1 5.20 4.38 99.90
17505 2019-11-18 06:59:46 ESP12E-S1 5.20 4.38 99.90
17504 2019-11-18 06:31:30 ESP12E-S1 5.30 4.49 99.90
17503 2019-11-18 06:03:19 ESP12E-S1 5.30 4.49 99.90
17502 2019-11-18 05:35:07 ESP12E-S1 5.30 4.49 99.90
17501 2019-11-18 05:06:56 ESP12E-S1 5.40 4.60 99.90
17500 2019-11-18 04:38:44 ESP12E-S1 5.50 4.71 99.90
17499 2019-11-18 04:10:22 ESP12E-S1 5.70 4.93 99.90
17498 2019-11-18 03:42:11 ESP12E-S1 5.70 4.93 99.90
17497 2019-11-18 03:13:58 ESP12E-S1 5.80 5.04 99.90
17496 2019-11-18 02:45:45 ESP12E-S1 5.80 5.04 99.90
17495 2019-11-18 02:17:33 ESP12E-S1 5.80 5.04 99.90
17494 2019-11-18 01:49:18 ESP12E-S1 5.90 5.15 99.90
17493 2019-11-18 01:20:59 ESP12E-S1 5.90 5.15 99.90
17492 2019-11-18 00:52:48 ESP12E-S1 6.10 5.37 99.90
17491 2019-11-18 00:24:33 ESP12E-S1 6.00 5.26 99.90
17490 2019-11-17 23:56:21 ESP12E-S1 6.00 5.26 99.90
17489 2019-11-17 23:28:06 ESP12E-S1 6.00 5.26 99.90
17488 2019-11-17 22:59:49 ESP12E-S1 6.00 5.26 99.90
17487 2019-11-17 22:31:39 ESP12E-S1 6.10 5.37 99.90
17486 2019-11-17 22:03:15 ESP12E-S1 6.10 5.37 99.90
17485 2019-11-17 21:35:03 ESP12E-S1 6.10 5.37 99.90
17484 2019-11-17 21:06:43 ESP12E-S1 6.20 5.48 99.90
17483 2019-11-17 20:38:24 ESP12E-S1 6.30 5.59 99.90
17482 2019-11-17 20:10:14 ESP12E-S1 6.40 5.70 99.90
17481 2019-11-17 19:42:00 ESP12E-S1 6.50 5.81 99.90
17480 2019-11-17 19:13:48 ESP12E-S1 6.40 5.70 99.90
17479 2019-11-17 18:45:26 ESP12E-S1 6.30 5.59 99.90
17478 2019-11-17 18:17:16 ESP12E-S1 6.40 5.70 99.90
17477 2019-11-17 17:49:02 ESP12E-S1 6.30 5.59 99.90
17476 2019-11-17 17:20:44 ESP12E-S1 6.30 5.59 99.90
17475 2019-11-17 16:52:32 ESP12E-S1 6.30 5.59 99.90
17474 2019-11-17 16:24:17 ESP12E-S1 6.20 5.48 99.90
17473 2019-11-17 15:56:03 ESP12E-S1 6.20 5.48 99.90
17472 2019-11-17 15:27:45 ESP12E-S1 6.30 5.59 99.90
17471 2019-11-17 14:59:34 ESP12E-S1 6.40 5.70 99.90
17470 2019-11-17 14:31:21 ESP12E-S1 6.40 5.70 99.90
17469 2019-11-17 14:03:07 ESP12E-S1 6.50 5.81 99.90
17468 2019-11-17 13:34:52 ESP12E-S1 6.50 5.81 99.90
17467 2019-11-17 13:06:40 ESP12E-S1 6.40 5.70 99.90
17466 2019-11-17 12:38:20 ESP12E-S1 6.40 5.70 99.90
17465 2019-11-17 12:10:08 ESP12E-S1 6.40 5.70 99.90
17464 2019-11-17 11:41:55 ESP12E-S1 6.40 5.70 99.90
17463 2019-11-17 11:13:42 ESP12E-S1 6.50 5.81 99.90
17462 2019-11-17 10:45:29 ESP12E-S1 6.30 5.59 99.90
17461 2019-11-17 10:17:14 ESP12E-S1 6.10 5.37 99.90
17460 2019-11-17 09:48:55 ESP12E-S1 5.60 4.82 99.90
17459 2019-11-17 09:20:34 ESP12E-S1 5.20 4.38 99.90
17458 2019-11-17 08:52:19 ESP12E-S1 4.80 3.94 99.90
17457 2019-11-17 08:24:05 ESP12E-S1 4.40 3.50 99.90
17456 2019-11-17 07:55:51 ESP12E-S1 4.30 3.39 99.90
17455 2019-11-17 07:27:41 ESP12E-S1 4.30 3.39 99.90
17454 2019-11-17 06:59:18 ESP12E-S1 4.30 3.39 99.90
17453 2019-11-17 06:31:10 ESP12E-S1 4.40 3.50 99.90
17452 2019-11-17 06:02:55 ESP12E-S1 4.40 3.50 99.90
17451 2019-11-17 05:34:43 ESP12E-S1 4.60 3.72 99.90
17450 2019-11-17 05:06:30 ESP12E-S1 4.60 3.72 99.90
17449 2019-11-17 04:38:15 ESP12E-S1 4.50 3.61 99.90
17448 2019-11-17 04:10:01 ESP12E-S1 4.50 3.61 99.90
17447 2019-11-17 03:41:47 ESP12E-S1 4.70 3.83 99.90
17446 2019-11-17 03:13:32 ESP12E-S1 4.90 4.05 99.90
17445 2019-11-17 02:45:21 ESP12E-S1 5.10 4.27 99.90
17444 2019-11-17 02:17:10 ESP12E-S1 5.10 4.27 99.90
17443 2019-11-17 01:48:56 ESP12E-S1 5.10 4.27 99.90
17442 2019-11-17 01:20:41 ESP12E-S1 5.10 4.27 99.90
17441 2019-11-17 00:52:21 ESP12E-S1 5.00 4.16 99.90
17440 2019-11-17 00:24:00 ESP12E-S1 4.80 3.94 99.90
17439 2019-11-16 23:55:47 ESP12E-S1 4.50 3.61 99.90
17438 2019-11-16 23:27:26 ESP12E-S1 4.60 3.72 99.90
17437 2019-11-16 22:59:07 ESP12E-S1 4.70 3.83 99.90
17436 2019-11-16 22:30:54 ESP12E-S1 4.60 3.72 99.90
17435 2019-11-16 22:02:35 ESP12E-S1 4.50 3.61 99.90
17434 2019-11-16 21:34:24 ESP12E-S1 4.20 3.28 99.90
17433 2019-11-16 21:06:07 ESP12E-S1 4.50 3.61 99.90
17432 2019-11-16 20:38:00 ESP12E-S1 4.70 3.83 99.90
17431 2019-11-16 20:09:49 ESP12E-S1 5.10 4.27 99.90
17430 2019-11-16 19:41:38 ESP12E-S1 5.50 4.71 99.90
17429 2019-11-16 19:13:26 ESP12E-S1 5.50 4.71 99.90
17428 2019-11-16 18:45:09 ESP12E-S1 5.30 4.49 99.90
17427 2019-11-16 18:16:59 ESP12E-S1 5.20 4.38 99.90
17426 2019-11-16 17:48:51 ESP12E-S1 5.60 4.82 99.90
17425 2019-11-16 17:20:42 ESP12E-S1 6.10 5.37 99.90
17424 2019-11-16 16:52:28 ESP12E-S1 6.90 6.25 99.90
17423 2019-11-16 16:24:27 ESP12E-S1 8.20 7.66 98.90
17422 2019-11-16 15:56:33 ESP12E-S1 10.90 10.05 76.60
17421 2019-11-16 15:28:13 ESP12E-S1 13.70 13.07 74.30
17420 2019-11-16 14:59:41 ESP12E-S1 10.00 9.50 93.80
17419 2019-11-16 14:31:27 ESP12E-S1 9.50 9.11 99.90
17418 2019-11-16 14:02:55 ESP12E-S1 8.50 8.01 99.90
17417 2019-11-16 13:34:39 ESP12E-S1 7.80 7.24 99.90
17416 2019-11-16 13:06:24 ESP12E-S1 8.60 8.04 96.80
17415 2019-11-16 12:38:12 ESP12E-S1 9.10 8.47 92.00
17414 2019-11-16 12:10:13 ESP12E-S1 10.20 9.60 89.20
17413 2019-11-16 11:41:44 ESP12E-S1 10.00 9.66 99.90
17412 2019-11-16 11:12:58 ESP12E-S1 7.00 6.36 99.90
17411 2019-11-16 10:44:32 ESP12E-S1 5.50 4.71 99.90
17410 2019-11-16 10:16:14 ESP12E-S1 5.00 4.16 99.90
17409 2019-11-16 09:47:58 ESP12E-S1 4.60 3.72 99.90
17408 2019-11-16 09:19:39 ESP12E-S1 4.20 3.28 99.90
17407 2019-11-16 08:51:26 ESP12E-S1 3.90 2.95 99.90
17406 2019-11-16 08:23:08 ESP12E-S1 3.80 2.84 99.90
17405 2019-11-16 07:54:52 ESP12E-S1 3.80 2.84 99.90
17404 2019-11-16 07:26:41 ESP12E-S1 3.60 2.62 99.90
17403 2019-11-16 06:58:30 ESP12E-S1 3.60 2.62 99.90
17402 2019-11-16 06:30:20 ESP12E-S1 4.10 3.17 99.90
17401 2019-11-16 06:02:10 ESP12E-S1 4.50 3.61 99.90
17400 2019-11-16 05:34:01 ESP12E-S1 4.90 4.05 99.90
17399 2019-11-16 05:05:51 ESP12E-S1 5.00 4.16 99.90
17398 2019-11-16 04:37:39 ESP12E-S1 5.10 4.27 99.90
17397 2019-11-16 04:09:24 ESP12E-S1 5.20 4.38 99.90
17396 2019-11-16 03:41:10 ESP12E-S1 5.20 4.38 99.90
17395 2019-11-16 03:12:55 ESP12E-S1 5.20 4.38 99.90
17394 2019-11-16 02:44:44 ESP12E-S1 5.20 4.38 99.90
17393 2019-11-16 02:16:31 ESP12E-S1 5.10 4.27 99.90
17392 2019-11-16 01:48:10 ESP12E-S1 5.10 4.27 99.90
17391 2019-11-16 01:19:50 ESP12E-S1 5.10 4.27 99.90
17390 2019-11-16 00:51:37 ESP12E-S1 4.90 4.05 99.90
17389 2019-11-16 00:23:16 ESP12E-S1 4.80 3.94 99.90
17388 2019-11-15 23:55:01 ESP12E-S1 4.70 3.83 99.90
17387 2019-11-15 23:26:50 ESP12E-S1 4.70 3.83 99.90
17386 2019-11-15 22:58:37 ESP12E-S1 4.70 3.83 99.90
17385 2019-11-15 22:30:22 ESP12E-S1 4.70 3.83 99.90
17384 2019-11-15 22:02:10 ESP12E-S1 4.80 3.94 99.90
17383 2019-11-15 21:34:00 ESP12E-S1 4.80 3.94 99.90
17382 2019-11-15 21:05:47 ESP12E-S1 4.80 3.94 99.90
17381 2019-11-15 20:37:37 ESP12E-S1 4.90 4.05 99.90
17380 2019-11-15 20:09:31 ESP12E-S1 5.10 4.27 99.90
17379 2019-11-15 19:41:13 ESP12E-S1 5.10 4.27 99.90
17378 2019-11-15 19:12:56 ESP12E-S1 5.10 4.27 99.90
17377 2019-11-15 18:44:37 ESP12E-S1 5.00 4.16 99.90
17376 2019-11-15 18:16:27 ESP12E-S1 5.20 4.38 99.90
17375 2019-11-15 17:48:14 ESP12E-S1 5.50 4.71 99.90
17374 2019-11-15 17:20:02 ESP12E-S1 5.70 4.93 99.90
17373 2019-11-15 16:51:52 ESP12E-S1 6.00 5.26 99.90
17372 2019-11-15 16:23:32 ESP12E-S1 6.40 5.70 99.90
17371 2019-11-15 15:55:26 ESP12E-S1 6.90 6.25 99.90
17370 2019-11-15 15:27:23 ESP12E-S1 8.40 7.90 99.90
17369 2019-11-15 14:58:54 ESP12E-S1 7.90 7.35 99.90
17368 2019-11-15 14:30:29 ESP12E-S1 6.60 5.92 99.90
17367 2019-11-15 14:02:15 ESP12E-S1 6.50 5.81 99.90
17366 2019-11-15 13:34:01 ESP12E-S1 6.30 5.59 99.90
17365 2019-11-15 13:05:39 ESP12E-S1 6.30 5.59 99.90
17364 2019-11-15 12:37:30 ESP12E-S1 6.40 5.70 99.90
17363 2019-11-15 12:09:14 ESP12E-S1 6.40 5.70 99.90
17362 2019-11-15 11:40:56 ESP12E-S1 6.60 5.92 99.90
17361 2019-11-15 11:12:37 ESP12E-S1 6.70 6.03 99.90
17360 2019-11-15 10:44:19 ESP12E-S1 6.60 5.92 99.90
17359 2019-11-15 10:15:59 ESP12E-S1 6.50 5.81 99.90
17358 2019-11-15 09:47:42 ESP12E-S1 5.70 4.93 99.90
17357 2019-11-15 09:19:24 ESP12E-S1 5.40 4.60 99.90
17356 2019-11-15 08:51:02 ESP12E-S1 5.10 4.27 99.90
17355 2019-11-15 08:22:51 ESP12E-S1 4.90 4.05 99.90
17354 2019-11-15 07:54:41 ESP12E-S1 4.90 4.05 99.90
17353 2019-11-15 07:26:27 ESP12E-S1 4.80 3.94 99.90
17352 2019-11-15 06:30:10 ESP12E-S1 4.70 3.83 99.90
17351 2019-11-15 06:01:50 ESP12E-S1 4.70 3.83 99.90
17350 2019-11-15 05:33:32 ESP12E-S1 4.60 3.72 99.90
17349 2019-11-15 05:05:14 ESP12E-S1 4.60 3.72 99.90
17348 2019-11-15 04:36:57 ESP12E-S1 4.60 3.72 99.90
17347 2019-11-15 04:08:39 ESP12E-S1 4.70 3.83 99.90
17346 2019-11-15 03:40:22 ESP12E-S1 4.70 3.83 99.90
17345 2019-11-15 03:12:04 ESP12E-S1 4.80 3.94 99.90
17344 2019-11-15 02:43:46 ESP12E-S1 4.90 4.05 99.90
17343 2019-11-15 02:15:29 ESP12E-S1 5.00 4.16 99.90
17342 2019-11-15 01:47:11 ESP12E-S1 5.00 4.16 99.90
17341 2019-11-15 01:18:53 ESP12E-S1 5.00 4.16 99.90
17340 2019-11-15 00:50:35 ESP12E-S1 5.10 4.27 99.90
17339 2019-11-15 00:22:17 ESP12E-S1 5.20 4.38 99.90
17338 2019-11-14 23:53:59 ESP12E-S1 5.30 4.49 99.90
17337 2019-11-14 23:25:41 ESP12E-S1 5.30 4.49 99.90
17336 2019-11-14 22:57:26 ESP12E-S1 5.30 4.49 99.90
17335 2019-11-14 22:29:08 ESP12E-S1 5.50 4.71 99.90
17334 2019-11-14 22:00:50 ESP12E-S1 5.70 4.93 99.90
17333 2019-11-14 21:32:33 ESP12E-S1 5.80 5.04 99.90
17332 2019-11-14 21:04:17 ESP12E-S1 5.90 5.15 99.90
17331 2019-11-14 20:35:59 ESP12E-S1 6.00 5.26 99.90
17330 2019-11-14 20:07:43 ESP12E-S1 6.00 5.26 99.90
17329 2019-11-14 19:39:26 ESP12E-S1 6.00 5.26 99.90
17328 2019-11-14 19:11:07 ESP12E-S1 6.10 5.37 99.90
17327 2019-11-14 18:42:50 ESP12E-S1 6.20 5.48 99.90
17326 2019-11-14 18:14:34 ESP12E-S1 6.40 5.70 99.90
17325 2019-11-14 17:46:17 ESP12E-S1 6.70 6.03 99.90
17324 2019-11-14 17:18:01 ESP12E-S1 7.10 6.47 99.80
17323 2019-11-14 16:49:47 ESP12E-S1 7.50 6.82 96.20
17322 2019-11-14 16:21:37 ESP12E-S1 8.30 7.45 86.80
17321 2019-11-14 15:53:31 ESP12E-S1 10.20 9.12 70.70
17320 2019-11-14 15:25:27 ESP12E-S1 14.80 13.95 61.90
17319 2019-11-14 14:56:48 ESP12E-S1 10.50 9.69 79.80
17318 2019-11-14 14:28:24 ESP12E-S1 9.60 8.83 85.00
17317 2019-11-14 14:00:06 ESP12E-S1 9.00 8.18 85.30
17316 2019-11-14 13:32:04 ESP12E-S1 9.70 9.06 89.50
17315 2019-11-14 13:03:47 ESP12E-S1 10.30 9.71 89.20
17314 2019-11-14 12:35:28 ESP12E-S1 10.50 10.08 94.90
17313 2019-11-14 12:07:17 ESP12E-S1 11.10 10.80 97.00
17312 2019-11-14 11:38:49 ESP12E-S1 10.30 9.99 99.90
17311 2019-11-14 11:10:01 ESP12E-S1 7.50 6.91 99.90
17310 2019-11-14 10:41:39 ESP12E-S1 6.60 5.92 99.90
17309 2019-11-14 10:13:13 ESP12E-S1 5.80 5.04 99.90
17308 2019-11-14 09:45:10 ESP12E-S1 5.00 4.16 99.90
17307 2019-11-14 09:16:42 ESP12E-S1 4.60 3.72 99.90
17306 2019-11-14 08:48:22 ESP12E-S1 4.40 3.50 99.90
17305 2019-11-14 08:20:03 ESP12E-S1 4.10 3.17 99.90
17304 2019-11-14 07:51:44 ESP12E-S1 4.10 3.17 99.90
17303 2019-11-14 07:23:26 ESP12E-S1 4.30 3.39 99.90
17302 2019-11-14 06:55:09 ESP12E-S1 4.60 3.72 99.90
17301 2019-11-14 06:26:51 ESP12E-S1 4.70 3.83 99.90
17300 2019-11-14 05:58:33 ESP12E-S1 4.80 3.94 99.90
17299 2019-11-14 05:30:14 ESP12E-S1 4.80 3.94 99.90
17298 2019-11-14 05:01:56 ESP12E-S1 4.80 3.94 99.90
17297 2019-11-14 04:33:38 ESP12E-S1 4.80 3.94 99.90
17296 2019-11-14 04:05:19 ESP12E-S1 4.80 3.94 99.90
17295 2019-11-14 03:37:00 ESP12E-S1 4.70 3.83 99.90
17294 2019-11-14 03:08:41 ESP12E-S1 4.70 3.83 99.90
17293 2019-11-14 02:40:22 ESP12E-S1 4.70 3.83 99.90
17292 2019-11-14 02:12:05 ESP12E-S1 4.60 3.72 99.90
17291 2019-11-14 01:43:46 ESP12E-S1 4.60 3.72 99.90
17290 2019-11-14 01:15:27 ESP12E-S1 4.60 3.72 99.90
17289 2019-11-14 00:47:09 ESP12E-S1 4.60 3.72 99.90
17288 2019-11-14 00:18:53 ESP12E-S1 4.50 3.61 99.90
17287 2019-11-13 23:50:34 ESP12E-S1 4.50 3.61 99.90
17286 2019-11-13 23:22:16 ESP12E-S1 4.50 3.61 99.90
17285 2019-11-13 22:53:57 ESP12E-S1 4.50 3.61 99.90
17284 2019-11-13 22:25:39 ESP12E-S1 4.50 3.61 99.90
17283 2019-11-13 21:57:21 ESP12E-S1 4.50 3.61 99.90
17282 2019-11-13 21:29:04 ESP12E-S1 4.50 3.61 99.90
17281 2019-11-13 21:00:47 ESP12E-S1 4.50 3.61 99.90
17280 2019-11-13 20:32:29 ESP12E-S1 4.50 3.61 99.90
17279 2019-11-13 20:04:11 ESP12E-S1 4.50 3.61 99.90
17278 2019-11-13 19:35:53 ESP12E-S1 4.50 3.61 99.90
17277 2019-11-13 19:07:34 ESP12E-S1 4.50 3.61 99.90
17276 2019-11-13 18:39:16 ESP12E-S1 4.50 3.61 99.90
17275 2019-11-13 18:10:56 ESP12E-S1 4.50 3.61 99.90
17274 2019-11-13 17:42:39 ESP12E-S1 4.50 3.61 99.90
17273 2019-11-13 17:14:21 ESP12E-S1 4.40 3.50 99.90
17272 2019-11-13 16:46:02 ESP12E-S1 4.40 3.50 99.90
17271 2019-11-13 16:17:45 ESP12E-S1 4.40 3.50 99.90
17270 2019-11-13 15:49:26 ESP12E-S1 4.40 3.50 99.90
17269 2019-11-13 15:21:08 ESP12E-S1 4.40 3.50 99.90
17268 2019-11-13 14:52:49 ESP12E-S1 4.30 3.39 99.90
17267 2019-11-13 14:24:30 ESP12E-S1 4.30 3.39 99.90
17266 2019-11-13 13:56:13 ESP12E-S1 4.20 3.28 99.90
17265 2019-11-13 13:27:56 ESP12E-S1 4.20 3.28 99.90
17264 2019-11-13 12:59:36 ESP12E-S1 4.10 3.17 99.90
17263 2019-11-13 12:31:18 ESP12E-S1 4.00 3.06 99.90
17262 2019-11-13 12:03:00 ESP12E-S1 3.90 2.95 99.90
17261 2019-11-13 11:34:42 ESP12E-S1 3.80 2.84 99.90
17260 2019-11-13 11:06:24 ESP12E-S1 3.70 2.73 99.90
17259 2019-11-13 10:38:06 ESP12E-S1 3.60 2.62 99.90
17258 2019-11-13 10:09:48 ESP12E-S1 3.60 2.62 99.90
17257 2019-11-13 09:41:30 ESP12E-S1 3.50 2.51 99.90
17256 2019-11-13 09:13:11 ESP12E-S1 3.40 2.40 99.90
17255 2019-11-13 08:44:52 ESP12E-S1 3.20 2.18 99.90
17254 2019-11-13 08:16:33 ESP12E-S1 3.20 2.18 99.90
17253 2019-11-13 07:48:15 ESP12E-S1 3.10 2.07 99.90
17252 2019-11-13 07:19:55 ESP12E-S1 3.10 2.07 99.90
17251 2019-11-13 06:51:37 ESP12E-S1 3.00 1.96 99.90
17250 2019-11-13 06:23:18 ESP12E-S1 3.00 1.96 99.90
17249 2019-11-13 05:54:58 ESP12E-S1 2.90 1.85 99.90
17248 2019-11-13 05:26:39 ESP12E-S1 2.60 1.52 99.90
17247 2019-11-13 04:58:21 ESP12E-S1 2.50 1.41 99.90
17246 2019-11-13 04:30:11 ESP12E-S1 2.60 1.52 99.90
17245 2019-11-13 04:01:52 ESP12E-S1 2.80 1.74 99.90
17244 2019-11-13 03:33:35 ESP12E-S1 3.10 2.07 99.90
17243 2019-11-13 03:05:19 ESP12E-S1 3.20 2.18 99.90
17242 2019-11-13 02:37:01 ESP12E-S1 3.40 2.40 99.90
17241 2019-11-13 02:08:44 ESP12E-S1 3.50 2.51 99.90
17240 2019-11-13 01:40:28 ESP12E-S1 3.70 2.73 99.90
17239 2019-11-13 01:12:11 ESP12E-S1 3.90 2.95 99.90
17238 2019-11-13 00:43:55 ESP12E-S1 3.80 2.84 99.90
17237 2019-11-13 00:15:37 ESP12E-S1 3.80 2.84 99.90
17236 2019-11-12 23:47:18 ESP12E-S1 3.80 2.84 99.90
17235 2019-11-12 23:19:00 ESP12E-S1 3.80 2.84 99.90
17234 2019-11-12 22:50:42 ESP12E-S1 3.70 2.73 99.90
17233 2019-11-12 22:22:27 ESP12E-S1 4.20 3.28 99.90
17232 2019-11-12 21:54:09 ESP12E-S1 4.40 3.50 99.90
17231 2019-11-12 21:25:51 ESP12E-S1 4.40 3.50 99.90
17230 2019-11-12 20:57:36 ESP12E-S1 4.40 3.50 99.90
17229 2019-11-12 20:29:17 ESP12E-S1 4.30 3.39 99.90
17228 2019-11-12 20:01:00 ESP12E-S1 4.40 3.50 99.90
17227 2019-11-12 19:32:56 ESP12E-S1 4.50 3.61 99.90
17226 2019-11-12 19:04:55 ESP12E-S1 4.70 3.83 99.90
17225 2019-11-12 18:36:56 ESP12E-S1 5.00 4.16 99.90
17224 2019-11-12 18:08:29 ESP12E-S1 5.20 4.38 99.90
17223 2019-11-12 17:40:13 ESP12E-S1 5.30 4.49 99.90
17222 2019-11-12 17:11:57 ESP12E-S1 5.40 4.60 99.90
17221 2019-11-12 16:43:39 ESP12E-S1 5.60 4.82 99.90
17220 2019-11-12 16:15:23 ESP12E-S1 5.80 5.04 99.90
17219 2019-11-12 15:47:06 ESP12E-S1 6.10 5.37 99.90
17218 2019-11-12 15:18:52 ESP12E-S1 6.70 6.03 99.90
17217 2019-11-12 14:50:31 ESP12E-S1 5.80 5.04 99.90
17216 2019-11-12 14:22:14 ESP12E-S1 5.70 4.93 99.90
17215 2019-11-12 13:54:06 ESP12E-S1 5.50 4.71 99.90
17214 2019-11-12 13:25:44 ESP12E-S1 5.50 4.71 99.90
17213 2019-11-12 12:57:27 ESP12E-S1 5.30 4.49 99.90
17212 2019-11-12 12:29:09 ESP12E-S1 5.20 4.38 99.90
17211 2019-11-12 12:00:51 ESP12E-S1 5.30 4.49 99.90
17210 2019-11-12 11:32:31 ESP12E-S1 5.10 4.27 99.90
17209 2019-11-12 11:04:29 ESP12E-S1 4.90 4.05 99.90
17208 2019-11-12 10:36:21 ESP12E-S1 4.70 3.83 99.90
17207 2019-11-12 10:08:06 ESP12E-S1 4.70 3.83 99.90
17206 2019-11-12 09:39:43 ESP12E-S1 4.40 3.50 99.90
17205 2019-11-12 09:11:22 ESP12E-S1 4.20 3.28 99.90
17204 2019-11-12 08:43:04 ESP12E-S1 4.20 3.28 99.90
17203 2019-11-12 08:14:46 ESP12E-S1 4.20 3.28 99.90
17202 2019-11-12 07:46:27 ESP12E-S1 4.10 3.17 99.90
17201 2019-11-12 07:18:28 ESP12E-S1 4.00 3.06 99.90
17200 2019-11-12 06:50:13 ESP12E-S1 4.00 3.06 99.90
17199 2019-11-12 06:21:52 ESP12E-S1 4.00 3.06 99.90
17198 2019-11-12 05:53:33 ESP12E-S1 4.00 3.06 99.90
17197 2019-11-12 05:25:15 ESP12E-S1 3.90 2.95 99.90
17196 2019-11-12 04:57:16 ESP12E-S1 3.90 2.95 99.90
17195 2019-11-12 04:28:49 ESP12E-S1 3.80 2.84 99.90
17194 2019-11-12 04:00:51 ESP12E-S1 3.70 2.73 99.90
17193 2019-11-12 03:32:26 ESP12E-S1 3.70 2.73 99.90
17192 2019-11-12 03:04:19 ESP12E-S1 3.70 2.73 99.90
17191 2019-11-12 02:35:57 ESP12E-S1 3.60 2.62 99.90
17190 2019-11-12 02:07:39 ESP12E-S1 3.60 2.62 99.90
17189 2019-11-12 01:39:40 ESP12E-S1 3.40 2.40 99.90
17188 2019-11-12 01:11:34 ESP12E-S1 3.40 2.40 99.90
17187 2019-11-12 00:43:27 ESP12E-S1 3.30 2.29 99.90
17186 2019-11-12 00:15:02 ESP12E-S1 3.20 2.18 99.90
17185 2019-11-11 23:46:44 ESP12E-S1 3.10 2.07 99.90
17184 2019-11-11 23:18:37 ESP12E-S1 3.00 1.96 99.90
17183 2019-11-11 22:50:27 ESP12E-S1 2.90 1.85 99.90
17182 2019-11-11 22:22:04 ESP12E-S1 2.80 1.74 99.90
17181 2019-11-11 21:53:47 ESP12E-S1 2.90 1.85 99.90
17180 2019-11-11 21:25:48 ESP12E-S1 2.70 1.63 99.90
17179 2019-11-11 20:57:22 ESP12E-S1 2.80 1.74 99.90
17178 2019-11-11 20:29:06 ESP12E-S1 2.90 1.85 99.90
17177 2019-11-11 20:01:14 ESP12E-S1 2.90 1.85 99.90
17176 2019-11-11 19:32:55 ESP12E-S1 2.80 1.74 99.90
17175 2019-11-11 19:04:45 ESP12E-S1 2.80 1.74 99.90
17174 2019-11-11 18:36:24 ESP12E-S1 2.80 1.74 99.90
17173 2019-11-11 18:08:07 ESP12E-S1 2.80 1.74 99.90
17172 2019-11-11 17:39:49 ESP12E-S1 2.80 1.74 99.90
17171 2019-11-11 17:11:32 ESP12E-S1 2.90 1.85 99.90
17170 2019-11-11 16:43:16 ESP12E-S1 3.00 1.96 99.90
17169 2019-11-11 16:14:58 ESP12E-S1 3.00 1.96 99.90
17168 2019-11-11 15:46:40 ESP12E-S1 3.00 1.96 99.90
17167 2019-11-11 15:18:22 ESP12E-S1 3.00 1.96 99.90
17166 2019-11-11 14:50:04 ESP12E-S1 3.00 1.96 99.90
17165 2019-11-11 14:21:47 ESP12E-S1 3.00 1.96 99.90
17164 2019-11-11 13:53:29 ESP12E-S1 3.00 1.96 99.90
17163 2019-11-11 13:25:13 ESP12E-S1 3.00 1.96 99.90
17162 2019-11-11 12:56:56 ESP12E-S1 3.00 1.96 99.90
17161 2019-11-11 12:28:58 ESP12E-S1 3.00 1.96 99.90
17160 2019-11-11 12:00:32 ESP12E-S1 2.90 1.85 99.90
17159 2019-11-11 11:32:15 ESP12E-S1 2.90 1.85 99.90
17158 2019-11-11 11:03:56 ESP12E-S1 2.90 1.85 99.90
17157 2019-11-11 10:35:40 ESP12E-S1 2.80 1.74 99.90
17156 2019-11-11 10:07:22 ESP12E-S1 3.00 1.96 99.90
17155 2019-11-11 09:39:25 ESP12E-S1 3.00 1.96 99.90
17154 2019-11-11 09:11:02 ESP12E-S1 3.10 2.07 99.90
17153 2019-11-11 08:42:45 ESP12E-S1 3.20 2.18 99.90
17152 2019-11-11 08:14:26 ESP12E-S1 3.10 2.07 99.90
17151 2019-11-11 07:46:08 ESP12E-S1 3.10 2.07 99.90
17150 2019-11-11 07:17:51 ESP12E-S1 3.20 2.18 99.90
17149 2019-11-11 06:49:33 ESP12E-S1 3.30 2.29 99.90
17148 2019-11-11 06:21:16 ESP12E-S1 3.20 2.18 99.90
17147 2019-11-11 05:52:58 ESP12E-S1 3.20 2.18 99.90
17146 2019-11-11 05:24:42 ESP12E-S1 3.20 2.18 99.90
17145 2019-11-11 04:56:23 ESP12E-S1 3.20 2.18 99.90
17144 2019-11-11 04:28:06 ESP12E-S1 3.20 2.18 99.90
17143 2019-11-11 03:59:47 ESP12E-S1 3.10 2.07 99.90
17142 2019-11-11 03:31:30 ESP12E-S1 3.20 2.18 99.90
17141 2019-11-11 03:03:13 ESP12E-S1 3.20 2.18 99.90
17140 2019-11-11 02:34:56 ESP12E-S1 3.30 2.29 99.90
17139 2019-11-11 02:06:39 ESP12E-S1 3.60 2.62 99.90
17138 2019-11-11 01:38:23 ESP12E-S1 3.70 2.73 99.90
17137 2019-11-11 01:10:06 ESP12E-S1 3.90 2.95 99.90
17136 2019-11-11 00:41:49 ESP12E-S1 3.90 2.95 99.90
17135 2019-11-11 00:13:32 ESP12E-S1 3.80 2.84 99.90
17134 2019-11-10 23:45:15 ESP12E-S1 3.90 2.95 99.90
17133 2019-11-10 23:16:57 ESP12E-S1 3.90 2.95 99.90
17132 2019-11-10 22:48:39 ESP12E-S1 3.80 2.84 99.90
17131 2019-11-10 22:20:20 ESP12E-S1 3.80 2.84 99.90
17130 2019-11-10 21:52:05 ESP12E-S1 3.90 2.95 99.90
17129 2019-11-10 21:23:48 ESP12E-S1 4.10 3.17 99.90
17128 2019-11-10 20:55:31 ESP12E-S1 4.30 3.39 99.90
17127 2019-11-10 20:27:13 ESP12E-S1 4.30 3.39 99.90
17126 2019-11-10 19:58:56 ESP12E-S1 4.50 3.61 99.90
17125 2019-11-10 19:30:39 ESP12E-S1 4.50 3.61 99.90
17124 2019-11-10 19:02:22 ESP12E-S1 4.60 3.72 99.90
17123 2019-11-10 18:34:05 ESP12E-S1 4.80 3.94 99.90
17122 2019-11-10 18:06:13 ESP12E-S1 4.90 4.05 99.90
17121 2019-11-10 17:37:46 ESP12E-S1 4.90 4.05 99.90
17120 2019-11-10 17:09:29 ESP12E-S1 5.10 4.27 99.90
17119 2019-11-10 16:41:11 ESP12E-S1 5.10 4.27 99.90
17118 2019-11-10 16:12:57 ESP12E-S1 5.40 4.60 99.90
17117 2019-11-10 15:44:40 ESP12E-S1 5.70 4.93 99.90
17116 2019-11-10 15:16:23 ESP12E-S1 5.90 5.15 99.90
17115 2019-11-10 14:48:07 ESP12E-S1 6.30 5.59 99.90
17114 2019-11-10 14:20:04 ESP12E-S1 6.70 6.03 99.90
17113 2019-11-10 13:52:07 ESP12E-S1 6.60 5.92 99.90
17112 2019-11-10 13:23:51 ESP12E-S1 6.80 6.14 99.90
17111 2019-11-10 12:55:34 ESP12E-S1 7.50 6.91 99.90
17110 2019-11-10 12:27:14 ESP12E-S1 8.10 7.57 99.90
17109 2019-11-10 11:59:02 ESP12E-S1 7.90 7.35 99.90
17108 2019-11-10 11:30:56 ESP12E-S1 8.80 8.34 99.90
17107 2019-11-10 11:02:04 ESP12E-S1 4.40 3.50 99.90
17106 2019-11-10 10:33:43 ESP12E-S1 3.70 2.73 99.90
17105 2019-11-10 10:05:25 ESP12E-S1 3.70 2.73 99.90
17104 2019-11-10 09:37:07 ESP12E-S1 3.60 2.62 99.90
17103 2019-11-10 09:08:46 ESP12E-S1 3.30 2.29 99.90
17102 2019-11-10 08:40:27 ESP12E-S1 3.00 1.96 99.90
17101 2019-11-10 08:12:08 ESP12E-S1 2.70 1.63 99.90
17100 2019-11-10 07:43:53 ESP12E-S1 2.80 1.74 99.90
17099 2019-11-10 07:15:35 ESP12E-S1 2.90 1.85 99.90
17098 2019-11-10 06:47:17 ESP12E-S1 2.80 1.74 99.90
17097 2019-11-10 06:19:00 ESP12E-S1 2.90 1.85 99.90
17096 2019-11-10 05:50:43 ESP12E-S1 3.00 1.96 99.90
17095 2019-11-10 05:22:27 ESP12E-S1 3.10 2.07 99.90
17094 2019-11-10 04:54:10 ESP12E-S1 3.20 2.18 99.90
17093 2019-11-10 04:25:54 ESP12E-S1 3.40 2.40 99.90
17092 2019-11-10 03:57:36 ESP12E-S1 3.50 2.51 99.90
17091 2019-11-10 03:29:18 ESP12E-S1 3.60 2.62 99.90
17090 2019-11-10 03:01:02 ESP12E-S1 3.60 2.62 99.90
17089 2019-11-10 02:32:56 ESP12E-S1 3.60 2.62 99.90
17088 2019-11-10 02:04:35 ESP12E-S1 3.80 2.84 99.90
17087 2019-11-10 01:36:19 ESP12E-S1 3.90 2.95 99.90
17086 2019-11-10 01:08:03 ESP12E-S1 4.00 3.06 99.90
17085 2019-11-10 00:39:46 ESP12E-S1 4.20 3.28 99.90
17084 2019-11-10 00:11:28 ESP12E-S1 4.40 3.50 99.90
17083 2019-11-09 23:43:12 ESP12E-S1 4.60 3.72 99.90
17082 2019-11-09 23:14:56 ESP12E-S1 4.80 3.94 99.90
17081 2019-11-09 22:46:39 ESP12E-S1 5.20 4.38 99.90
17080 2019-11-09 22:18:22 ESP12E-S1 5.50 4.71 99.90
17079 2019-11-09 21:50:07 ESP12E-S1 5.60 4.82 99.90
17078 2019-11-09 21:21:59 ESP12E-S1 5.90 5.15 99.90
17077 2019-11-09 20:53:40 ESP12E-S1 6.30 5.59 99.90
17076 2019-11-09 20:25:23 ESP12E-S1 6.50 5.81 99.90
17075 2019-11-09 19:57:06 ESP12E-S1 6.50 5.81 99.90
17074 2019-11-09 19:29:01 ESP12E-S1 6.60 5.92 99.90
17073 2019-11-09 19:00:39 ESP12E-S1 6.70 6.03 99.90
17072 2019-11-09 18:32:22 ESP12E-S1 6.70 6.03 99.90
17071 2019-11-09 18:04:06 ESP12E-S1 6.90 6.25 99.90
17070 2019-11-09 17:35:49 ESP12E-S1 7.30 6.69 99.90
17069 2019-11-09 17:07:34 ESP12E-S1 7.60 7.02 99.90
17068 2019-11-09 16:39:19 ESP12E-S1 8.00 7.46 99.90
17067 2019-11-09 16:11:07 ESP12E-S1 8.70 8.23 99.90
17066 2019-11-09 15:43:00 ESP12E-S1 10.10 9.77 99.90
17065 2019-11-09 15:15:15 ESP12E-S1 15.80 15.56 81.40
17064 2019-11-09 14:46:44 ESP12E-S1 10.70 10.43 99.90
17063 2019-11-09 14:17:53 ESP12E-S1 8.90 8.45 99.90
17062 2019-11-09 13:49:37 ESP12E-S1 9.70 9.33 99.90
17061 2019-11-09 13:21:24 ESP12E-S1 10.40 10.10 99.90
17060 2019-11-09 12:52:53 ESP12E-S1 9.10 8.67 99.90
17059 2019-11-09 12:24:31 ESP12E-S1 8.20 7.68 99.90
17058 2019-11-09 11:56:13 ESP12E-S1 8.40 7.90 99.90
17057 2019-11-09 11:27:58 ESP12E-S1 8.30 7.79 99.90
17056 2019-11-09 10:59:41 ESP12E-S1 9.00 8.56 99.90
17055 2019-11-09 10:31:18 ESP12E-S1 7.20 6.58 99.90
17054 2019-11-09 10:03:00 ESP12E-S1 6.90 6.25 99.90
17053 2019-11-09 09:34:42 ESP12E-S1 6.80 6.14 99.90
17052 2019-11-09 09:06:19 ESP12E-S1 6.30 5.59 99.90
17051 2019-11-09 08:38:01 ESP12E-S1 6.20 5.48 99.90
17050 2019-11-09 08:09:43 ESP12E-S1 6.10 5.37 99.90
17049 2019-11-09 07:41:25 ESP12E-S1 6.00 5.26 99.90
17048 2019-11-09 07:13:08 ESP12E-S1 6.00 5.26 99.90
17047 2019-11-09 06:44:51 ESP12E-S1 6.10 5.37 99.90
17046 2019-11-09 06:16:33 ESP12E-S1 6.10 5.37 99.90
17045 2019-11-09 05:48:16 ESP12E-S1 6.10 5.37 99.90
17044 2019-11-09 05:19:59 ESP12E-S1 6.20 5.48 99.90
17043 2019-11-09 04:51:43 ESP12E-S1 6.30 5.59 99.90
17042 2019-11-09 04:23:26 ESP12E-S1 6.30 5.59 99.90
17041 2019-11-09 03:55:09 ESP12E-S1 6.30 5.59 99.90
17040 2019-11-09 03:26:52 ESP12E-S1 6.30 5.59 99.90
17039 2019-11-09 02:58:35 ESP12E-S1 6.30 5.59 99.90
17038 2019-11-09 02:30:17 ESP12E-S1 6.30 5.59 99.90
17037 2019-11-09 02:01:58 ESP12E-S1 6.30 5.59 99.90
17036 2019-11-09 01:33:40 ESP12E-S1 6.20 5.48 99.90
17035 2019-11-09 01:05:21 ESP12E-S1 6.20 5.48 99.90
17034 2019-11-09 00:37:03 ESP12E-S1 6.20 5.48 99.90
17033 2019-11-09 00:08:45 ESP12E-S1 6.20 5.48 99.90
17032 2019-11-08 23:40:29 ESP12E-S1 6.30 5.59 99.90
17031 2019-11-08 23:12:11 ESP12E-S1 6.40 5.70 99.90
17030 2019-11-08 22:43:54 ESP12E-S1 6.40 5.70 99.90
17029 2019-11-08 22:15:37 ESP12E-S1 6.40 5.70 99.90
17028 2019-11-08 21:47:20 ESP12E-S1 6.60 5.92 99.90
17027 2019-11-08 21:19:02 ESP12E-S1 6.70 6.03 99.90
17026 2019-11-08 20:50:44 ESP12E-S1 6.60 5.92 99.90
17025 2019-11-08 20:22:27 ESP12E-S1 6.80 6.14 99.90
17024 2019-11-08 19:54:08 ESP12E-S1 6.80 6.14 99.90
17023 2019-11-08 19:25:50 ESP12E-S1 6.90 6.25 99.90
17022 2019-11-08 18:57:34 ESP12E-S1 6.90 6.25 99.90
17021 2019-11-08 18:29:16 ESP12E-S1 7.10 6.47 99.90
17020 2019-11-08 18:00:58 ESP12E-S1 7.00 6.36 99.90
17019 2019-11-08 17:32:40 ESP12E-S1 7.10 6.47 99.90
17018 2019-11-08 17:04:24 ESP12E-S1 7.20 6.58 99.90
17017 2019-11-08 16:36:08 ESP12E-S1 7.40 6.80 99.90
17016 2019-11-08 16:07:51 ESP12E-S1 7.60 7.02 99.90
17015 2019-11-08 15:39:35 ESP12E-S1 7.80 7.24 99.90
17014 2019-11-08 15:11:18 ESP12E-S1 8.00 7.46 99.90
17013 2019-11-08 14:43:03 ESP12E-S1 8.20 7.68 99.90
17012 2019-11-08 14:14:44 ESP12E-S1 8.10 7.57 99.90
17011 2019-11-08 13:46:28 ESP12E-S1 8.00 7.46 99.90
17010 2019-11-08 13:18:09 ESP12E-S1 8.00 7.46 99.90
17009 2019-11-08 12:49:52 ESP12E-S1 8.00 7.46 99.90
17008 2019-11-08 12:21:36 ESP12E-S1 8.00 7.46 99.90
17007 2019-11-08 11:53:16 ESP12E-S1 7.90 7.35 99.90
17006 2019-11-08 11:24:57 ESP12E-S1 7.80 7.24 99.90
17005 2019-11-08 10:56:37 ESP12E-S1 7.60 7.02 99.90
17004 2019-11-08 10:28:19 ESP12E-S1 7.40 6.80 99.90
17003 2019-11-08 10:00:01 ESP12E-S1 7.20 6.58 99.90
17002 2019-11-08 09:31:42 ESP12E-S1 7.00 6.36 99.90
17001 2019-11-08 09:03:22 ESP12E-S1 6.70 6.03 99.90
17000 2019-11-08 08:35:03 ESP12E-S1 6.30 5.59 99.90
16999 2019-11-08 08:06:45 ESP12E-S1 6.20 5.48 99.90
16998 2019-11-08 07:38:27 ESP12E-S1 6.00 5.26 99.90
16997 2019-11-08 07:10:10 ESP12E-S1 6.00 5.26 99.90
16996 2019-11-08 06:41:52 ESP12E-S1 6.00 5.26 99.90
16995 2019-11-08 06:13:35 ESP12E-S1 6.00 5.26 99.90
16994 2019-11-08 05:45:16 ESP12E-S1 5.90 5.15 99.90
16993 2019-11-08 05:17:00 ESP12E-S1 6.00 5.26 99.90
16992 2019-11-08 04:48:43 ESP12E-S1 6.00 5.26 99.90
16991 2019-11-08 04:20:26 ESP12E-S1 6.00 5.26 99.90
16990 2019-11-08 03:52:08 ESP12E-S1 6.10 5.37 99.90
16989 2019-11-08 03:23:52 ESP12E-S1 6.10 5.37 99.90
16988 2019-11-08 02:55:35 ESP12E-S1 6.20 5.48 99.90
16987 2019-11-08 02:27:18 ESP12E-S1 6.20 5.48 99.90
16986 2019-11-08 01:59:01 ESP12E-S1 6.20 5.48 99.90
16985 2019-11-08 01:30:45 ESP12E-S1 6.30 5.59 99.90
16984 2019-11-08 01:02:28 ESP12E-S1 6.40 5.70 99.90
16983 2019-11-08 00:34:12 ESP12E-S1 6.50 5.81 99.90
16982 2019-11-08 00:05:55 ESP12E-S1 6.50 5.81 99.90
16981 2019-11-07 23:37:40 ESP12E-S1 6.60 5.92 99.90
16980 2019-11-07 23:09:24 ESP12E-S1 6.70 6.03 99.90
16979 2019-11-07 22:41:07 ESP12E-S1 6.70 6.03 99.90
16978 2019-11-07 22:12:50 ESP12E-S1 6.90 6.25 99.90
16977 2019-11-07 21:44:32 ESP12E-S1 7.10 6.47 99.90
16976 2019-11-07 21:16:17 ESP12E-S1 7.40 6.80 99.90
16975 2019-11-07 20:48:02 ESP12E-S1 7.60 7.02 99.90
16974 2019-11-07 20:19:45 ESP12E-S1 7.80 7.24 99.90
16973 2019-11-07 19:51:29 ESP12E-S1 8.10 7.57 99.90
16972 2019-11-07 19:23:13 ESP12E-S1 8.20 7.68 99.90
16971 2019-11-07 18:54:57 ESP12E-S1 8.30 7.79 99.90
16970 2019-11-07 18:26:40 ESP12E-S1 8.40 7.90 99.90
16969 2019-11-07 17:58:33 ESP12E-S1 8.40 7.90 99.90
16968 2019-11-07 17:30:11 ESP12E-S1 8.40 7.90 99.90
16967 2019-11-07 17:01:55 ESP12E-S1 8.40 7.90 99.90
16966 2019-11-07 16:33:38 ESP12E-S1 8.60 8.12 99.90
16965 2019-11-07 16:05:39 ESP12E-S1 8.70 8.23 99.90
16964 2019-11-07 15:37:13 ESP12E-S1 8.60 8.12 99.90
16963 2019-11-07 15:09:15 ESP12E-S1 8.70 8.23 99.90
16962 2019-11-07 14:40:49 ESP12E-S1 8.80 8.34 99.90
16961 2019-11-07 14:12:43 ESP12E-S1 8.90 8.45 99.90
16960 2019-11-07 13:44:35 ESP12E-S1 9.00 8.56 99.90
16959 2019-11-07 13:16:13 ESP12E-S1 9.20 8.78 99.90
16958 2019-11-07 12:48:23 ESP12E-S1 9.60 9.22 99.90
16957 2019-11-07 12:19:55 ESP12E-S1 9.80 9.44 99.90
16956 2019-11-07 11:51:36 ESP12E-S1 9.70 9.33 99.90
16955 2019-11-07 11:23:20 ESP12E-S1 9.70 9.33 99.90
16954 2019-11-07 10:55:02 ESP12E-S1 9.70 9.33 99.90
16953 2019-11-07 10:26:42 ESP12E-S1 9.40 9.00 99.90
16952 2019-11-07 09:58:36 ESP12E-S1 9.20 8.78 99.90
16951 2019-11-07 09:30:12 ESP12E-S1 8.90 8.45 99.90
16950 2019-11-07 09:01:53 ESP12E-S1 8.60 8.12 99.90
16949 2019-11-07 08:33:33 ESP12E-S1 8.50 8.01 99.90
16948 2019-11-07 08:05:15 ESP12E-S1 8.30 7.79 99.90
16947 2019-11-07 07:36:56 ESP12E-S1 8.30 7.79 99.90
16946 2019-11-07 07:08:39 ESP12E-S1 8.40 7.90 99.90
16945 2019-11-07 06:40:23 ESP12E-S1 8.50 8.01 99.90
16944 2019-11-07 06:12:06 ESP12E-S1 8.50 8.01 99.90
16943 2019-11-07 05:43:49 ESP12E-S1 8.50 8.01 99.90
16942 2019-11-07 05:15:51 ESP12E-S1 8.50 8.01 99.90
16941 2019-11-07 04:47:45 ESP12E-S1 8.50 8.01 99.90
16940 2019-11-07 04:19:18 ESP12E-S1 8.60 8.12 99.90
16939 2019-11-07 03:51:19 ESP12E-S1 8.60 8.12 99.90
16938 2019-11-07 03:22:54 ESP12E-S1 8.60 8.12 99.90
16937 2019-11-07 02:54:36 ESP12E-S1 8.60 8.12 99.90
16936 2019-11-07 02:26:54 ESP12E-S1 8.60 8.12 99.90
16935 2019-11-07 01:58:43 ESP12E-S1 8.60 8.12 99.90
16934 2019-11-07 01:30:40 ESP12E-S1 8.70 8.23 99.90
16933 2019-11-07 01:02:22 ESP12E-S1 8.70 8.23 99.90
16932 2019-11-07 00:34:01 ESP12E-S1 8.80 8.34 99.90
16931 2019-11-07 00:05:43 ESP12E-S1 8.80 8.34 99.90
16930 2019-11-06 23:37:26 ESP12E-S1 8.90 8.45 99.90
16929 2019-11-06 23:09:09 ESP12E-S1 8.90 8.45 99.90
16928 2019-11-06 22:41:04 ESP12E-S1 9.00 8.56 99.90
16927 2019-11-06 22:13:02 ESP12E-S1 9.10 8.67 99.90
16926 2019-11-06 21:44:37 ESP12E-S1 9.10 8.67 99.90
16925 2019-11-06 21:16:18 ESP12E-S1 9.10 8.67 99.90
16924 2019-11-06 20:48:00 ESP12E-S1 9.10 8.67 99.90
16923 2019-11-06 20:19:42 ESP12E-S1 9.20 8.78 99.90
16922 2019-11-06 19:51:45 ESP12E-S1 9.20 8.78 99.90
16921 2019-11-06 19:23:19 ESP12E-S1 9.30 8.89 99.90
16920 2019-11-06 18:55:03 ESP12E-S1 9.40 9.00 99.90
16919 2019-11-06 18:26:43 ESP12E-S1 9.40 9.00 99.90
16918 2019-11-06 17:58:09 ESP12E-S1 9.50 9.11 99.90
16917 2019-11-06 17:30:14 ESP12E-S1 9.50 9.11 99.90
16916 2019-11-06 17:01:48 ESP12E-S1 9.60 9.22 99.90
16915 2019-11-06 16:33:52 ESP12E-S1 9.70 9.33 99.90
16914 2019-11-06 16:05:48 ESP12E-S1 9.80 9.44 99.90
16913 2019-11-06 15:37:42 ESP12E-S1 9.90 9.55 99.90
16912 2019-11-06 15:09:46 ESP12E-S1 10.00 9.66 99.90
16911 2019-11-06 14:41:38 ESP12E-S1 10.30 9.99 99.90
16910 2019-11-06 14:13:34 ESP12E-S1 10.70 10.43 99.90
16909 2019-11-06 13:45:22 ESP12E-S1 11.00 10.76 99.90
16908 2019-11-06 13:17:14 ESP12E-S1 11.40 11.20 99.90
16907 2019-11-06 12:48:51 ESP12E-S1 11.10 10.87 99.90
16906 2019-11-06 12:20:28 ESP12E-S1 10.20 9.88 99.90
16905 2019-11-06 11:52:12 ESP12E-S1 9.80 9.44 99.90
16904 2019-11-06 11:23:56 ESP12E-S1 9.70 9.33 99.90
16903 2019-11-06 10:55:38 ESP12E-S1 9.60 9.22 99.90
16902 2019-11-06 10:27:29 ESP12E-S1 9.40 9.00 99.90
16901 2019-11-06 09:59:06 ESP12E-S1 9.00 8.56 99.90
16900 2019-11-06 09:30:46 ESP12E-S1 8.60 8.12 99.90
16899 2019-11-06 09:02:26 ESP12E-S1 8.20 7.68 99.90
16898 2019-11-06 08:34:19 ESP12E-S1 8.00 7.46 99.90
16897 2019-11-06 08:05:57 ESP12E-S1 7.80 7.24 99.90
16896 2019-11-06 07:37:40 ESP12E-S1 7.80 7.24 99.90
16895 2019-11-06 07:09:23 ESP12E-S1 7.80 7.24 99.90
16894 2019-11-06 06:41:05 ESP12E-S1 7.80 7.24 99.90
16893 2019-11-06 06:12:48 ESP12E-S1 7.90 7.35 99.90
16892 2019-11-06 05:44:51 ESP12E-S1 8.00 7.46 99.90
16891 2019-11-06 05:16:27 ESP12E-S1 8.10 7.57 99.90
16890 2019-11-06 04:48:09 ESP12E-S1 8.20 7.68 99.90
16889 2019-11-06 04:20:12 ESP12E-S1 8.20 7.68 99.90
16888 2019-11-06 03:52:12 ESP12E-S1 8.20 7.68 99.90
16887 2019-11-06 03:23:44 ESP12E-S1 8.30 7.79 99.90
16886 2019-11-06 02:55:52 ESP12E-S1 8.30 7.79 99.90
16885 2019-11-06 02:27:23 ESP12E-S1 8.40 7.90 99.90
16884 2019-11-06 01:59:07 ESP12E-S1 8.40 7.90 99.90
16883 2019-11-06 01:30:48 ESP12E-S1 8.40 7.90 99.90
16882 2019-11-06 01:02:58 ESP12E-S1 8.50 8.01 99.90
16881 2019-11-06 00:34:29 ESP12E-S1 8.50 8.01 99.90
16880 2019-11-06 00:06:11 ESP12E-S1 8.40 7.90 99.90
16879 2019-11-05 23:37:55 ESP12E-S1 8.50 8.01 99.90
16878 2019-11-05 23:09:38 ESP12E-S1 8.50 8.01 99.90
16877 2019-11-05 22:41:20 ESP12E-S1 8.60 8.12 99.90
16876 2019-11-05 22:13:02 ESP12E-S1 8.70 8.23 99.90
16875 2019-11-05 21:44:45 ESP12E-S1 8.70 8.23 99.90
16874 2019-11-05 21:16:46 ESP12E-S1 8.70 8.23 99.90
16873 2019-11-05 20:48:21 ESP12E-S1 8.70 8.23 99.90
16872 2019-11-05 20:20:02 ESP12E-S1 8.70 8.23 99.90
16871 2019-11-05 19:51:44 ESP12E-S1 8.60 8.12 99.90
16870 2019-11-05 19:23:28 ESP12E-S1 8.60 8.12 99.90
16869 2019-11-05 18:55:31 ESP12E-S1 8.80 8.34 99.90
16868 2019-11-05 18:27:26 ESP12E-S1 9.00 8.56 99.90
16867 2019-11-05 17:59:02 ESP12E-S1 9.20 8.78 99.90
16866 2019-11-05 17:30:47 ESP12E-S1 9.20 8.78 99.90
16865 2019-11-05 17:02:56 ESP12E-S1 9.50 9.11 99.90
16864 2019-11-05 16:34:49 ESP12E-S1 10.00 9.66 99.90
16863 2019-11-05 16:06:28 ESP12E-S1 10.50 10.21 99.90
16862 2019-11-05 15:38:14 ESP12E-S1 11.00 10.76 99.90
16861 2019-11-05 15:10:03 ESP12E-S1 11.80 11.64 99.90
16860 2019-11-05 14:42:01 ESP12E-S1 14.20 14.28 99.90
16859 2019-11-05 14:13:22 ESP12E-S1 10.70 10.43 99.90
16858 2019-11-05 13:45:07 ESP12E-S1 10.80 10.54 99.90
16857 2019-11-05 13:17:12 ESP12E-S1 11.20 10.98 99.90
16856 2019-11-05 12:49:10 ESP12E-S1 10.60 10.32 99.90
16855 2019-11-05 12:20:40 ESP12E-S1 10.80 10.54 99.90
16854 2019-11-05 11:52:35 ESP12E-S1 10.30 9.99 99.90
16853 2019-11-05 11:24:09 ESP12E-S1 9.60 9.22 99.90
16852 2019-11-05 10:55:46 ESP12E-S1 8.90 8.45 99.90
16851 2019-11-05 10:27:28 ESP12E-S1 8.60 8.12 99.90
16850 2019-11-05 09:59:30 ESP12E-S1 8.60 8.12 99.90
16849 2019-11-05 09:31:05 ESP12E-S1 8.60 8.12 99.90
16848 2019-11-05 09:02:46 ESP12E-S1 8.40 7.90 99.90
16847 2019-11-05 08:34:26 ESP12E-S1 8.10 7.57 99.90
16846 2019-11-05 08:06:09 ESP12E-S1 8.10 7.57 99.90
16845 2019-11-05 07:37:50 ESP12E-S1 8.00 7.46 99.90
16844 2019-11-05 07:09:36 ESP12E-S1 8.10 7.57 99.90
16843 2019-11-05 06:41:19 ESP12E-S1 8.10 7.57 99.90
16842 2019-11-05 06:13:02 ESP12E-S1 8.20 7.68 99.90
16841 2019-11-05 05:44:46 ESP12E-S1 8.20 7.68 99.90
16840 2019-11-05 05:16:29 ESP12E-S1 8.20 7.68 99.90
16839 2019-11-05 04:48:13 ESP12E-S1 8.30 7.79 99.90
16838 2019-11-05 04:19:56 ESP12E-S1 8.40 7.90 99.90
16837 2019-11-05 03:51:39 ESP12E-S1 8.50 8.01 99.90
16836 2019-11-05 03:23:23 ESP12E-S1 8.60 8.12 99.90
16835 2019-11-05 02:55:05 ESP12E-S1 8.70 8.23 99.90
16834 2019-11-05 02:26:47 ESP12E-S1 8.70 8.23 99.90
16833 2019-11-05 01:58:28 ESP12E-S1 8.60 8.12 99.90
16832 2019-11-05 01:30:11 ESP12E-S1 8.80 8.34 99.90
16831 2019-11-05 01:01:56 ESP12E-S1 8.90 8.45 99.90
16830 2019-11-05 00:33:39 ESP12E-S1 9.10 8.67 99.90
16829 2019-11-05 00:05:21 ESP12E-S1 9.20 8.78 99.90
16828 2019-11-04 23:37:06 ESP12E-S1 9.30 8.89 99.90
16827 2019-11-04 23:08:50 ESP12E-S1 9.40 9.00 99.90
16826 2019-11-04 22:40:33 ESP12E-S1 9.60 9.22 99.90
16825 2019-11-04 22:12:15 ESP12E-S1 9.60 9.22 99.90
16824 2019-11-04 21:43:56 ESP12E-S1 9.60 9.22 99.90
16823 2019-11-04 21:15:38 ESP12E-S1 9.60 9.22 99.90
16822 2019-11-04 20:47:20 ESP12E-S1 9.50 9.11 99.90
16821 2019-11-04 20:19:02 ESP12E-S1 9.60 9.22 99.90
16820 2019-11-04 19:50:47 ESP12E-S1 9.50 9.11 99.90
16819 2019-11-04 19:22:30 ESP12E-S1 9.80 9.44 99.90
16818 2019-11-04 18:54:12 ESP12E-S1 9.70 9.33 99.90
16817 2019-11-04 18:25:56 ESP12E-S1 9.80 9.44 99.90
16816 2019-11-04 17:57:37 ESP12E-S1 9.70 9.33 99.90
16815 2019-11-04 17:29:21 ESP12E-S1 9.90 9.55 99.90
16814 2019-11-04 17:01:07 ESP12E-S1 10.20 9.88 99.90
16813 2019-11-04 16:32:52 ESP12E-S1 10.60 10.32 99.90
16812 2019-11-04 16:04:39 ESP12E-S1 11.00 10.76 99.90
16811 2019-11-04 15:36:18 ESP12E-S1 10.60 10.32 99.90
16810 2019-11-04 15:07:57 ESP12E-S1 10.40 10.10 99.90
16809 2019-11-04 14:39:39 ESP12E-S1 9.90 9.55 99.90
16808 2019-11-04 14:11:21 ESP12E-S1 9.90 9.55 99.90
16807 2019-11-04 13:43:03 ESP12E-S1 9.80 9.44 99.90
16806 2019-11-04 13:14:45 ESP12E-S1 9.70 9.33 99.90
16805 2019-11-04 12:46:27 ESP12E-S1 9.70 9.33 99.90
16804 2019-11-04 12:18:09 ESP12E-S1 9.80 9.44 99.90
16803 2019-11-04 11:49:51 ESP12E-S1 9.90 9.55 99.90
16802 2019-11-04 11:21:33 ESP12E-S1 9.90 9.55 99.90
16801 2019-11-04 10:53:15 ESP12E-S1 10.00 9.66 99.90
16800 2019-11-04 10:24:59 ESP12E-S1 10.10 9.77 99.90
16799 2019-11-04 09:56:40 ESP12E-S1 9.90 9.55 99.90
16798 2019-11-04 09:28:22 ESP12E-S1 9.90 9.55 99.90
16797 2019-11-04 09:00:03 ESP12E-S1 9.80 9.44 99.90
16796 2019-11-04 08:31:47 ESP12E-S1 9.80 9.44 99.90
16795 2019-11-04 08:03:28 ESP12E-S1 9.70 9.33 99.90
16794 2019-11-04 07:35:11 ESP12E-S1 9.70 9.33 99.90
16793 2019-11-04 07:06:53 ESP12E-S1 9.70 9.33 99.90
16792 2019-11-04 06:38:35 ESP12E-S1 9.70 9.33 99.90
16791 2019-11-04 06:10:18 ESP12E-S1 9.70 9.33 99.90
16790 2019-11-04 05:42:00 ESP12E-S1 9.70 9.33 99.90
16789 2019-11-04 05:13:42 ESP12E-S1 9.80 9.44 99.90
16788 2019-11-04 04:45:23 ESP12E-S1 9.90 9.55 99.90
16787 2019-11-04 04:17:06 ESP12E-S1 9.90 9.55 99.90
16786 2019-11-04 03:48:48 ESP12E-S1 10.00 9.66 99.90
16785 2019-11-04 03:20:32 ESP12E-S1 10.10 9.77 99.90
16784 2019-11-04 02:52:15 ESP12E-S1 10.10 9.77 99.90
16783 2019-11-04 02:24:00 ESP12E-S1 10.30 9.99 99.90
16782 2019-11-04 01:55:43 ESP12E-S1 10.40 10.10 99.90
16781 2019-11-04 01:27:27 ESP12E-S1 10.50 10.21 99.90
16780 2019-11-04 00:59:12 ESP12E-S1 10.70 10.43 99.90
16779 2019-11-04 00:30:57 ESP12E-S1 10.80 10.54 99.90
16778 2019-11-04 00:02:40 ESP12E-S1 10.80 10.54 99.90
16777 2019-11-03 23:34:23 ESP12E-S1 10.90 10.65 99.90
16776 2019-11-03 23:06:04 ESP12E-S1 11.00 10.76 99.90
16775 2019-11-03 22:37:47 ESP12E-S1 11.10 10.87 99.90
16774 2019-11-03 22:09:31 ESP12E-S1 11.20 10.98 99.90
16773 2019-11-03 21:41:14 ESP12E-S1 11.30 11.09 99.90
16772 2019-11-03 21:12:58 ESP12E-S1 11.40 11.20 99.90
16771 2019-11-03 20:44:42 ESP12E-S1 11.50 11.31 99.90
16770 2019-11-03 20:16:26 ESP12E-S1 11.60 11.42 99.90
16769 2019-11-03 19:48:07 ESP12E-S1 11.70 11.53 99.90
16768 2019-11-03 19:19:50 ESP12E-S1 11.90 11.75 99.90
16767 2019-11-03 18:51:32 ESP12E-S1 12.00 11.86 99.90
16766 2019-11-03 18:23:16 ESP12E-S1 12.00 11.86 99.90
16765 2019-11-03 17:54:58 ESP12E-S1 12.10 11.97 99.90
16764 2019-11-03 17:26:59 ESP12E-S1 12.20 12.08 99.90
16763 2019-11-03 16:58:35 ESP12E-S1 12.30 12.19 99.90
16762 2019-11-03 16:30:20 ESP12E-S1 12.50 12.41 99.90
16761 2019-11-03 16:02:03 ESP12E-S1 12.60 12.52 99.90
16760 2019-11-03 15:33:47 ESP12E-S1 12.70 12.63 99.90
16759 2019-11-03 15:05:49 ESP12E-S1 12.70 12.63 99.90
16758 2019-11-03 14:37:23 ESP12E-S1 12.60 12.52 99.90
16757 2019-11-03 14:09:18 ESP12E-S1 12.70 12.63 99.90
16756 2019-11-03 13:41:16 ESP12E-S1 12.90 12.85 99.90
16755 2019-11-03 13:12:52 ESP12E-S1 13.00 12.96 99.90
16754 2019-11-03 12:44:32 ESP12E-S1 12.40 12.30 99.90
16753 2019-11-03 12:16:38 ESP12E-S1 12.20 12.08 99.90
16752 2019-11-03 11:48:08 ESP12E-S1 11.90 11.75 99.90
16751 2019-11-03 11:20:09 ESP12E-S1 11.60 11.42 99.90
16750 2019-11-03 10:51:42 ESP12E-S1 11.20 10.98 99.90
16749 2019-11-03 10:23:48 ESP12E-S1 10.90 10.65 99.90
16748 2019-11-03 09:55:44 ESP12E-S1 10.70 10.43 99.90
16747 2019-11-03 09:27:14 ESP12E-S1 10.60 10.32 99.90
16746 2019-11-03 08:59:16 ESP12E-S1 10.50 10.21 99.90
16745 2019-11-03 08:30:51 ESP12E-S1 10.40 10.10 99.90
16744 2019-11-03 08:02:32 ESP12E-S1 10.40 10.10 99.90
16743 2019-11-03 07:34:14 ESP12E-S1 10.40 10.10 99.90
16742 2019-11-03 07:05:57 ESP12E-S1 10.40 10.10 99.90
16741 2019-11-03 06:37:41 ESP12E-S1 10.30 9.99 99.90
16740 2019-11-03 06:09:34 ESP12E-S1 10.30 9.99 99.90
16739 2019-11-03 05:41:48 ESP12E-S1 10.30 9.99 99.90
16738 2019-11-03 05:13:31 ESP12E-S1 10.30 9.99 99.90
16737 2019-11-03 04:45:25 ESP12E-S1 10.30 9.99 99.90
16736 2019-11-03 04:17:11 ESP12E-S1 10.30 9.99 99.90
16735 2019-11-03 03:48:49 ESP12E-S1 10.30 9.99 99.90
16734 2019-11-03 03:20:32 ESP12E-S1 10.30 9.99 99.90
16733 2019-11-03 02:52:26 ESP12E-S1 10.40 10.10 99.90
16732 2019-11-03 02:24:04 ESP12E-S1 10.30 9.99 99.90
16731 2019-11-03 01:55:48 ESP12E-S1 10.40 10.10 99.90
16730 2019-11-03 01:27:50 ESP12E-S1 10.50 10.21 99.90
16729 2019-11-03 00:59:25 ESP12E-S1 10.60 10.32 99.90
16728 2019-11-03 00:31:08 ESP12E-S1 10.70 10.43 99.90
16727 2019-11-03 00:02:51 ESP12E-S1 10.70 10.43 99.90
16726 2019-11-02 23:34:54 ESP12E-S1 10.80 10.54 99.90
16725 2019-11-02 23:06:31 ESP12E-S1 11.00 10.76 99.90
16724 2019-11-02 22:38:13 ESP12E-S1 11.10 10.87 99.90
16723 2019-11-02 22:09:58 ESP12E-S1 11.30 11.09 99.90
16722 2019-11-02 21:42:00 ESP12E-S1 11.50 11.31 99.90
16721 2019-11-02 21:13:46 ESP12E-S1 11.70 11.53 99.90
16720 2019-11-02 20:45:24 ESP12E-S1 11.80 11.64 99.90
16719 2019-11-02 20:17:07 ESP12E-S1 11.90 11.75 99.90
16718 2019-11-02 19:48:51 ESP12E-S1 12.10 11.97 99.90
16717 2019-11-02 19:20:43 ESP12E-S1 12.30 12.19 99.90
16716 2019-11-02 18:52:43 ESP12E-S1 12.40 12.30 99.90
16715 2019-11-02 18:24:30 ESP12E-S1 12.60 12.52 99.90
16714 2019-11-02 17:56:29 ESP12E-S1 12.80 12.74 99.90
16713 2019-11-02 17:28:05 ESP12E-S1 13.00 12.96 99.90
16712 2019-11-02 16:59:48 ESP12E-S1 13.20 13.18 99.90
16711 2019-11-02 16:31:32 ESP12E-S1 13.40 13.40 99.90
16710 2019-11-02 16:03:15 ESP12E-S1 13.70 13.73 99.90
16709 2019-11-02 15:34:59 ESP12E-S1 14.00 14.06 99.90
16708 2019-11-02 15:06:56 ESP12E-S1 14.30 14.39 99.90
16707 2019-11-02 14:38:33 ESP12E-S1 14.60 14.72 99.90
16706 2019-11-02 14:10:32 ESP12E-S1 15.70 15.93 99.90
16705 2019-11-02 13:42:03 ESP12E-S1 14.50 14.61 99.90
16704 2019-11-02 13:13:52 ESP12E-S1 13.90 13.95 99.90
16703 2019-11-02 12:45:31 ESP12E-S1 13.80 13.84 99.90
16702 2019-11-02 12:17:09 ESP12E-S1 13.30 13.29 99.90
16701 2019-11-02 11:48:53 ESP12E-S1 13.40 13.40 99.90
16700 2019-11-02 11:20:28 ESP12E-S1 12.30 12.19 99.90
16699 2019-11-02 10:52:09 ESP12E-S1 12.10 11.97 99.90
16698 2019-11-02 10:23:50 ESP12E-S1 11.90 11.75 99.90
16697 2019-11-02 09:55:31 ESP12E-S1 11.80 11.64 99.90
16696 2019-11-02 09:27:12 ESP12E-S1 11.60 11.42 99.90
16695 2019-11-02 08:59:02 ESP12E-S1 11.50 11.31 99.90
16694 2019-11-02 08:30:40 ESP12E-S1 11.30 11.09 99.90
16693 2019-11-02 08:02:22 ESP12E-S1 11.20 10.98 99.90
16692 2019-11-02 07:34:03 ESP12E-S1 11.30 11.09 99.90
16691 2019-11-02 07:05:46 ESP12E-S1 10.90 10.65 99.90
16690 2019-11-02 06:37:29 ESP12E-S1 10.80 10.54 99.90
16689 2019-11-02 06:09:10 ESP12E-S1 10.70 10.43 99.90
16688 2019-11-02 05:40:51 ESP12E-S1 10.60 10.32 99.90
16687 2019-11-02 05:12:33 ESP12E-S1 10.50 10.21 99.90
16686 2019-11-02 04:44:14 ESP12E-S1 10.50 10.21 99.90
16685 2019-11-02 04:15:56 ESP12E-S1 10.30 9.99 99.90
16684 2019-11-02 03:47:37 ESP12E-S1 10.20 9.88 99.90
16683 2019-11-02 03:19:19 ESP12E-S1 10.10 9.77 99.90
16682 2019-11-02 02:51:01 ESP12E-S1 10.00 9.66 99.90
16681 2019-11-02 02:22:42 ESP12E-S1 9.80 9.44 99.90
16680 2019-11-02 01:54:24 ESP12E-S1 9.70 9.33 99.90
16679 2019-11-02 01:26:14 ESP12E-S1 9.60 9.22 99.90
16678 2019-11-02 00:57:52 ESP12E-S1 9.50 9.11 99.90
16677 2019-11-02 00:29:34 ESP12E-S1 9.40 9.00 99.90
16676 2019-11-02 00:01:16 ESP12E-S1 9.10 8.67 99.90
16675 2019-11-01 23:32:59 ESP12E-S1 9.10 8.67 99.90
16674 2019-11-01 23:04:40 ESP12E-S1 9.00 8.56 99.90
16673 2019-11-01 22:36:22 ESP12E-S1 8.80 8.34 99.90
16672 2019-11-01 22:08:03 ESP12E-S1 8.70 8.23 99.90
16671 2019-11-01 21:39:44 ESP12E-S1 8.50 8.01 99.90
16670 2019-11-01 21:11:27 ESP12E-S1 8.30 7.79 99.90
16669 2019-11-01 20:43:08 ESP12E-S1 8.00 7.46 99.90
16668 2019-11-01 20:14:50 ESP12E-S1 7.90 7.35 99.90
16667 2019-11-01 19:46:32 ESP12E-S1 7.70 7.13 99.90
16666 2019-11-01 19:18:14 ESP12E-S1 7.70 7.13 99.90
16665 2019-11-01 18:49:54 ESP12E-S1 7.50 6.91 99.90
16664 2019-11-01 18:21:37 ESP12E-S1 7.40 6.80 99.90
16663 2019-11-01 17:53:18 ESP12E-S1 7.30 6.69 99.90
16662 2019-11-01 17:24:59 ESP12E-S1 7.20 6.58 99.90
16661 2019-11-01 16:56:41 ESP12E-S1 7.10 6.47 99.90
16660 2019-11-01 16:28:23 ESP12E-S1 7.00 6.36 99.90
16659 2019-11-01 16:00:05 ESP12E-S1 6.90 6.25 99.90
16658 2019-11-01 15:31:46 ESP12E-S1 6.80 6.14 99.90
16657 2019-11-01 15:03:27 ESP12E-S1 6.70 6.03 99.90
16656 2019-11-01 14:35:09 ESP12E-S1 6.60 5.92 99.90
16655 2019-11-01 14:06:52 ESP12E-S1 6.40 5.70 99.90
16654 2019-11-01 13:38:33 ESP12E-S1 6.20 5.48 99.90
16653 2019-11-01 13:10:15 ESP12E-S1 6.10 5.37 99.90
16652 2019-11-01 12:41:56 ESP12E-S1 6.00 5.26 99.90
16651 2019-11-01 12:13:37 ESP12E-S1 5.90 5.15 99.90
16650 2019-11-01 11:45:19 ESP12E-S1 5.80 5.04 99.90
16649 2019-11-01 11:17:01 ESP12E-S1 5.60 4.82 99.90
16648 2019-11-01 10:48:43 ESP12E-S1 5.40 4.60 99.90
16647 2019-11-01 10:20:25 ESP12E-S1 5.20 4.38 99.90
16646 2019-11-01 09:52:08 ESP12E-S1 5.10 4.27 99.90
16645 2019-11-01 09:23:50 ESP12E-S1 5.00 4.16 99.90
16644 2019-11-01 08:55:32 ESP12E-S1 4.90 4.05 99.90
16643 2019-11-01 08:27:16 ESP12E-S1 4.80 3.94 99.90
16642 2019-11-01 07:58:59 ESP12E-S1 4.70 3.83 99.90
16641 2019-11-01 07:30:42 ESP12E-S1 4.70 3.83 99.90
16640 2019-11-01 07:02:26 ESP12E-S1 4.70 3.83 99.90
16639 2019-11-01 06:34:09 ESP12E-S1 4.60 3.72 99.90
16638 2019-11-01 06:05:52 ESP12E-S1 4.70 3.83 99.90
16637 2019-11-01 05:37:35 ESP12E-S1 4.70 3.83 99.90
16636 2019-11-01 05:09:19 ESP12E-S1 4.70 3.83 99.90
16635 2019-11-01 04:41:02 ESP12E-S1 4.80 3.94 99.90
16634 2019-11-01 04:12:47 ESP12E-S1 4.90 4.05 99.90
16633 2019-11-01 03:44:29 ESP12E-S1 4.90 4.05 99.90
16632 2019-11-01 03:16:12 ESP12E-S1 4.90 4.05 99.90
16631 2019-11-01 02:47:55 ESP12E-S1 4.90 4.05 99.90
16630 2019-11-01 02:19:39 ESP12E-S1 4.80 3.89 97.70
16629 2019-11-01 01:51:24 ESP12E-S1 4.90 3.91 94.20
16628 2019-11-01 01:23:09 ESP12E-S1 5.00 3.91 90.20
16627 2019-11-01 00:54:52 ESP12E-S1 5.20 3.98 84.30
16626 2019-11-01 00:26:36 ESP12E-S1 5.30 4.04 82.60
16625 2019-10-31 23:58:20 ESP12E-S1 5.50 4.15 78.40
16624 2019-10-31 23:30:05 ESP12E-S1 5.60 4.20 75.90
16623 2019-10-31 23:01:50 ESP12E-S1 5.70 4.29 75.30
16622 2019-10-31 22:33:35 ESP12E-S1 5.80 4.36 73.70
16621 2019-10-31 22:05:19 ESP12E-S1 5.90 4.46 73.30
16620 2019-10-31 21:37:03 ESP12E-S1 6.00 4.55 72.60
16619 2019-10-31 21:08:46 ESP12E-S1 6.10 4.63 71.40
16618 2019-10-31 20:40:30 ESP12E-S1 6.20 4.72 70.60
16617 2019-10-31 20:12:14 ESP12E-S1 6.40 4.89 68.60
16616 2019-10-31 19:44:00 ESP12E-S1 6.70 5.16 66.40
16615 2019-10-31 19:15:45 ESP12E-S1 7.00 5.46 65.10
16614 2019-10-31 18:47:29 ESP12E-S1 7.30 5.76 64.20
16613 2019-10-31 18:19:16 ESP12E-S1 7.60 6.06 62.90
16612 2019-10-31 17:51:01 ESP12E-S1 7.90 6.37 62.10
16611 2019-10-31 17:22:48 ESP12E-S1 8.50 7.02 61.70
16610 2019-10-31 16:54:39 ESP12E-S1 9.50 8.04 58.80
16609 2019-10-31 16:26:30 ESP12E-S1 10.60 9.17 55.60
16608 2019-10-31 15:58:32 ESP12E-S1 13.40 12.16 52.20
16607 2019-10-31 15:30:51 ESP12E-S1 16.80 15.88 51.40
16606 2019-10-31 15:02:12 ESP12E-S1 18.60 17.86 51.40
16605 2019-10-31 14:33:33 ESP12E-S1 15.00 13.96 53.90
16604 2019-10-31 14:05:06 ESP12E-S1 12.60 11.42 57.80
16603 2019-10-31 13:36:45 ESP12E-S1 11.80 10.58 59.30
16602 2019-10-31 13:08:27 ESP12E-S1 11.30 10.07 60.50
16601 2019-10-31 12:40:11 ESP12E-S1 11.40 10.19 61.00
16600 2019-10-31 12:11:58 ESP12E-S1 12.00 10.86 61.40
16599 2019-10-31 11:43:59 ESP12E-S1 12.90 11.88 62.50
16598 2019-10-31 11:15:15 ESP12E-S1 11.10 10.05 68.30
16597 2019-10-31 10:46:31 ESP12E-S1 6.80 5.89 90.10
16596 2019-10-31 10:18:10 ESP12E-S1 6.10 5.21 93.60
16595 2019-10-31 09:49:52 ESP12E-S1 5.50 4.60 95.60
16594 2019-10-31 09:21:30 ESP12E-S1 4.70 3.79 98.30
16593 2019-10-31 08:53:10 ESP12E-S1 4.20 3.28 99.90
16592 2019-10-31 08:24:51 ESP12E-S1 3.90 2.95 99.90
16591 2019-10-31 07:56:32 ESP12E-S1 3.80 2.84 99.90
16590 2019-10-31 07:28:16 ESP12E-S1 3.70 2.73 99.90
16589 2019-10-31 07:00:00 ESP12E-S1 3.80 2.84 99.90
16588 2019-10-31 06:31:43 ESP12E-S1 3.90 2.95 99.90
16587 2019-10-31 06:03:27 ESP12E-S1 4.00 3.06 99.90
16586 2019-10-31 05:35:11 ESP12E-S1 4.10 3.17 99.90
16585 2019-10-31 05:06:55 ESP12E-S1 4.30 3.39 99.90
16584 2019-10-31 04:38:37 ESP12E-S1 4.40 3.50 99.90
16583 2019-10-31 04:10:21 ESP12E-S1 4.40 3.50 99.90
16582 2019-10-31 03:42:05 ESP12E-S1 4.50 3.61 99.90
16581 2019-10-31 03:13:50 ESP12E-S1 4.60 3.72 99.90
16580 2019-10-31 02:45:33 ESP12E-S1 4.70 3.83 99.90
16579 2019-10-31 02:17:17 ESP12E-S1 4.80 3.94 99.90
16578 2019-10-31 01:49:02 ESP12E-S1 4.90 4.05 99.80
16577 2019-10-31 01:20:46 ESP12E-S1 5.00 4.16 99.90
16576 2019-10-31 00:52:29 ESP12E-S1 5.20 4.37 99.40
16575 2019-10-31 00:24:12 ESP12E-S1 5.40 4.58 99.00
16574 2019-10-30 23:55:56 ESP12E-S1 5.50 4.71 99.80
16573 2019-10-30 23:27:40 ESP12E-S1 5.60 4.79 98.50
16572 2019-10-30 22:59:24 ESP12E-S1 5.70 4.89 98.10
16571 2019-10-30 22:31:07 ESP12E-S1 5.90 5.10 97.70
16570 2019-10-30 22:02:52 ESP12E-S1 6.00 5.20 97.30
16569 2019-10-30 21:34:36 ESP12E-S1 6.10 5.29 96.70
16568 2019-10-30 21:06:21 ESP12E-S1 6.30 5.50 96.30
16567 2019-10-30 20:38:04 ESP12E-S1 6.40 5.58 95.10
16566 2019-10-30 20:09:48 ESP12E-S1 6.50 5.64 93.30
16565 2019-10-30 19:41:33 ESP12E-S1 6.60 5.79 94.70
16564 2019-10-30 19:13:18 ESP12E-S1 6.80 6.00 94.20
16563 2019-10-30 18:45:03 ESP12E-S1 6.90 6.09 93.60
16562 2019-10-30 18:16:47 ESP12E-S1 7.00 6.16 91.90
16561 2019-10-30 17:48:32 ESP12E-S1 7.30 6.46 91.10
16560 2019-10-30 17:20:15 ESP12E-S1 7.40 6.55 90.10
16559 2019-10-30 16:51:59 ESP12E-S1 7.60 6.76 89.60
16558 2019-10-30 16:23:42 ESP12E-S1 7.80 6.99 90.20
16557 2019-10-30 15:55:28 ESP12E-S1 7.90 7.10 90.30
16556 2019-10-30 15:27:13 ESP12E-S1 8.10 7.35 91.20
16555 2019-10-30 14:58:57 ESP12E-S1 8.20 7.47 91.70
16554 2019-10-30 14:30:43 ESP12E-S1 8.40 7.73 93.20
16553 2019-10-30 14:02:28 ESP12E-S1 8.50 7.77 90.40
16552 2019-10-30 13:34:11 ESP12E-S1 8.70 8.07 93.80
16551 2019-10-30 13:05:54 ESP12E-S1 8.80 8.15 92.50
16550 2019-10-30 12:37:36 ESP12E-S1 8.70 8.01 91.30
16549 2019-10-30 12:09:20 ESP12E-S1 8.90 8.22 90.90
16548 2019-10-30 11:41:05 ESP12E-S1 8.90 8.20 90.00
16547 2019-10-30 11:12:50 ESP12E-S1 9.30 8.61 89.20
16546 2019-10-30 10:44:24 ESP12E-S1 7.90 7.23 95.30
16545 2019-10-30 10:16:07 ESP12E-S1 7.50 6.89 99.00
16544 2019-10-30 09:47:46 ESP12E-S1 6.70 6.03 99.90
16543 2019-10-30 09:19:24 ESP12E-S1 6.00 5.26 99.90
16542 2019-10-30 08:51:06 ESP12E-S1 5.60 4.82 99.90
16541 2019-10-30 08:22:49 ESP12E-S1 5.10 4.27 99.90
16540 2019-10-30 07:54:32 ESP12E-S1 4.90 4.05 99.90
16539 2019-10-30 07:26:17 ESP12E-S1 5.00 4.16 99.90
16538 2019-10-30 06:58:03 ESP12E-S1 5.10 4.27 99.90
16537 2019-10-30 06:29:48 ESP12E-S1 5.20 4.38 99.90
16536 2019-10-30 06:01:33 ESP12E-S1 5.30 4.49 99.90
16535 2019-10-30 05:33:17 ESP12E-S1 5.40 4.60 99.90
16534 2019-10-30 05:05:03 ESP12E-S1 5.50 4.71 99.90
16533 2019-10-30 04:36:46 ESP12E-S1 5.60 4.82 99.90
16532 2019-10-30 04:08:30 ESP12E-S1 5.80 5.04 99.90
16531 2019-10-30 03:40:13 ESP12E-S1 5.90 5.15 99.90
16530 2019-10-30 03:11:58 ESP12E-S1 6.00 5.26 99.90
16529 2019-10-30 02:43:42 ESP12E-S1 6.00 5.26 99.90
16528 2019-10-30 02:15:28 ESP12E-S1 6.10 5.37 99.90
16527 2019-10-30 01:47:12 ESP12E-S1 6.20 5.48 99.90
16526 2019-10-30 01:18:58 ESP12E-S1 6.30 5.59 99.90
16525 2019-10-30 00:50:42 ESP12E-S1 6.30 5.59 99.90
16524 2019-10-30 00:22:27 ESP12E-S1 6.50 5.80 99.40
16523 2019-10-29 23:54:11 ESP12E-S1 6.60 5.90 98.90
16522 2019-10-29 23:25:55 ESP12E-S1 6.70 5.99 98.10
16521 2019-10-29 22:57:40 ESP12E-S1 6.90 6.21 98.10
16520 2019-10-29 22:29:25 ESP12E-S1 7.00 6.31 97.90
16519 2019-10-29 22:01:11 ESP12E-S1 7.30 6.62 96.90
16518 2019-10-29 21:32:57 ESP12E-S1 7.70 7.01 95.00
16517 2019-10-29 21:04:44 ESP12E-S1 8.30 7.64 94.00
16516 2019-10-29 20:36:30 ESP12E-S1 8.50 7.87 94.40
16515 2019-10-29 20:08:14 ESP12E-S1 8.60 8.00 95.10
16514 2019-10-29 19:39:57 ESP12E-S1 8.70 8.07 93.80
16513 2019-10-29 19:11:41 ESP12E-S1 8.80 8.21 94.70
16512 2019-10-29 18:43:25 ESP12E-S1 8.90 8.36 96.40
16511 2019-10-29 18:15:08 ESP12E-S1 9.00 8.47 96.30
16510 2019-10-29 17:46:53 ESP12E-S1 9.10 8.54 94.80
16509 2019-10-29 17:18:42 ESP12E-S1 9.70 9.11 91.30
16508 2019-10-29 16:50:31 ESP12E-S1 10.70 10.09 86.90
16507 2019-10-29 16:22:26 ESP12E-S1 12.50 11.63 70.00
16506 2019-10-29 15:54:32 ESP12E-S1 16.40 15.63 58.60
16505 2019-10-29 15:27:14 ESP12E-S1 22.40 22.20 57.60
16504 2019-10-29 14:58:19 ESP12E-S1 20.20 19.87 60.90
16503 2019-10-29 14:29:32 ESP12E-S1 15.30 14.94 78.50
16502 2019-10-29 14:01:02 ESP12E-S1 11.60 11.42 99.90
16501 2019-10-29 13:32:41 ESP12E-S1 10.20 9.88 99.90
16500 2019-10-29 13:04:21 ESP12E-S1 9.70 9.33 99.90
16499 2019-10-29 12:36:03 ESP12E-S1 9.60 9.22 99.90
16498 2019-10-29 12:07:47 ESP12E-S1 9.50 9.11 99.90
16497 2019-10-29 11:39:29 ESP12E-S1 9.50 9.11 99.90
16496 2019-10-29 11:11:11 ESP12E-S1 9.30 8.89 99.90
16495 2019-10-29 10:42:51 ESP12E-S1 9.00 8.56 99.90
16494 2019-10-29 10:14:34 ESP12E-S1 8.80 8.34 99.90
16493 2019-10-29 09:46:13 ESP12E-S1 8.40 7.90 99.90
16492 2019-10-29 09:17:53 ESP12E-S1 8.10 7.57 99.90
16491 2019-10-29 08:49:34 ESP12E-S1 7.60 7.02 99.90
16490 2019-10-29 08:21:15 ESP12E-S1 7.40 6.80 99.90
16489 2019-10-29 07:52:57 ESP12E-S1 7.30 6.69 99.90
16488 2019-10-29 07:24:40 ESP12E-S1 7.30 6.69 99.90
16487 2019-10-29 06:56:23 ESP12E-S1 7.20 6.58 99.90
16486 2019-10-29 06:28:06 ESP12E-S1 7.30 6.69 99.90
16485 2019-10-29 05:59:50 ESP12E-S1 7.20 6.58 99.90
16484 2019-10-29 05:31:32 ESP12E-S1 7.10 6.47 99.90
16483 2019-10-29 05:03:16 ESP12E-S1 7.10 6.47 99.90
16482 2019-10-29 04:34:59 ESP12E-S1 7.00 6.36 99.90
16481 2019-10-29 04:06:41 ESP12E-S1 6.80 6.14 99.90
16480 2019-10-29 03:38:24 ESP12E-S1 6.70 6.03 99.90
16479 2019-10-29 03:10:07 ESP12E-S1 6.50 5.81 99.90
16478 2019-10-29 02:41:50 ESP12E-S1 6.30 5.59 99.90
16477 2019-10-29 02:13:34 ESP12E-S1 6.40 5.70 99.90
16476 2019-10-29 01:45:19 ESP12E-S1 6.60 5.92 99.90
16475 2019-10-29 01:17:02 ESP12E-S1 6.50 5.81 99.90
16474 2019-10-29 00:48:46 ESP12E-S1 6.60 5.92 99.90
16473 2019-10-29 00:20:29 ESP12E-S1 6.70 6.03 99.90
16472 2019-10-28 23:52:13 ESP12E-S1 6.70 6.03 99.90
16471 2019-10-28 23:23:57 ESP12E-S1 6.70 6.03 99.90
16470 2019-10-28 22:55:38 ESP12E-S1 6.70 6.03 99.90
16469 2019-10-28 22:27:23 ESP12E-S1 6.70 6.03 99.90
16468 2019-10-28 21:59:06 ESP12E-S1 6.70 6.03 99.90
16467 2019-10-28 21:30:51 ESP12E-S1 6.80 6.14 99.90
16466 2019-10-28 21:02:33 ESP12E-S1 6.90 6.25 99.90
16465 2019-10-28 20:34:19 ESP12E-S1 7.00 6.36 99.90
16464 2019-10-28 20:06:01 ESP12E-S1 7.10 6.47 99.90
16463 2019-10-28 19:37:46 ESP12E-S1 7.00 6.36 99.90
16462 2019-10-28 19:09:31 ESP12E-S1 7.10 6.47 99.90
16461 2019-10-28 18:41:17 ESP12E-S1 7.50 6.91 99.90
16460 2019-10-28 18:13:03 ESP12E-S1 7.80 7.24 99.90
16459 2019-10-28 17:44:48 ESP12E-S1 8.20 7.68 99.90
16458 2019-10-28 17:16:34 ESP12E-S1 8.70 8.23 99.90
16457 2019-10-28 16:48:23 ESP12E-S1 9.50 9.11 99.90
16456 2019-10-28 16:20:15 ESP12E-S1 10.70 10.43 99.90
16455 2019-10-28 15:52:09 ESP12E-S1 12.80 12.68 97.40
16454 2019-10-28 15:24:11 ESP12E-S1 15.10 14.78 81.10
16453 2019-10-28 14:55:59 ESP12E-S1 18.80 18.55 69.40
16452 2019-10-28 14:27:16 ESP12E-S1 16.10 16.05 87.60
16451 2019-10-28 13:58:54 ESP12E-S1 12.90 12.85 99.90
16450 2019-10-28 13:30:35 ESP12E-S1 12.40 12.30 99.90
16449 2019-10-28 13:02:16 ESP12E-S1 12.20 12.08 99.90
16448 2019-10-28 12:33:57 ESP12E-S1 11.50 11.31 99.90
16447 2019-10-28 12:05:42 ESP12E-S1 11.60 11.42 99.90
16446 2019-10-28 11:37:27 ESP12E-S1 11.50 11.31 99.90
16445 2019-10-28 11:09:11 ESP12E-S1 11.00 10.76 99.90
16444 2019-10-28 10:40:39 ESP12E-S1 8.80 8.34 99.90
16443 2019-10-28 10:12:17 ESP12E-S1 8.00 7.46 99.90
16442 2019-10-28 09:43:54 ESP12E-S1 7.10 6.47 99.90
16441 2019-10-28 09:15:31 ESP12E-S1 6.30 5.59 99.90
16440 2019-10-28 08:47:11 ESP12E-S1 5.60 4.82 99.90
16439 2019-10-28 08:18:52 ESP12E-S1 5.20 4.38 99.90
16438 2019-10-28 07:50:34 ESP12E-S1 5.10 4.27 99.90
16437 2019-10-28 07:22:18 ESP12E-S1 4.90 4.05 99.90
16436 2019-10-28 06:54:02 ESP12E-S1 5.10 4.27 99.90
16435 2019-10-28 06:25:46 ESP12E-S1 5.30 4.49 99.90
16434 2019-10-28 05:57:31 ESP12E-S1 5.40 4.60 99.90
16433 2019-10-28 05:29:15 ESP12E-S1 5.50 4.71 99.90
16432 2019-10-28 05:00:59 ESP12E-S1 5.60 4.82 99.90
16431 2019-10-28 04:32:44 ESP12E-S1 5.80 5.04 99.90
16430 2019-10-28 04:04:29 ESP12E-S1 6.00 5.26 99.90
16429 2019-10-28 03:36:15 ESP12E-S1 6.30 5.59 99.90
16428 2019-10-28 03:08:01 ESP12E-S1 6.70 6.03 99.90
16427 2019-10-28 02:39:46 ESP12E-S1 6.70 6.03 99.90
16426 2019-10-28 02:11:29 ESP12E-S1 6.90 6.25 99.90
16425 2019-10-28 01:43:12 ESP12E-S1 7.00 6.36 99.90
16424 2019-10-28 01:14:57 ESP12E-S1 7.10 6.47 99.90
16423 2019-10-28 00:46:41 ESP12E-S1 7.10 6.47 99.90
16422 2019-10-28 00:18:28 ESP12E-S1 7.50 6.91 99.90
16421 2019-10-27 23:50:11 ESP12E-S1 7.50 6.91 99.90
16420 2019-10-27 23:21:56 ESP12E-S1 7.70 7.13 99.90
16419 2019-10-27 22:53:41 ESP12E-S1 8.00 7.46 99.90
16418 2019-10-27 22:25:26 ESP12E-S1 8.50 8.01 99.90
16417 2019-10-27 21:57:11 ESP12E-S1 8.70 8.23 99.90
16416 2019-10-27 21:28:54 ESP12E-S1 8.90 8.45 99.90
16415 2019-10-27 21:00:38 ESP12E-S1 8.80 8.34 99.90
16414 2019-10-27 20:32:22 ESP12E-S1 8.80 8.34 99.90
16413 2019-10-27 20:04:05 ESP12E-S1 8.70 8.23 99.90
16412 2019-10-27 19:35:49 ESP12E-S1 8.80 8.34 99.90
16411 2019-10-27 19:07:33 ESP12E-S1 8.80 8.34 99.90
16410 2019-10-27 18:39:17 ESP12E-S1 8.80 8.34 99.90
16409 2019-10-27 18:11:01 ESP12E-S1 8.80 8.34 99.90
16408 2019-10-27 17:42:45 ESP12E-S1 8.90 8.45 99.90
16407 2019-10-27 17:14:30 ESP12E-S1 9.10 8.67 99.90
16406 2019-10-27 16:46:15 ESP12E-S1 9.10 8.67 99.90
16405 2019-10-27 16:17:58 ESP12E-S1 9.30 8.89 99.90
16404 2019-10-27 15:49:45 ESP12E-S1 9.60 9.22 99.90
16403 2019-10-27 15:21:29 ESP12E-S1 9.90 9.55 99.90
16402 2019-10-27 14:53:15 ESP12E-S1 10.20 9.88 99.90
16401 2019-10-27 14:25:01 ESP12E-S1 10.70 10.43 99.90
16400 2019-10-27 13:56:46 ESP12E-S1 11.00 10.76 99.90
16399 2019-10-27 13:28:31 ESP12E-S1 11.20 10.98 99.90
16398 2019-10-27 13:00:16 ESP12E-S1 11.40 11.20 99.90
16397 2019-10-27 12:31:59 ESP12E-S1 11.50 11.31 99.90
16396 2019-10-27 12:03:43 ESP12E-S1 11.60 11.42 99.90
16395 2019-10-27 11:35:27 ESP12E-S1 11.80 11.64 99.90
16394 2019-10-27 11:07:11 ESP12E-S1 11.90 11.75 99.90
16393 2019-10-27 10:38:55 ESP12E-S1 12.00 11.86 99.90
16392 2019-10-27 10:10:37 ESP12E-S1 11.80 11.64 99.90
16391 2019-10-27 09:42:20 ESP12E-S1 11.80 11.64 99.90
16390 2019-10-27 09:14:02 ESP12E-S1 11.70 11.53 99.90
16389 2019-10-27 08:45:43 ESP12E-S1 11.60 11.42 99.90
16388 2019-10-27 08:17:25 ESP12E-S1 11.40 11.20 99.90
16387 2019-10-27 07:49:06 ESP12E-S1 11.10 10.87 99.90
16386 2019-10-27 07:20:48 ESP12E-S1 10.80 10.54 99.90
16385 2019-10-27 06:52:33 ESP12E-S1 10.70 10.43 99.90
16384 2019-10-27 06:24:18 ESP12E-S1 10.70 10.43 99.90
16383 2019-10-27 05:56:01 ESP12E-S1 10.80 10.54 99.90
16382 2019-10-27 05:27:46 ESP12E-S1 11.00 10.76 99.90
16381 2019-10-27 04:59:28 ESP12E-S1 11.20 10.98 99.90
16380 2019-10-27 04:31:13 ESP12E-S1 11.20 10.98 99.90
16379 2019-10-27 04:02:58 ESP12E-S1 11.20 10.98 99.90
16378 2019-10-27 03:34:40 ESP12E-S1 11.20 10.98 99.90
16377 2019-10-27 03:06:24 ESP12E-S1 11.30 11.09 99.90
16376 2019-10-27 02:38:08 ESP12E-S1 11.40 11.20 99.90
16375 2019-10-27 02:09:52 ESP12E-S1 11.50 11.31 99.90
16374 2019-10-27 02:41:37 ESP12E-S1 11.60 11.42 99.90
16373 2019-10-27 02:13:20 ESP12E-S1 11.60 11.42 99.90
16372 2019-10-27 01:45:03 ESP12E-S1 11.70 11.53 99.90
16371 2019-10-27 01:16:47 ESP12E-S1 11.60 11.42 99.90
16370 2019-10-27 00:48:31 ESP12E-S1 11.90 11.75 99.90
16369 2019-10-27 00:20:15 ESP12E-S1 12.10 11.97 99.90
16368 2019-10-26 23:51:59 ESP12E-S1 12.20 12.08 99.90
16367 2019-10-26 23:23:42 ESP12E-S1 12.30 12.19 99.90
16366 2019-10-26 22:55:27 ESP12E-S1 12.40 12.30 99.90
16365 2019-10-26 22:27:11 ESP12E-S1 12.50 12.41 99.90
16364 2019-10-26 21:58:55 ESP12E-S1 12.50 12.41 99.90
16363 2019-10-26 21:30:39 ESP12E-S1 12.70 12.63 99.90
16362 2019-10-26 21:02:23 ESP12E-S1 13.00 12.96 99.90
16361 2019-10-26 20:34:08 ESP12E-S1 13.30 13.29 99.90
16360 2019-10-26 20:05:53 ESP12E-S1 13.70 13.73 99.90
16359 2019-10-26 19:37:38 ESP12E-S1 14.10 14.17 99.90
16358 2019-10-26 19:09:24 ESP12E-S1 14.60 14.72 99.90
16357 2019-10-26 18:41:10 ESP12E-S1 15.30 15.49 99.90
16356 2019-10-26 18:12:59 ESP12E-S1 16.40 16.70 99.90
16355 2019-10-26 17:44:51 ESP12E-S1 17.80 18.24 99.90
16354 2019-10-26 17:16:47 ESP12E-S1 19.60 20.07 94.10
16353 2019-10-26 16:49:08 ESP12E-S1 24.20 24.53 71.10
16352 2019-10-26 16:21:01 ESP12E-S1 28.10 29.89 62.50
16351 2019-10-26 15:52:10 ESP12E-S1 27.00 28.72 68.30
16350 2019-10-26 15:23:19 ESP12E-S1 20.90 21.61 98.40
16349 2019-10-26 14:54:54 ESP12E-S1 18.00 18.46 99.90
16348 2019-10-26 14:26:31 ESP12E-S1 16.90 17.25 99.90
16347 2019-10-26 13:58:09 ESP12E-S1 16.20 16.48 99.90
16346 2019-10-26 13:29:51 ESP12E-S1 16.40 16.70 99.90
16345 2019-10-26 13:01:33 ESP12E-S1 16.60 16.92 99.90
16344 2019-10-26 12:33:11 ESP12E-S1 16.30 16.59 99.90
16343 2019-10-26 12:04:45 ESP12E-S1 15.00 15.16 99.90
16342 2019-10-26 11:36:21 ESP12E-S1 13.50 13.51 99.90
16341 2019-10-26 11:07:59 ESP12E-S1 12.80 12.74 99.90
16340 2019-10-26 10:39:36 ESP12E-S1 12.10 11.97 99.90
16339 2019-10-26 10:11:12 ESP12E-S1 11.20 10.98 99.90
16338 2019-10-26 09:42:53 ESP12E-S1 10.70 10.43 99.90
16337 2019-10-26 09:14:33 ESP12E-S1 10.50 10.21 99.90
16336 2019-10-26 08:46:15 ESP12E-S1 10.20 9.88 99.90
16335 2019-10-26 08:17:57 ESP12E-S1 10.00 9.66 99.90
16334 2019-10-26 07:49:40 ESP12E-S1 10.00 9.66 99.90
16333 2019-10-26 07:21:25 ESP12E-S1 10.00 9.66 99.90
16332 2019-10-26 06:53:09 ESP12E-S1 10.10 9.77 99.90
16331 2019-10-26 06:24:51 ESP12E-S1 10.20 9.88 99.90
16330 2019-10-26 05:56:34 ESP12E-S1 10.30 9.99 99.90
16329 2019-10-26 05:28:19 ESP12E-S1 10.40 10.10 99.90
16328 2019-10-26 05:00:01 ESP12E-S1 10.60 10.32 99.90
16327 2019-10-26 04:31:43 ESP12E-S1 10.80 10.54 99.90
16326 2019-10-26 04:03:26 ESP12E-S1 10.90 10.65 99.90
16325 2019-10-26 03:35:10 ESP12E-S1 11.20 10.98 99.90
16324 2019-10-26 03:06:53 ESP12E-S1 11.30 11.09 99.90
16323 2019-10-26 02:38:38 ESP12E-S1 11.40 11.20 99.90
16322 2019-10-26 02:10:22 ESP12E-S1 11.40 11.20 99.90
16321 2019-10-26 01:42:03 ESP12E-S1 11.30 11.09 99.90
16320 2019-10-26 01:13:45 ESP12E-S1 11.30 11.09 99.90
16319 2019-10-26 00:45:29 ESP12E-S1 11.40 11.20 99.90
16318 2019-10-26 00:17:12 ESP12E-S1 11.40 11.20 99.90
16317 2019-10-25 23:48:55 ESP12E-S1 11.50 11.31 99.90
16316 2019-10-25 23:20:38 ESP12E-S1 11.60 11.42 99.90
16315 2019-10-25 22:52:19 ESP12E-S1 11.80 11.64 99.90
16314 2019-10-25 22:24:02 ESP12E-S1 11.80 11.64 99.90
16313 2019-10-25 21:55:45 ESP12E-S1 11.80 11.64 99.90
16312 2019-10-25 21:27:28 ESP12E-S1 11.90 11.75 99.90
16311 2019-10-25 20:59:12 ESP12E-S1 12.10 11.97 99.90
16310 2019-10-25 20:30:56 ESP12E-S1 12.50 12.41 99.90
16309 2019-10-25 20:02:41 ESP12E-S1 12.70 12.63 99.90
16308 2019-10-25 19:34:26 ESP12E-S1 13.00 12.96 99.90
16307 2019-10-25 19:06:11 ESP12E-S1 13.40 13.40 99.90
16306 2019-10-25 18:37:58 ESP12E-S1 14.00 14.06 99.90
16305 2019-10-25 18:09:46 ESP12E-S1 15.10 15.27 99.90
16304 2019-10-25 17:41:33 ESP12E-S1 16.10 16.36 99.50
16303 2019-10-25 17:13:25 ESP12E-S1 17.40 17.65 94.00
16302 2019-10-25 16:45:07 ESP12E-S1 18.50 18.95 97.40
16301 2019-10-25 16:16:25 ESP12E-S1 17.10 17.47 99.90
16300 2019-10-25 15:48:03 ESP12E-S1 16.30 16.59 99.90
16299 2019-10-25 15:19:42 ESP12E-S1 16.40 16.70 99.90
16298 2019-10-25 14:51:20 ESP12E-S1 15.10 15.27 99.90
16297 2019-10-25 14:23:03 ESP12E-S1 15.10 15.27 99.90
16296 2019-10-25 13:54:47 ESP12E-S1 15.60 15.82 99.90
16295 2019-10-25 13:26:28 ESP12E-S1 15.10 15.27 99.90
16294 2019-10-25 12:58:12 ESP12E-S1 15.20 15.38 99.90
16293 2019-10-25 12:29:52 ESP12E-S1 15.50 15.71 99.90
16292 2019-10-25 12:01:31 ESP12E-S1 14.80 14.94 99.90
16291 2019-10-25 11:33:09 ESP12E-S1 14.00 14.06 99.90
16290 2019-10-25 11:04:46 ESP12E-S1 13.50 13.51 99.90
16289 2019-10-25 10:36:27 ESP12E-S1 13.10 13.07 99.90
16288 2019-10-25 10:08:07 ESP12E-S1 12.60 12.52 99.90
16287 2019-10-25 09:39:47 ESP12E-S1 12.30 12.19 99.90
16286 2019-10-25 09:11:30 ESP12E-S1 12.10 11.97 99.90
16285 2019-10-25 08:43:11 ESP12E-S1 12.00 11.86 99.90
16284 2019-10-25 08:14:51 ESP12E-S1 11.90 11.75 99.90
16283 2019-10-25 07:46:34 ESP12E-S1 11.80 11.64 99.90
16282 2019-10-25 07:18:20 ESP12E-S1 12.00 11.86 99.90
16281 2019-10-25 06:50:02 ESP12E-S1 12.10 11.97 99.90
16280 2019-10-25 06:21:45 ESP12E-S1 12.20 12.08 99.90
16279 2019-10-25 05:53:28 ESP12E-S1 12.20 12.08 99.90
16278 2019-10-25 05:25:10 ESP12E-S1 12.20 12.08 99.90
16277 2019-10-25 04:56:55 ESP12E-S1 12.30 12.19 99.90
16276 2019-10-25 04:28:39 ESP12E-S1 12.60 12.52 99.90
16275 2019-10-25 04:00:22 ESP12E-S1 12.80 12.74 99.90
16274 2019-10-25 03:32:06 ESP12E-S1 13.10 13.07 99.90
16273 2019-10-25 03:03:50 ESP12E-S1 13.40 13.40 99.90
16272 2019-10-25 02:35:34 ESP12E-S1 13.50 13.51 99.90
16271 2019-10-25 02:07:18 ESP12E-S1 13.60 13.62 99.90
16270 2019-10-25 01:38:59 ESP12E-S1 13.70 13.73 99.90
16269 2019-10-25 01:10:43 ESP12E-S1 13.60 13.62 99.90
16268 2019-10-25 00:42:28 ESP12E-S1 13.70 13.73 99.90
16267 2019-10-25 00:14:09 ESP12E-S1 13.70 13.73 99.90
16266 2019-10-24 23:45:53 ESP12E-S1 13.80 13.84 99.90
16265 2019-10-24 23:17:35 ESP12E-S1 13.70 13.73 99.90
16264 2019-10-24 22:49:18 ESP12E-S1 13.70 13.73 99.90
16263 2019-10-24 22:21:01 ESP12E-S1 13.70 13.73 99.90
16262 2019-10-24 21:52:45 ESP12E-S1 13.80 13.84 99.90
16261 2019-10-24 21:24:28 ESP12E-S1 14.00 14.06 99.90
16260 2019-10-24 20:56:11 ESP12E-S1 14.20 14.28 99.90
16259 2019-10-24 20:27:54 ESP12E-S1 14.20 14.28 99.90
16258 2019-10-24 19:59:37 ESP12E-S1 14.40 14.50 99.90
16257 2019-10-24 19:31:21 ESP12E-S1 14.50 14.61 99.90
16256 2019-10-24 19:03:04 ESP12E-S1 14.70 14.83 99.90
16255 2019-10-24 18:34:48 ESP12E-S1 15.10 15.27 99.90
16254 2019-10-24 18:06:34 ESP12E-S1 15.50 15.71 99.90
16253 2019-10-24 17:38:19 ESP12E-S1 16.10 16.37 99.90
16252 2019-10-24 17:10:07 ESP12E-S1 16.80 17.14 99.90
16251 2019-10-24 16:42:02 ESP12E-S1 18.60 19.12 99.90
16250 2019-10-24 16:13:42 ESP12E-S1 21.20 21.98 99.90
16249 2019-10-24 15:45:06 ESP12E-S1 16.20 16.48 99.90
16248 2019-10-24 15:16:50 ESP12E-S1 16.60 16.92 99.90
16247 2019-10-24 14:48:29 ESP12E-S1 16.40 16.70 99.90
16246 2019-10-24 14:20:10 ESP12E-S1 16.10 16.37 99.90
16245 2019-10-24 13:51:54 ESP12E-S1 16.20 16.48 99.90
16244 2019-10-24 13:23:32 ESP12E-S1 15.80 16.04 99.90
16243 2019-10-24 12:55:03 ESP12E-S1 14.40 14.50 99.90
16242 2019-10-24 12:26:38 ESP12E-S1 13.30 13.29 99.90
16241 2019-10-24 11:58:16 ESP12E-S1 12.70 12.63 99.90
16240 2019-10-24 11:29:57 ESP12E-S1 12.50 12.41 99.90
16239 2019-10-24 11:01:39 ESP12E-S1 12.50 12.41 99.90
16238 2019-10-24 10:33:22 ESP12E-S1 12.50 12.41 99.90
16237 2019-10-24 10:05:05 ESP12E-S1 12.50 12.41 99.90
16236 2019-10-24 09:36:44 ESP12E-S1 12.00 11.86 99.90
16235 2019-10-24 09:08:25 ESP12E-S1 12.00 11.86 99.90
16234 2019-10-24 08:40:07 ESP12E-S1 12.00 11.86 99.90
16233 2019-10-24 08:11:50 ESP12E-S1 12.00 11.86 99.90
16232 2019-10-24 07:43:33 ESP12E-S1 12.00 11.86 99.90
16231 2019-10-24 07:15:14 ESP12E-S1 12.10 11.97 99.90
16230 2019-10-24 06:46:58 ESP12E-S1 12.20 12.08 99.90
16229 2019-10-24 06:18:42 ESP12E-S1 12.20 12.08 99.90
16228 2019-10-24 05:50:23 ESP12E-S1 12.20 12.08 99.90
16227 2019-10-24 05:22:06 ESP12E-S1 12.20 12.08 99.90
16226 2019-10-24 04:53:48 ESP12E-S1 12.30 12.19 99.90
16225 2019-10-24 04:25:31 ESP12E-S1 12.40 12.30 99.90
16224 2019-10-24 03:57:14 ESP12E-S1 12.50 12.41 99.90
16223 2019-10-24 03:28:59 ESP12E-S1 12.60 12.52 99.90
16222 2019-10-24 03:00:43 ESP12E-S1 12.70 12.63 99.90
16221 2019-10-24 02:32:25 ESP12E-S1 12.80 12.74 99.90
16220 2019-10-24 02:04:08 ESP12E-S1 12.80 12.74 99.90
16219 2019-10-24 01:35:51 ESP12E-S1 12.90 12.85 99.90
16218 2019-10-24 01:07:34 ESP12E-S1 12.90 12.85 99.90
16217 2019-10-24 00:39:17 ESP12E-S1 12.90 12.85 99.90
16216 2019-10-24 00:11:01 ESP12E-S1 13.00 12.96 99.90
16215 2019-10-23 23:42:44 ESP12E-S1 13.00 12.96 99.90
16214 2019-10-23 23:14:26 ESP12E-S1 13.10 13.07 99.90
16213 2019-10-23 22:46:09 ESP12E-S1 13.20 13.18 99.90
16212 2019-10-23 22:17:51 ESP12E-S1 13.30 13.29 99.90
16211 2019-10-23 21:49:32 ESP12E-S1 13.20 13.18 99.90
16210 2019-10-23 21:21:17 ESP12E-S1 13.30 13.29 99.90
16209 2019-10-23 20:53:00 ESP12E-S1 13.50 13.51 99.90
16208 2019-10-23 20:24:43 ESP12E-S1 13.50 13.51 99.90
16207 2019-10-23 19:56:34 ESP12E-S1 13.60 13.62 99.90
16206 2019-10-23 19:28:14 ESP12E-S1 13.60 13.62 99.90
16205 2019-10-23 18:59:57 ESP12E-S1 13.70 13.73 99.90
16204 2019-10-23 18:31:41 ESP12E-S1 13.70 13.73 99.90
16203 2019-10-23 18:03:24 ESP12E-S1 13.80 13.84 99.90
16202 2019-10-23 17:35:07 ESP12E-S1 13.90 13.95 99.90
16201 2019-10-23 17:06:49 ESP12E-S1 13.90 13.95 99.90
16200 2019-10-23 16:38:31 ESP12E-S1 14.00 14.06 99.90
16199 2019-10-23 16:10:13 ESP12E-S1 14.00 14.06 99.90
16198 2019-10-23 15:41:54 ESP12E-S1 13.90 13.95 99.90
16197 2019-10-23 15:13:36 ESP12E-S1 13.90 13.95 99.90
16196 2019-10-23 14:45:17 ESP12E-S1 13.80 13.84 99.90
16195 2019-10-23 14:16:59 ESP12E-S1 13.70 13.73 99.90
16194 2019-10-23 13:48:42 ESP12E-S1 13.70 13.73 99.90
16193 2019-10-23 13:20:23 ESP12E-S1 13.60 13.62 99.90
16192 2019-10-23 12:52:04 ESP12E-S1 13.40 13.40 99.90
16191 2019-10-23 12:23:46 ESP12E-S1 13.20 13.18 99.90
16190 2019-10-23 11:55:28 ESP12E-S1 13.10 13.07 99.90
16189 2019-10-23 11:27:10 ESP12E-S1 13.00 12.96 99.90
16188 2019-10-23 10:58:51 ESP12E-S1 12.90 12.85 99.90
16187 2019-10-23 10:30:34 ESP12E-S1 12.80 12.74 99.90
16186 2019-10-23 10:02:15 ESP12E-S1 12.70 12.63 99.90
16185 2019-10-23 09:33:57 ESP12E-S1 12.60 12.52 99.90
16184 2019-10-23 09:05:41 ESP12E-S1 12.50 12.41 99.90
16183 2019-10-23 08:37:24 ESP12E-S1 12.50 12.41 99.90
16182 2019-10-23 08:09:06 ESP12E-S1 12.50 12.41 99.90
16181 2019-10-23 07:40:50 ESP12E-S1 12.40 12.30 99.90
16180 2019-10-23 07:12:34 ESP12E-S1 12.40 12.30 99.90
16179 2019-10-23 06:44:18 ESP12E-S1 12.50 12.41 99.90
16178 2019-10-23 06:16:01 ESP12E-S1 12.60 12.52 99.90
16177 2019-10-23 05:47:45 ESP12E-S1 12.60 12.52 99.90
16176 2019-10-23 05:19:30 ESP12E-S1 12.60 12.52 99.90
16175 2019-10-23 04:51:12 ESP12E-S1 12.60 12.52 99.90
16174 2019-10-23 04:22:54 ESP12E-S1 12.70 12.63 99.90
16173 2019-10-23 03:54:36 ESP12E-S1 12.60 12.52 99.90
16172 2019-10-23 03:26:19 ESP12E-S1 12.60 12.52 99.90
16171 2019-10-23 02:58:03 ESP12E-S1 12.60 12.52 99.90
16170 2019-10-23 02:29:45 ESP12E-S1 12.60 12.52 99.90
16169 2019-10-23 02:01:27 ESP12E-S1 12.50 12.41 99.90
16168 2019-10-23 01:33:09 ESP12E-S1 12.40 12.30 99.90
16167 2019-10-23 01:04:50 ESP12E-S1 12.20 12.08 99.90
16166 2019-10-23 00:36:33 ESP12E-S1 12.10 11.97 99.90
16165 2019-10-23 00:08:16 ESP12E-S1 12.30 12.19 99.90
16164 2019-10-22 23:40:00 ESP12E-S1 12.50 12.41 99.90
16163 2019-10-22 23:11:44 ESP12E-S1 12.70 12.63 99.90
16162 2019-10-22 22:43:28 ESP12E-S1 12.70 12.63 99.90
16161 2019-10-22 22:15:12 ESP12E-S1 12.90 12.85 99.90
16160 2019-10-22 21:46:57 ESP12E-S1 13.10 13.07 99.90
16159 2019-10-22 21:18:42 ESP12E-S1 13.40 13.40 99.90
16158 2019-10-22 20:50:27 ESP12E-S1 13.60 13.62 99.90
16157 2019-10-22 20:22:12 ESP12E-S1 13.90 13.95 99.90
16156 2019-10-22 19:53:58 ESP12E-S1 14.30 14.39 99.90
16155 2019-10-22 19:25:44 ESP12E-S1 14.70 14.83 99.90
16154 2019-10-22 18:57:30 ESP12E-S1 15.20 15.38 99.90
16153 2019-10-22 18:29:20 ESP12E-S1 16.10 16.37 99.90
16152 2019-10-22 18:01:09 ESP12E-S1 17.40 17.76 98.30
16151 2019-10-22 17:33:01 ESP12E-S1 18.70 19.01 91.20
16150 2019-10-22 17:05:11 ESP12E-S1 21.50 21.60 72.40
16149 2019-10-22 16:36:54 ESP12E-S1 25.00 25.37 69.60
16148 2019-10-22 16:08:51 ESP12E-S1 26.50 27.78 65.40
16147 2019-10-22 15:39:53 ESP12E-S1 19.40 19.80 92.00
16146 2019-10-22 15:11:33 ESP12E-S1 19.60 19.97 90.30
16145 2019-10-22 14:43:17 ESP12E-S1 19.70 20.03 88.40
16144 2019-10-22 14:14:53 ESP12E-S1 18.70 18.90 87.10
16143 2019-10-22 13:46:33 ESP12E-S1 18.10 18.37 92.00
16142 2019-10-22 13:18:41 ESP12E-S1 17.60 17.97 97.70
16141 2019-10-22 12:45:32 ESP12E-S1 16.70 17.03 99.90
16140 2019-10-22 12:14:15 ESP12E-S1 15.90 16.15 99.90
16139 2019-10-22 11:45:48 ESP12E-S1 14.70 14.83 99.90
16138 2019-10-22 11:17:24 ESP12E-S1 14.00 14.06 99.90
16137 2019-10-22 10:49:04 ESP12E-S1 13.20 13.18 99.90
16136 2019-10-22 10:20:45 ESP12E-S1 13.00 12.96 99.90
16135 2019-10-22 09:52:22 ESP12E-S1 12.30 12.19 99.90
16134 2019-10-22 09:24:00 ESP12E-S1 11.40 11.20 99.90
16133 2019-10-22 08:55:41 ESP12E-S1 11.00 10.76 99.90
16132 2019-10-22 08:27:24 ESP12E-S1 10.90 10.65 99.90
16131 2019-10-22 07:59:07 ESP12E-S1 11.00 10.76 99.90
16130 2019-10-22 07:30:49 ESP12E-S1 10.80 10.54 99.90
16129 2019-10-22 07:02:33 ESP12E-S1 10.80 10.54 99.90
16128 2019-10-22 06:34:19 ESP12E-S1 11.10 10.87 99.90
16127 2019-10-22 06:06:02 ESP12E-S1 11.30 11.09 99.90
16126 2019-10-22 05:37:46 ESP12E-S1 11.40 11.20 99.90
16125 2019-10-22 05:09:30 ESP12E-S1 11.70 11.53 99.90
16124 2019-10-22 04:41:14 ESP12E-S1 11.90 11.75 99.90
16123 2019-10-22 04:12:57 ESP12E-S1 11.90 11.75 99.90
16122 2019-10-22 03:44:43 ESP12E-S1 12.10 11.97 99.90
16121 2019-10-22 03:16:26 ESP12E-S1 11.90 11.75 99.90
16120 2019-10-22 02:48:11 ESP12E-S1 12.10 11.97 99.90
16119 2019-10-22 02:19:55 ESP12E-S1 12.30 12.19 99.90
16118 2019-10-22 01:51:38 ESP12E-S1 12.50 12.41 99.90
16117 2019-10-22 01:23:22 ESP12E-S1 12.60 12.52 99.90
16116 2019-10-22 00:55:05 ESP12E-S1 12.60 12.52 99.90
16115 2019-10-22 00:26:49 ESP12E-S1 12.80 12.74 99.90
16114 2019-10-21 23:58:33 ESP12E-S1 13.00 12.96 99.90
16113 2019-10-21 23:30:15 ESP12E-S1 13.20 13.18 99.90
16112 2019-10-21 23:01:59 ESP12E-S1 13.30 13.29 99.90
16111 2019-10-21 22:33:42 ESP12E-S1 13.60 13.62 99.90
16110 2019-10-21 22:05:26 ESP12E-S1 13.70 13.73 99.90
16109 2019-10-21 21:37:09 ESP12E-S1 13.70 13.73 99.90
16108 2019-10-21 21:08:53 ESP12E-S1 13.80 13.84 99.90
16107 2019-10-21 20:40:36 ESP12E-S1 13.90 13.95 99.90
16106 2019-10-21 20:12:20 ESP12E-S1 14.10 14.17 99.90
16105 2019-10-21 19:44:02 ESP12E-S1 14.30 14.39 99.90
16104 2019-10-21 19:15:45 ESP12E-S1 14.40 14.50 99.90
16103 2019-10-21 18:47:28 ESP12E-S1 14.60 14.72 99.90
16102 2019-10-21 18:19:11 ESP12E-S1 14.80 14.94 99.90
16101 2019-10-21 17:50:54 ESP12E-S1 15.10 15.27 99.90
16100 2019-10-21 17:22:37 ESP12E-S1 15.20 15.38 99.90
16099 2019-10-21 16:54:20 ESP12E-S1 15.50 15.71 99.90
16098 2019-10-21 16:26:03 ESP12E-S1 15.60 15.82 99.90
16097 2019-10-21 15:57:46 ESP12E-S1 15.80 16.04 99.90
16096 2019-10-21 15:29:31 ESP12E-S1 16.20 16.48 99.90
16095 2019-10-21 15:01:12 ESP12E-S1 16.20 16.48 99.90
16094 2019-10-21 14:32:57 ESP12E-S1 16.40 16.70 99.90
16093 2019-10-21 14:04:41 ESP12E-S1 16.60 16.92 99.90
16092 2019-10-21 13:36:24 ESP12E-S1 16.80 17.14 99.90
16091 2019-10-21 13:08:13 ESP12E-S1 17.50 17.91 99.90
16090 2019-10-21 12:40:08 ESP12E-S1 18.90 19.45 99.90
16089 2019-10-21 12:11:42 ESP12E-S1 17.80 18.24 99.90
16088 2019-10-21 11:43:14 ESP12E-S1 15.70 15.93 99.90
16087 2019-10-21 11:14:53 ESP12E-S1 15.50 15.71 99.90
16086 2019-10-21 10:46:33 ESP12E-S1 15.00 15.16 99.90
16085 2019-10-21 10:18:15 ESP12E-S1 14.60 14.72 99.90
16084 2019-10-21 09:49:54 ESP12E-S1 13.90 13.95 99.90
16083 2019-10-21 09:21:35 ESP12E-S1 13.70 13.73 99.90
16082 2019-10-21 08:53:19 ESP12E-S1 13.70 13.73 99.90
16081 2019-10-21 08:25:02 ESP12E-S1 13.80 13.84 99.90
16080 2019-10-21 07:56:45 ESP12E-S1 13.80 13.84 99.90
16079 2019-10-21 07:28:28 ESP12E-S1 13.80 13.84 99.90
16078 2019-10-21 07:00:09 ESP12E-S1 13.60 13.62 99.90
16077 2019-10-21 06:31:51 ESP12E-S1 13.50 13.51 99.90
16076 2019-10-21 06:03:35 ESP12E-S1 13.60 13.62 99.90
16075 2019-10-21 05:35:17 ESP12E-S1 13.60 13.62 99.90
16074 2019-10-21 05:07:00 ESP12E-S1 13.60 13.62 99.90
16073 2019-10-21 04:38:44 ESP12E-S1 13.60 13.62 99.90
16072 2019-10-21 04:10:28 ESP12E-S1 13.80 13.84 99.90
16071 2019-10-21 03:42:10 ESP12E-S1 13.80 13.84 99.90
16070 2019-10-21 03:13:55 ESP12E-S1 14.00 14.06 99.90
16069 2019-10-21 02:45:38 ESP12E-S1 14.10 14.17 99.90
16068 2019-10-21 02:17:21 ESP12E-S1 14.30 14.39 99.90
16067 2019-10-21 01:49:04 ESP12E-S1 14.30 14.39 99.90
16066 2019-10-21 01:20:47 ESP12E-S1 14.40 14.50 99.90
16065 2019-10-21 00:52:30 ESP12E-S1 14.40 14.50 99.90
16064 2019-10-21 00:24:13 ESP12E-S1 14.30 14.39 99.90
16063 2019-10-20 23:55:55 ESP12E-S1 14.30 14.39 99.90
16062 2019-10-20 23:27:39 ESP12E-S1 14.40 14.50 99.90
16061 2019-10-20 22:59:22 ESP12E-S1 14.50 14.61 99.90
16060 2019-10-20 22:31:06 ESP12E-S1 14.50 14.61 99.90
16059 2019-10-20 22:02:48 ESP12E-S1 14.60 14.72 99.90
16058 2019-10-20 21:34:32 ESP12E-S1 14.60 14.72 99.90
16057 2019-10-20 21:06:15 ESP12E-S1 14.50 14.61 99.90
16056 2019-10-20 20:37:58 ESP12E-S1 14.50 14.61 99.90
16055 2019-10-20 20:09:40 ESP12E-S1 14.60 14.72 99.90
16054 2019-10-20 19:41:24 ESP12E-S1 14.60 14.72 99.90
16053 2019-10-20 19:13:08 ESP12E-S1 14.70 14.83 99.90
16052 2019-10-20 18:44:52 ESP12E-S1 14.90 15.05 99.90
16051 2019-10-20 18:16:38 ESP12E-S1 15.30 15.49 99.90
16050 2019-10-20 17:48:22 ESP12E-S1 15.60 15.82 99.90
16049 2019-10-20 17:20:05 ESP12E-S1 15.80 16.04 99.90
16048 2019-10-20 16:51:49 ESP12E-S1 15.90 16.15 99.90
16047 2019-10-20 16:23:32 ESP12E-S1 15.90 16.15 99.90
16046 2019-10-20 15:55:14 ESP12E-S1 15.90 16.15 99.90
16045 2019-10-20 15:26:57 ESP12E-S1 16.00 16.26 99.90
16044 2019-10-20 14:58:40 ESP12E-S1 16.20 16.48 99.90
16043 2019-10-20 14:30:26 ESP12E-S1 16.50 16.81 99.90
16042 2019-10-20 14:02:12 ESP12E-S1 16.80 17.14 99.90
16041 2019-10-20 13:33:57 ESP12E-S1 17.20 17.58 99.90
16040 2019-10-20 13:05:35 ESP12E-S1 16.40 16.70 99.90
16039 2019-10-20 12:37:23 ESP12E-S1 16.50 16.81 99.90
16038 2019-10-20 12:09:06 ESP12E-S1 15.80 16.04 99.90
16037 2019-10-20 11:40:41 ESP12E-S1 13.80 13.84 99.90
16036 2019-10-20 11:12:25 ESP12E-S1 13.60 13.62 99.90
16035 2019-10-20 10:44:07 ESP12E-S1 13.50 13.51 99.90
16034 2019-10-20 10:15:48 ESP12E-S1 13.20 13.18 99.90
16033 2019-10-20 09:47:32 ESP12E-S1 13.10 13.07 99.90
16032 2019-10-20 09:19:14 ESP12E-S1 13.00 12.96 99.90
16031 2019-10-20 08:50:57 ESP12E-S1 12.90 12.85 99.90
16030 2019-10-20 08:22:39 ESP12E-S1 12.90 12.85 99.90
16029 2019-10-20 07:54:22 ESP12E-S1 12.90 12.85 99.90
16028 2019-10-20 07:26:05 ESP12E-S1 12.90 12.85 99.90
16027 2019-10-20 06:57:49 ESP12E-S1 12.80 12.74 99.90
16026 2019-10-20 06:29:32 ESP12E-S1 12.80 12.74 99.90
16025 2019-10-20 06:01:15 ESP12E-S1 12.90 12.85 99.90
16024 2019-10-20 05:32:57 ESP12E-S1 12.90 12.85 99.90
16023 2019-10-20 05:04:40 ESP12E-S1 12.90 12.85 99.90
16022 2019-10-20 04:36:23 ESP12E-S1 12.90 12.85 99.90
16021 2019-10-20 04:08:07 ESP12E-S1 12.90 12.85 99.90
16020 2019-10-20 03:39:49 ESP12E-S1 12.80 12.74 99.90
16019 2019-10-20 03:11:34 ESP12E-S1 12.80 12.74 99.90
16018 2019-10-20 02:43:19 ESP12E-S1 12.80 12.74 99.90
16017 2019-10-20 02:15:01 ESP12E-S1 12.80 12.74 99.90
16016 2019-10-20 01:46:45 ESP12E-S1 12.80 12.74 99.90
16015 2019-10-20 01:18:28 ESP12E-S1 12.80 12.74 99.90
16014 2019-10-20 00:50:12 ESP12E-S1 12.90 12.85 99.90
16013 2019-10-20 00:21:57 ESP12E-S1 12.90 12.85 99.90
16012 2019-10-19 23:53:40 ESP12E-S1 13.00 12.96 99.90
16011 2019-10-19 23:25:24 ESP12E-S1 13.00 12.96 99.90
16010 2019-10-19 22:57:06 ESP12E-S1 13.10 13.07 99.90
16009 2019-10-19 22:28:51 ESP12E-S1 13.10 13.07 99.90
16008 2019-10-19 22:00:35 ESP12E-S1 13.10 13.07 99.90
16007 2019-10-19 21:32:18 ESP12E-S1 13.10 13.07 99.90
16006 2019-10-19 21:04:01 ESP12E-S1 13.30 13.29 99.90
16005 2019-10-19 20:35:45 ESP12E-S1 13.20 13.18 99.90
16004 2019-10-19 20:07:28 ESP12E-S1 13.20 13.18 99.90
16003 2019-10-19 19:39:12 ESP12E-S1 13.30 13.29 99.90
16002 2019-10-19 19:10:56 ESP12E-S1 13.40 13.40 99.90
16001 2019-10-19 18:42:51 ESP12E-S1 13.50 13.51 99.90
16000 2019-10-19 18:14:29 ESP12E-S1 13.50 13.51 99.90
15999 2019-10-19 17:46:13 ESP12E-S1 13.60 13.62 99.90
15998 2019-10-19 17:17:56 ESP12E-S1 13.70 13.73 99.90
15997 2019-10-19 16:49:40 ESP12E-S1 13.70 13.73 99.90
15996 2019-10-19 16:21:42 ESP12E-S1 13.70 13.73 99.90
15995 2019-10-19 15:53:17 ESP12E-S1 13.70 13.73 99.90
15994 2019-10-19 15:25:00 ESP12E-S1 13.50 13.51 99.90
15993 2019-10-19 14:56:44 ESP12E-S1 13.50 13.51 99.90
15992 2019-10-19 14:28:28 ESP12E-S1 13.50 13.51 99.90
15991 2019-10-19 14:00:22 ESP12E-S1 13.40 13.40 99.90
15990 2019-10-19 13:32:01 ESP12E-S1 13.20 13.18 99.90
15989 2019-10-19 13:03:43 ESP12E-S1 12.80 12.74 99.90
15988 2019-10-19 12:35:44 ESP12E-S1 12.50 12.41 99.90
15987 2019-10-19 12:07:16 ESP12E-S1 12.30 12.19 99.90
15986 2019-10-19 11:38:58 ESP12E-S1 12.10 11.97 99.90
15985 2019-10-19 11:10:40 ESP12E-S1 12.10 11.97 99.90
15984 2019-10-19 10:42:21 ESP12E-S1 12.00 11.86 99.90
15983 2019-10-19 10:14:02 ESP12E-S1 11.80 11.64 99.90
15982 2019-10-19 09:45:45 ESP12E-S1 11.50 11.31 99.90
15981 2019-10-19 09:17:26 ESP12E-S1 11.40 11.20 99.90
15980 2019-10-19 08:49:10 ESP12E-S1 11.30 11.09 99.90
15979 2019-10-19 08:20:53 ESP12E-S1 11.20 10.98 99.90
15978 2019-10-19 07:52:35 ESP12E-S1 11.10 10.87 99.90
15977 2019-10-19 07:24:18 ESP12E-S1 11.10 10.87 99.90
15976 2019-10-19 06:56:01 ESP12E-S1 11.00 10.76 99.90
15975 2019-10-19 06:27:43 ESP12E-S1 10.90 10.65 99.90
15974 2019-10-19 05:59:25 ESP12E-S1 10.80 10.54 99.90
15973 2019-10-19 05:31:08 ESP12E-S1 10.60 10.32 99.90
15972 2019-10-19 05:02:50 ESP12E-S1 10.50 10.21 99.90
15971 2019-10-19 04:34:32 ESP12E-S1 10.40 10.10 99.90
15970 2019-10-19 04:06:15 ESP12E-S1 10.30 9.99 99.90
15969 2019-10-19 03:37:57 ESP12E-S1 10.30 9.99 99.90
15968 2019-10-19 03:09:41 ESP12E-S1 10.40 10.10 99.90
15967 2019-10-19 02:41:24 ESP12E-S1 10.40 10.10 99.90
15966 2019-10-19 02:13:07 ESP12E-S1 10.40 10.10 99.90
15965 2019-10-19 01:44:50 ESP12E-S1 10.50 10.21 99.90
15964 2019-10-19 01:16:33 ESP12E-S1 10.50 10.21 99.90
15963 2019-10-19 00:48:16 ESP12E-S1 10.60 10.32 99.90
15962 2019-10-19 00:20:00 ESP12E-S1 10.60 10.32 99.90
15961 2019-10-18 23:51:44 ESP12E-S1 10.70 10.43 99.90
15960 2019-10-18 23:23:28 ESP12E-S1 10.70 10.43 99.90
15959 2019-10-18 22:55:11 ESP12E-S1 10.80 10.54 99.90
15958 2019-10-18 22:26:56 ESP12E-S1 10.90 10.65 99.90
15957 2019-10-18 21:58:40 ESP12E-S1 11.00 10.76 99.90
15956 2019-10-18 21:30:25 ESP12E-S1 11.10 10.87 99.90
15955 2019-10-18 21:02:08 ESP12E-S1 11.30 11.09 99.90
15954 2019-10-18 20:33:52 ESP12E-S1 11.60 11.42 99.90
15953 2019-10-18 20:05:37 ESP12E-S1 11.90 11.75 99.90
15952 2019-10-18 19:37:21 ESP12E-S1 12.20 12.08 99.90
15951 2019-10-18 19:09:08 ESP12E-S1 12.80 12.74 99.90
15950 2019-10-18 18:40:55 ESP12E-S1 13.40 13.40 99.90
15949 2019-10-18 18:12:42 ESP12E-S1 14.20 14.28 99.90
15948 2019-10-18 17:44:30 ESP12E-S1 15.20 15.26 95.20
15947 2019-10-18 17:16:29 ESP12E-S1 17.20 17.19 84.80
15946 2019-10-18 16:47:59 ESP12E-S1 16.90 17.13 95.30
15945 2019-10-18 16:19:47 ESP12E-S1 19.20 19.63 94.00
15944 2019-10-18 15:51:35 ESP12E-S1 17.00 17.36 99.90
15943 2019-10-18 15:23:08 ESP12E-S1 15.30 15.49 99.90
15942 2019-10-18 14:54:51 ESP12E-S1 14.70 14.83 99.90
15941 2019-10-18 14:26:37 ESP12E-S1 15.20 15.38 99.90
15940 2019-10-18 13:58:13 ESP12E-S1 14.60 14.72 99.90
15939 2019-10-18 13:29:56 ESP12E-S1 14.30 14.39 99.90
15938 2019-10-18 13:01:38 ESP12E-S1 14.30 14.39 99.90
15937 2019-10-18 12:33:20 ESP12E-S1 14.10 14.17 99.90
15936 2019-10-18 12:05:02 ESP12E-S1 13.90 13.95 99.90
15935 2019-10-18 11:36:45 ESP12E-S1 13.80 13.84 99.90
15934 2019-10-18 11:08:28 ESP12E-S1 13.60 13.62 99.90
15933 2019-10-18 10:40:11 ESP12E-S1 13.40 13.40 99.90
15932 2019-10-18 10:11:53 ESP12E-S1 13.30 13.29 99.90
15931 2019-10-18 09:43:37 ESP12E-S1 13.30 13.29 99.90
15930 2019-10-18 09:15:21 ESP12E-S1 13.30 13.29 99.90
15929 2019-10-18 08:47:05 ESP12E-S1 13.20 13.18 99.90
15928 2019-10-18 08:18:50 ESP12E-S1 13.20 13.18 99.90
15927 2019-10-18 07:50:32 ESP12E-S1 13.10 13.07 99.90
15926 2019-10-18 07:22:14 ESP12E-S1 13.10 13.07 99.90
15925 2019-10-18 06:53:58 ESP12E-S1 13.10 13.07 99.90
15924 2019-10-18 06:25:42 ESP12E-S1 13.10 13.07 99.90
15923 2019-10-18 05:57:26 ESP12E-S1 13.10 13.07 99.90
15922 2019-10-18 05:29:09 ESP12E-S1 13.10 13.07 99.90
15921 2019-10-18 05:00:51 ESP12E-S1 13.10 13.07 99.90
15920 2019-10-18 04:32:45 ESP12E-S1 13.10 13.07 99.90
15919 2019-10-18 04:04:26 ESP12E-S1 13.10 13.07 99.90
15918 2019-10-18 03:36:12 ESP12E-S1 13.20 13.18 99.90
15917 2019-10-18 03:07:55 ESP12E-S1 13.20 13.18 99.90
15916 2019-10-18 02:39:38 ESP12E-S1 13.30 13.29 99.90
15915 2019-10-18 02:11:22 ESP12E-S1 13.30 13.29 99.90
15914 2019-10-18 01:43:07 ESP12E-S1 13.30 13.29 99.90
15913 2019-10-18 01:14:50 ESP12E-S1 13.40 13.40 99.90
15912 2019-10-18 00:46:34 ESP12E-S1 13.40 13.40 99.90
15911 2019-10-18 00:18:17 ESP12E-S1 13.40 13.40 99.90
15910 2019-10-17 23:50:01 ESP12E-S1 13.40 13.40 99.90
15909 2019-10-17 23:21:45 ESP12E-S1 13.40 13.40 99.90
15908 2019-10-17 22:53:28 ESP12E-S1 13.40 13.40 99.90
15907 2019-10-17 22:25:11 ESP12E-S1 13.40 13.40 99.90
15906 2019-10-17 21:56:54 ESP12E-S1 13.50 13.51 99.90
15905 2019-10-17 21:28:38 ESP12E-S1 13.50 13.51 99.90
15904 2019-10-17 21:00:22 ESP12E-S1 13.50 13.51 99.90
15903 2019-10-17 20:32:05 ESP12E-S1 13.50 13.51 99.90
15902 2019-10-17 20:03:48 ESP12E-S1 13.60 13.62 99.90
15901 2019-10-17 19:35:31 ESP12E-S1 13.60 13.62 99.90
15900 2019-10-17 19:07:15 ESP12E-S1 13.70 13.73 99.90
15899 2019-10-17 18:38:59 ESP12E-S1 13.70 13.73 99.90
15898 2019-10-17 18:10:42 ESP12E-S1 13.80 13.84 99.90
15897 2019-10-17 17:42:26 ESP12E-S1 13.90 13.95 99.90
15896 2019-10-17 17:14:13 ESP12E-S1 14.00 14.06 99.90
15895 2019-10-17 16:45:56 ESP12E-S1 14.10 14.17 99.90
15894 2019-10-17 16:17:40 ESP12E-S1 14.00 14.06 99.90
15893 2019-10-17 15:49:22 ESP12E-S1 13.90 13.95 99.90
15892 2019-10-17 15:21:06 ESP12E-S1 14.00 14.06 99.90
15891 2019-10-17 14:52:49 ESP12E-S1 14.10 14.17 99.90
15890 2019-10-17 14:24:32 ESP12E-S1 14.20 14.28 99.90
15889 2019-10-17 13:56:14 ESP12E-S1 13.90 13.95 99.90
15888 2019-10-17 13:27:55 ESP12E-S1 13.60 13.62 99.90
15887 2019-10-17 12:59:36 ESP12E-S1 13.30 13.29 99.90
15886 2019-10-17 12:31:18 ESP12E-S1 12.90 12.85 99.90
15885 2019-10-17 12:03:01 ESP12E-S1 12.70 12.63 99.90
15884 2019-10-17 11:34:42 ESP12E-S1 12.50 12.41 99.90
15883 2019-10-17 11:06:25 ESP12E-S1 12.40 12.30 99.90
15882 2019-10-17 10:38:07 ESP12E-S1 12.30 12.19 99.90
15881 2019-10-17 10:09:49 ESP12E-S1 12.20 12.08 99.90
15880 2019-10-17 09:41:31 ESP12E-S1 12.10 11.97 99.90
15879 2019-10-17 09:13:14 ESP12E-S1 11.90 11.75 99.90
15878 2019-10-17 08:44:56 ESP12E-S1 11.90 11.75 99.90
15877 2019-10-17 08:16:40 ESP12E-S1 11.90 11.75 99.90
15876 2019-10-17 07:48:24 ESP12E-S1 11.80 11.64 99.90
15875 2019-10-17 07:20:07 ESP12E-S1 11.90 11.75 99.90
15874 2019-10-17 06:51:51 ESP12E-S1 11.90 11.75 99.90
15873 2019-10-17 06:23:35 ESP12E-S1 11.90 11.75 99.90
15872 2019-10-17 05:55:19 ESP12E-S1 11.80 11.64 99.90
15871 2019-10-17 05:27:03 ESP12E-S1 11.90 11.75 99.90
15870 2019-10-17 04:58:46 ESP12E-S1 11.90 11.75 99.90
15869 2019-10-17 04:30:29 ESP12E-S1 12.00 11.86 99.90
15868 2019-10-17 04:02:14 ESP12E-S1 12.00 11.86 99.90
15867 2019-10-17 03:33:58 ESP12E-S1 12.10 11.97 99.90
15866 2019-10-17 03:05:42 ESP12E-S1 12.10 11.97 99.90
15865 2019-10-17 02:37:34 ESP12E-S1 12.10 11.97 99.90
15864 2019-10-17 02:09:14 ESP12E-S1 12.10 11.97 99.90
15863 2019-10-17 01:40:58 ESP12E-S1 12.10 11.97 99.90
15862 2019-10-17 01:12:42 ESP12E-S1 12.20 12.08 99.90
15861 2019-10-17 00:44:25 ESP12E-S1 12.20 12.08 99.90
15860 2019-10-17 00:16:11 ESP12E-S1 12.30 12.19 99.90
15859 2019-10-16 23:47:54 ESP12E-S1 12.30 12.19 99.90
15858 2019-10-16 23:19:38 ESP12E-S1 12.30 12.19 99.90
15857 2019-10-16 22:51:22 ESP12E-S1 12.40 12.30 99.90
15856 2019-10-16 22:23:05 ESP12E-S1 12.40 12.30 99.90
15855 2019-10-16 21:54:51 ESP12E-S1 12.60 12.52 99.90
15854 2019-10-16 21:26:34 ESP12E-S1 12.70 12.63 99.90
15853 2019-10-16 20:58:18 ESP12E-S1 12.80 12.74 99.90
15852 2019-10-16 20:30:02 ESP12E-S1 12.80 12.74 99.90
15851 2019-10-16 20:01:46 ESP12E-S1 12.80 12.74 99.90
15850 2019-10-16 19:33:30 ESP12E-S1 12.80 12.74 99.90
15849 2019-10-16 19:05:13 ESP12E-S1 12.70 12.63 99.90
15848 2019-10-16 18:36:58 ESP12E-S1 12.80 12.74 99.90
15847 2019-10-16 18:08:40 ESP12E-S1 12.80 12.74 99.90
15846 2019-10-16 17:40:22 ESP12E-S1 12.70 12.63 99.90
15845 2019-10-16 17:12:07 ESP12E-S1 12.70 12.63 99.90
15844 2019-10-16 16:43:50 ESP12E-S1 12.60 12.52 99.90
15843 2019-10-16 16:15:34 ESP12E-S1 12.50 12.41 99.90
15842 2019-10-16 15:47:17 ESP12E-S1 12.40 12.30 99.90
15841 2019-10-16 15:19:00 ESP12E-S1 12.30 12.19 99.90
15840 2019-10-16 14:50:42 ESP12E-S1 12.30 12.19 99.90
15839 2019-10-16 14:22:28 ESP12E-S1 12.40 12.30 99.90
15838 2019-10-16 13:54:12 ESP12E-S1 12.40 12.30 99.90
15837 2019-10-16 13:25:55 ESP12E-S1 12.30 12.19 99.90
15836 2019-10-16 12:57:40 ESP12E-S1 12.20 12.08 99.90
15835 2019-10-16 12:29:23 ESP12E-S1 12.10 11.97 99.90
15834 2019-10-16 12:01:06 ESP12E-S1 12.10 11.97 99.90
15833 2019-10-16 11:32:51 ESP12E-S1 12.10 11.97 99.90
15832 2019-10-16 11:04:35 ESP12E-S1 12.20 12.08 99.90
15831 2019-10-16 10:36:18 ESP12E-S1 12.10 11.97 99.90
15830 2019-10-16 10:08:01 ESP12E-S1 12.00 11.86 99.90
15829 2019-10-16 09:39:50 ESP12E-S1 11.90 11.75 99.90
15828 2019-10-16 09:11:32 ESP12E-S1 11.80 11.64 99.90
15827 2019-10-16 08:43:14 ESP12E-S1 11.60 11.42 99.90
15826 2019-10-16 08:14:58 ESP12E-S1 11.70 11.53 99.90
15825 2019-10-16 07:46:42 ESP12E-S1 11.70 11.53 99.90
15824 2019-10-16 07:18:26 ESP12E-S1 11.80 11.64 99.90
15823 2019-10-16 06:50:12 ESP12E-S1 11.90 11.75 99.90
15822 2019-10-16 06:21:56 ESP12E-S1 11.90 11.75 99.90
15821 2019-10-16 05:53:40 ESP12E-S1 12.00 11.86 99.90
15820 2019-10-16 05:25:26 ESP12E-S1 12.10 11.97 99.90
15819 2019-10-16 04:57:12 ESP12E-S1 12.20 12.08 99.90
15818 2019-10-16 04:28:54 ESP12E-S1 12.20 12.08 99.90
15817 2019-10-16 04:00:39 ESP12E-S1 12.30 12.19 99.90
15816 2019-10-16 03:32:24 ESP12E-S1 12.40 12.30 99.90
15815 2019-10-16 03:04:09 ESP12E-S1 12.50 12.41 99.90
15814 2019-10-16 02:36:02 ESP12E-S1 12.60 12.52 99.90
15813 2019-10-16 02:07:44 ESP12E-S1 12.70 12.63 99.90
15812 2019-10-16 01:39:36 ESP12E-S1 12.90 12.85 99.90
15811 2019-10-16 01:11:20 ESP12E-S1 13.10 13.07 99.90
15810 2019-10-16 00:43:07 ESP12E-S1 13.60 13.62 99.90
15809 2019-10-16 00:14:53 ESP12E-S1 14.10 14.17 99.90
15808 2019-10-15 23:46:38 ESP12E-S1 14.20 14.28 99.90
15807 2019-10-15 23:18:29 ESP12E-S1 14.30 14.39 99.90
15806 2019-10-15 22:50:20 ESP12E-S1 14.40 14.50 99.90
15805 2019-10-15 22:22:02 ESP12E-S1 14.60 14.72 99.90
15804 2019-10-15 21:53:47 ESP12E-S1 14.80 14.94 99.90
15803 2019-10-15 21:25:32 ESP12E-S1 15.00 15.16 99.90
15802 2019-10-15 20:57:17 ESP12E-S1 15.20 15.38 99.90
15801 2019-10-15 20:29:03 ESP12E-S1 15.50 15.71 99.90
15800 2019-10-15 20:00:48 ESP12E-S1 15.80 16.04 99.90
15799 2019-10-15 19:32:34 ESP12E-S1 15.90 16.15 99.90
15798 2019-10-15 19:04:25 ESP12E-S1 16.30 16.59 99.90
15797 2019-10-15 18:36:07 ESP12E-S1 16.70 17.03 99.90
15796 2019-10-15 18:07:53 ESP12E-S1 17.10 17.47 99.90
15795 2019-10-15 17:39:38 ESP12E-S1 17.40 17.80 99.90
15794 2019-10-15 17:11:23 ESP12E-S1 17.70 18.13 99.90
15793 2019-10-15 16:43:08 ESP12E-S1 17.90 18.35 99.90
15792 2019-10-15 16:14:54 ESP12E-S1 18.40 18.90 99.90
15791 2019-10-15 15:46:39 ESP12E-S1 18.70 19.23 99.90
15790 2019-10-15 15:18:34 ESP12E-S1 18.90 19.45 99.90
15789 2019-10-15 14:50:15 ESP12E-S1 19.00 19.56 99.90
15788 2019-10-15 14:21:57 ESP12E-S1 18.90 19.45 99.90
15787 2019-10-15 13:53:42 ESP12E-S1 19.10 19.67 99.90
15786 2019-10-15 13:25:24 ESP12E-S1 19.10 19.67 99.90
15785 2019-10-15 12:57:08 ESP12E-S1 19.30 19.89 99.90
15784 2019-10-15 12:28:56 ESP12E-S1 19.70 20.33 99.90
15783 2019-10-15 12:00:41 ESP12E-S1 20.00 20.66 99.90
15782 2019-10-15 11:32:20 ESP12E-S1 19.40 20.00 99.90
15781 2019-10-15 11:03:58 ESP12E-S1 18.50 19.01 99.90
15780 2019-10-15 10:35:41 ESP12E-S1 17.40 17.80 99.90
15779 2019-10-15 10:07:17 ESP12E-S1 16.20 16.48 99.90
15778 2019-10-15 09:38:59 ESP12E-S1 15.80 16.04 99.90
15777 2019-10-15 09:10:40 ESP12E-S1 15.30 15.49 99.90
15776 2019-10-15 08:42:31 ESP12E-S1 15.00 15.16 99.90
15775 2019-10-15 08:14:11 ESP12E-S1 14.80 14.94 99.90
15774 2019-10-15 07:45:55 ESP12E-S1 14.80 14.94 99.90
15773 2019-10-15 07:17:39 ESP12E-S1 14.70 14.83 99.90
15772 2019-10-15 06:49:25 ESP12E-S1 14.80 14.94 99.90
15771 2019-10-15 06:21:18 ESP12E-S1 14.90 15.05 99.90
15770 2019-10-15 05:53:01 ESP12E-S1 15.00 15.16 99.90
15769 2019-10-15 05:24:52 ESP12E-S1 15.10 15.27 99.90
15768 2019-10-15 04:56:44 ESP12E-S1 15.20 15.38 99.90
15767 2019-10-15 04:28:25 ESP12E-S1 15.30 15.49 99.90
15766 2019-10-15 04:00:10 ESP12E-S1 15.40 15.60 99.90
15765 2019-10-15 03:31:55 ESP12E-S1 15.50 15.71 99.90
15764 2019-10-15 03:03:41 ESP12E-S1 15.60 15.82 99.90
15763 2019-10-15 02:35:33 ESP12E-S1 15.80 16.04 99.90
15762 2019-10-15 02:07:18 ESP12E-S1 16.10 16.37 99.90
15761 2019-10-15 01:39:03 ESP12E-S1 16.30 16.59 99.90
15760 2019-10-15 01:10:51 ESP12E-S1 16.60 16.92 99.90
15759 2019-10-15 00:42:36 ESP12E-S1 16.80 17.14 99.90
15758 2019-10-15 00:14:21 ESP12E-S1 17.00 17.36 99.90
15757 2019-10-14 23:46:08 ESP12E-S1 17.30 17.69 99.90
15756 2019-10-14 23:18:03 ESP12E-S1 17.40 17.80 99.90
15755 2019-10-14 22:49:45 ESP12E-S1 17.70 18.13 99.90
15754 2019-10-14 22:21:30 ESP12E-S1 17.90 18.35 99.90
15753 2019-10-14 21:53:16 ESP12E-S1 18.20 18.68 99.90
15752 2019-10-14 21:25:03 ESP12E-S1 18.50 19.01 99.90
15751 2019-10-14 20:56:48 ESP12E-S1 18.80 19.30 98.30
15750 2019-10-14 20:28:32 ESP12E-S1 19.20 19.70 96.60
15749 2019-10-14 20:00:19 ESP12E-S1 19.60 20.04 92.70
15748 2019-10-14 19:32:06 ESP12E-S1 20.00 20.32 86.60
15747 2019-10-14 19:03:55 ESP12E-S1 20.90 21.07 77.70
15746 2019-10-14 18:35:46 ESP12E-S1 22.10 22.21 70.50
15745 2019-10-14 18:07:40 ESP12E-S1 23.80 23.87 62.70
15744 2019-10-14 17:39:41 ESP12E-S1 26.00 26.08 54.70
15743 2019-10-14 17:12:17 ESP12E-S1 33.20 35.57 46.00
15742 2019-10-14 16:44:05 ESP12E-S1 35.30 39.87 46.10
15741 2019-10-14 16:15:35 ESP12E-S1 34.40 39.00 49.20
15740 2019-10-14 15:46:20 ESP12E-S1 29.70 31.80 57.40
15739 2019-10-14 15:17:54 ESP12E-S1 25.60 26.05 70.40
15738 2019-10-14 14:49:32 ESP12E-S1 24.20 24.68 76.80
15737 2019-10-14 14:21:11 ESP12E-S1 23.50 24.03 81.20
15736 2019-10-14 13:52:50 ESP12E-S1 22.80 23.31 83.40
15735 2019-10-14 13:24:28 ESP12E-S1 22.30 22.99 92.00
15734 2019-10-14 12:56:10 ESP12E-S1 22.00 22.84 99.00
15733 2019-10-14 12:27:37 ESP12E-S1 21.40 22.20 99.90
15732 2019-10-14 11:59:10 ESP12E-S1 19.30 19.89 99.90
15731 2019-10-14 11:30:48 ESP12E-S1 18.40 18.90 99.90
15730 2019-10-14 11:02:25 ESP12E-S1 17.60 18.02 99.90
15729 2019-10-14 10:34:03 ESP12E-S1 16.70 17.03 99.90
15728 2019-10-14 10:05:41 ESP12E-S1 15.70 15.93 99.90
15727 2019-10-14 09:37:21 ESP12E-S1 15.00 15.16 99.90
15726 2019-10-14 09:09:03 ESP12E-S1 14.60 14.72 99.90
15725 2019-10-14 08:40:45 ESP12E-S1 14.40 14.50 99.90
15724 2019-10-14 08:12:29 ESP12E-S1 14.20 14.28 99.90
15723 2019-10-14 07:44:12 ESP12E-S1 14.20 14.28 99.90
15722 2019-10-14 07:15:55 ESP12E-S1 14.20 14.28 99.90
15721 2019-10-14 06:47:40 ESP12E-S1 14.30 14.39 99.90
15720 2019-10-14 06:19:25 ESP12E-S1 14.40 14.50 99.90
15719 2019-10-14 05:51:10 ESP12E-S1 14.50 14.61 99.90
15718 2019-10-14 05:22:55 ESP12E-S1 14.80 14.94 99.90
15717 2019-10-14 04:54:39 ESP12E-S1 15.00 15.16 99.90
15716 2019-10-14 04:26:23 ESP12E-S1 15.10 15.27 99.90
15715 2019-10-14 03:58:05 ESP12E-S1 15.30 15.49 99.90
15714 2019-10-14 03:29:49 ESP12E-S1 15.30 15.49 99.90
15713 2019-10-14 03:01:34 ESP12E-S1 15.40 15.60 99.90
15712 2019-10-14 02:33:18 ESP12E-S1 15.70 15.93 99.90
15711 2019-10-14 02:05:02 ESP12E-S1 15.90 16.15 99.90
15710 2019-10-14 01:36:46 ESP12E-S1 16.10 16.37 99.90
15709 2019-10-14 01:08:30 ESP12E-S1 16.20 16.48 99.90
15708 2019-10-14 00:40:14 ESP12E-S1 16.50 16.81 99.90
15707 2019-10-14 00:11:58 ESP12E-S1 16.80 17.14 99.90
15706 2019-10-13 23:43:42 ESP12E-S1 17.00 17.36 99.90
15705 2019-10-13 23:15:26 ESP12E-S1 17.40 17.80 99.90
15704 2019-10-13 22:47:10 ESP12E-S1 17.50 17.91 99.90
15703 2019-10-13 22:18:56 ESP12E-S1 17.80 18.24 99.90
15702 2019-10-13 21:50:41 ESP12E-S1 18.00 18.46 99.90
15701 2019-10-13 21:22:25 ESP12E-S1 18.30 18.79 99.90
15700 2019-10-13 20:54:12 ESP12E-S1 18.60 19.12 99.90
15699 2019-10-13 20:25:56 ESP12E-S1 19.00 19.56 99.90
15698 2019-10-13 19:57:42 ESP12E-S1 19.30 19.89 99.90
15697 2019-10-13 19:29:29 ESP12E-S1 19.90 20.55 99.90
15696 2019-10-13 19:01:17 ESP12E-S1 20.90 21.65 99.90
15695 2019-10-13 18:33:08 ESP12E-S1 22.30 23.06 94.70
15694 2019-10-13 18:05:02 ESP12E-S1 23.90 24.41 79.10
15693 2019-10-13 17:37:02 ESP12E-S1 26.20 27.37 65.10
15692 2019-10-13 17:09:29 ESP12E-S1 33.30 37.68 52.50
15691 2019-10-13 16:41:19 ESP12E-S1 35.00 40.91 50.60
15690 2019-10-13 16:12:48 ESP12E-S1 33.80 40.25 56.50
15689 2019-10-13 15:43:29 ESP12E-S1 27.90 30.62 71.10
15688 2019-10-13 15:15:05 ESP12E-S1 25.30 26.32 91.50
15687 2019-10-13 14:46:42 ESP12E-S1 23.80 24.84 99.90
15686 2019-10-13 14:18:19 ESP12E-S1 22.90 23.85 99.90
15685 2019-10-13 13:50:00 ESP12E-S1 21.90 22.75 99.90
15684 2019-10-13 13:21:39 ESP12E-S1 21.60 22.42 99.90
15683 2019-10-13 12:53:24 ESP12E-S1 21.00 21.76 99.90
15682 2019-10-13 12:24:47 ESP12E-S1 20.20 20.88 99.90
15681 2019-10-13 11:56:18 ESP12E-S1 17.90 18.35 99.90
15680 2019-10-13 11:27:59 ESP12E-S1 17.20 17.58 99.90
15679 2019-10-13 10:59:40 ESP12E-S1 16.60 16.92 99.90
15678 2019-10-13 10:31:19 ESP12E-S1 16.00 16.26 99.90
15677 2019-10-13 10:02:56 ESP12E-S1 15.20 15.38 99.90
15676 2019-10-13 09:34:34 ESP12E-S1 14.40 14.50 99.90
15675 2019-10-13 09:06:15 ESP12E-S1 13.90 13.95 99.90
15674 2019-10-13 08:37:57 ESP12E-S1 13.80 13.84 99.90
15673 2019-10-13 08:09:41 ESP12E-S1 13.80 13.84 99.90
15672 2019-10-13 07:41:26 ESP12E-S1 13.90 13.95 99.90
15671 2019-10-13 07:13:10 ESP12E-S1 13.90 13.95 99.90
15670 2019-10-13 06:44:54 ESP12E-S1 14.10 14.17 99.90
15669 2019-10-13 06:16:38 ESP12E-S1 14.10 14.17 99.90
15668 2019-10-13 05:48:22 ESP12E-S1 14.10 14.17 99.90
15667 2019-10-13 05:20:07 ESP12E-S1 14.20 14.28 99.90
15666 2019-10-13 04:51:52 ESP12E-S1 14.40 14.50 99.90
15665 2019-10-13 04:23:36 ESP12E-S1 14.60 14.72 99.90
15664 2019-10-13 03:55:21 ESP12E-S1 14.60 14.72 99.90
15663 2019-10-13 03:27:05 ESP12E-S1 14.80 14.94 99.90
15662 2019-10-13 02:58:50 ESP12E-S1 14.90 15.05 99.90
15661 2019-10-13 02:30:33 ESP12E-S1 15.10 15.27 99.90
15660 2019-10-13 02:02:17 ESP12E-S1 15.10 15.27 99.90
15659 2019-10-13 01:34:01 ESP12E-S1 15.20 15.38 99.90
15658 2019-10-13 01:05:45 ESP12E-S1 15.40 15.60 99.90
15657 2019-10-13 00:37:28 ESP12E-S1 15.50 15.71 99.90
15656 2019-10-13 00:09:11 ESP12E-S1 15.60 15.82 99.90
15655 2019-10-12 23:40:53 ESP12E-S1 15.50 15.71 99.90
15654 2019-10-12 23:12:37 ESP12E-S1 15.30 15.49 99.90
15653 2019-10-12 22:44:33 ESP12E-S1 15.30 15.49 99.90
15652 2019-10-12 22:16:14 ESP12E-S1 15.50 15.71 99.90
15651 2019-10-12 21:47:59 ESP12E-S1 15.50 15.71 99.90
15650 2019-10-12 21:19:43 ESP12E-S1 15.70 15.93 99.90
15649 2019-10-12 20:51:28 ESP12E-S1 15.80 16.04 99.90
15648 2019-10-12 20:23:13 ESP12E-S1 16.00 16.26 99.90
15647 2019-10-12 19:54:58 ESP12E-S1 16.30 16.59 99.90
15646 2019-10-12 19:26:44 ESP12E-S1 16.70 17.03 99.90
15645 2019-10-12 18:58:28 ESP12E-S1 16.90 17.25 99.90
15644 2019-10-12 18:30:12 ESP12E-S1 17.20 17.58 99.90
15643 2019-10-12 18:01:57 ESP12E-S1 17.50 17.91 99.90
15642 2019-10-12 17:33:41 ESP12E-S1 17.80 18.24 99.90
15641 2019-10-12 17:05:27 ESP12E-S1 18.10 18.57 99.90
15640 2019-10-12 16:37:12 ESP12E-S1 18.50 19.01 99.90
15639 2019-10-12 16:08:59 ESP12E-S1 19.10 19.67 99.90
15638 2019-10-12 15:40:50 ESP12E-S1 20.40 20.97 94.80
15637 2019-10-12 15:12:37 ESP12E-S1 22.30 22.96 90.80
15636 2019-10-12 14:44:13 ESP12E-S1 21.30 22.07 98.90
15635 2019-10-12 14:15:52 ESP12E-S1 20.30 20.99 99.90
15634 2019-10-12 13:47:31 ESP12E-S1 19.80 20.44 99.90
15633 2019-10-12 13:19:13 ESP12E-S1 19.30 19.89 99.90
15632 2019-10-12 12:51:00 ESP12E-S1 19.00 19.56 99.90
15631 2019-10-12 12:22:19 ESP12E-S1 17.30 17.69 99.90
15630 2019-10-12 11:53:54 ESP12E-S1 15.30 15.49 99.90
15629 2019-10-12 11:25:34 ESP12E-S1 14.30 14.39 99.90
15628 2019-10-12 10:57:13 ESP12E-S1 13.40 13.40 99.90
15627 2019-10-12 10:28:53 ESP12E-S1 12.20 12.08 99.90
15626 2019-10-12 10:00:30 ESP12E-S1 11.30 11.09 99.90
15625 2019-10-12 09:32:08 ESP12E-S1 10.40 10.10 99.90
15624 2019-10-12 09:03:48 ESP12E-S1 9.80 9.44 99.90
15623 2019-10-12 08:35:32 ESP12E-S1 9.60 9.22 99.90
15622 2019-10-12 08:07:17 ESP12E-S1 9.60 9.22 99.90
15621 2019-10-12 07:39:01 ESP12E-S1 9.50 9.11 99.90
15620 2019-10-12 07:10:45 ESP12E-S1 9.60 9.22 99.90
15619 2019-10-12 06:42:31 ESP12E-S1 9.70 9.33 99.90
15618 2019-10-12 06:14:15 ESP12E-S1 9.80 9.44 99.90
15617 2019-10-12 05:46:01 ESP12E-S1 9.90 9.55 99.90
15616 2019-10-12 05:17:45 ESP12E-S1 9.80 9.44 99.90
15615 2019-10-12 04:49:31 ESP12E-S1 10.00 9.66 99.90
15614 2019-10-12 04:21:17 ESP12E-S1 10.20 9.88 99.90
15613 2019-10-12 03:53:02 ESP12E-S1 10.30 9.99 99.90
15612 2019-10-12 03:24:45 ESP12E-S1 10.40 10.10 99.90
15611 2019-10-12 02:56:31 ESP12E-S1 10.60 10.32 99.90
15610 2019-10-12 02:28:16 ESP12E-S1 10.70 10.43 99.90
15609 2019-10-12 02:00:03 ESP12E-S1 10.90 10.65 99.90
15608 2019-10-12 01:31:48 ESP12E-S1 11.00 10.76 99.90
15607 2019-10-12 01:03:34 ESP12E-S1 11.20 10.98 99.90
15606 2019-10-12 00:35:19 ESP12E-S1 11.50 11.31 99.90
15605 2019-10-12 00:07:03 ESP12E-S1 11.70 11.53 99.90
15604 2019-10-11 23:38:48 ESP12E-S1 11.90 11.75 99.90
15603 2019-10-11 23:10:33 ESP12E-S1 12.20 12.08 99.90
15602 2019-10-11 22:42:19 ESP12E-S1 12.40 12.30 99.90
15601 2019-10-11 22:14:04 ESP12E-S1 12.70 12.63 99.90
15600 2019-10-11 21:45:47 ESP12E-S1 12.90 12.85 99.90
15599 2019-10-11 21:17:32 ESP12E-S1 13.10 13.07 99.90
15598 2019-10-11 20:49:16 ESP12E-S1 13.20 13.18 99.90
15597 2019-10-11 20:21:00 ESP12E-S1 13.30 13.29 99.90
15596 2019-10-11 19:52:43 ESP12E-S1 13.30 13.29 99.90
15595 2019-10-11 19:24:28 ESP12E-S1 13.40 13.40 99.90
15594 2019-10-11 18:56:13 ESP12E-S1 13.70 13.73 99.90
15593 2019-10-11 18:27:57 ESP12E-S1 13.90 13.95 99.90
15592 2019-10-11 17:59:42 ESP12E-S1 14.10 14.17 99.90
15591 2019-10-11 17:31:27 ESP12E-S1 14.30 14.39 99.90
15590 2019-10-11 17:03:09 ESP12E-S1 14.30 14.39 99.90
15589 2019-10-11 16:34:56 ESP12E-S1 14.60 14.72 99.90
15588 2019-10-11 16:06:50 ESP12E-S1 16.10 16.37 99.90
15587 2019-10-11 15:38:10 ESP12E-S1 13.80 13.84 99.90
15586 2019-10-11 15:09:52 ESP12E-S1 13.10 13.07 99.90
15585 2019-10-11 14:41:36 ESP12E-S1 12.60 12.52 99.90
15584 2019-10-11 14:13:15 ESP12E-S1 12.10 11.97 99.90
15583 2019-10-11 13:44:56 ESP12E-S1 11.60 11.42 99.90
15582 2019-10-11 13:16:41 ESP12E-S1 11.60 11.42 99.90
15581 2019-10-11 12:48:28 ESP12E-S1 11.50 11.31 99.90
15580 2019-10-11 12:20:11 ESP12E-S1 11.40 11.20 99.90
15579 2019-10-11 11:51:51 ESP12E-S1 10.70 10.43 99.90
15578 2019-10-11 11:23:34 ESP12E-S1 10.40 10.10 99.90
15577 2019-10-11 10:55:18 ESP12E-S1 10.30 9.99 99.90
15576 2019-10-11 10:26:59 ESP12E-S1 10.10 9.77 99.90
15575 2019-10-11 09:58:43 ESP12E-S1 9.90 9.55 99.90
15574 2019-10-11 09:30:25 ESP12E-S1 9.70 9.33 99.90
15573 2019-10-11 09:02:10 ESP12E-S1 9.50 9.11 99.90
15572 2019-10-11 08:33:53 ESP12E-S1 9.40 9.00 99.90
15571 2019-10-11 08:05:38 ESP12E-S1 9.30 8.89 99.90
15570 2019-10-11 07:38:05 ESP12E-S1 9.20 8.78 99.90
15569 2019-10-11 07:09:21 ESP12E-S1 9.00 8.56 99.90
15568 2019-10-11 06:41:06 ESP12E-S1 8.90 8.45 99.90
15567 2019-10-11 06:12:49 ESP12E-S1 8.70 8.23 99.90
15566 2019-10-11 05:44:33 ESP12E-S1 8.60 8.12 99.90
15565 2019-10-11 05:16:19 ESP12E-S1 8.60 8.12 99.90
15564 2019-10-11 04:48:03 ESP12E-S1 8.80 8.34 99.90
15563 2019-10-11 04:19:48 ESP12E-S1 8.80 8.34 99.90
15562 2019-10-11 03:51:35 ESP12E-S1 9.00 8.56 99.90
15561 2019-10-11 03:23:21 ESP12E-S1 9.30 8.89 99.90
15560 2019-10-11 02:55:09 ESP12E-S1 9.40 9.00 99.90
15559 2019-10-11 02:26:53 ESP12E-S1 9.50 9.11 99.90
15558 2019-10-11 01:58:41 ESP12E-S1 9.50 9.11 99.90
15557 2019-10-11 01:30:27 ESP12E-S1 9.70 9.33 99.90
15556 2019-10-11 01:02:15 ESP12E-S1 9.80 9.44 99.90
15555 2019-10-11 00:34:07 ESP12E-S1 10.00 9.66 99.90
15554 2019-10-11 00:05:51 ESP12E-S1 10.20 9.88 99.90
15553 2019-10-10 23:37:37 ESP12E-S1 10.40 10.10 99.90
15552 2019-10-10 23:09:32 ESP12E-S1 10.60 10.32 99.90
15551 2019-10-10 22:41:16 ESP12E-S1 11.00 10.76 99.90
15550 2019-10-10 22:13:03 ESP12E-S1 11.20 10.98 99.90
15549 2019-10-10 21:44:49 ESP12E-S1 11.50 11.31 99.90
15548 2019-10-10 21:16:35 ESP12E-S1 11.80 11.64 99.90
15547 2019-10-10 20:48:22 ESP12E-S1 12.10 11.97 99.90
15546 2019-10-10 20:20:07 ESP12E-S1 12.50 12.41 99.90
15545 2019-10-10 19:51:53 ESP12E-S1 12.90 12.85 99.90
15544 2019-10-10 19:23:41 ESP12E-S1 13.20 13.18 99.90
15543 2019-10-10 18:55:28 ESP12E-S1 13.70 13.73 99.90
15542 2019-10-10 18:27:18 ESP12E-S1 14.60 14.56 93.50
15541 2019-10-10 17:59:12 ESP12E-S1 16.00 15.53 71.80
15540 2019-10-10 17:31:16 ESP12E-S1 18.70 18.23 61.40
15539 2019-10-10 17:03:15 ESP12E-S1 24.60 24.49 52.50
15538 2019-10-10 16:34:03 ESP12E-S1 19.90 19.76 69.40
15537 2019-10-10 16:06:32 ESP12E-S1 22.30 22.29 65.10
15536 2019-10-10 15:37:50 ESP12E-S1 17.60 17.78 90.60
15535 2019-10-10 15:09:32 ESP12E-S1 15.60 15.78 98.40
15534 2019-10-10 14:41:16 ESP12E-S1 15.30 15.48 99.40
15533 2019-10-10 14:12:55 ESP12E-S1 14.90 15.05 99.90
15532 2019-10-10 13:44:35 ESP12E-S1 13.80 13.84 99.90
15531 2019-10-10 13:16:23 ESP12E-S1 13.30 13.29 99.90
15530 2019-10-10 12:47:59 ESP12E-S1 12.80 12.74 99.90
15529 2019-10-10 12:19:39 ESP12E-S1 12.00 11.86 99.90
15528 2019-10-10 11:51:22 ESP12E-S1 11.90 11.75 99.90
15527 2019-10-10 11:22:59 ESP12E-S1 11.20 10.98 99.90
15526 2019-10-10 10:54:40 ESP12E-S1 10.80 10.54 99.90
15525 2019-10-10 10:26:22 ESP12E-S1 10.40 10.10 99.90
15524 2019-10-10 09:58:04 ESP12E-S1 10.00 9.66 99.90
15523 2019-10-10 09:29:45 ESP12E-S1 9.70 9.33 99.90
15522 2019-10-10 09:01:28 ESP12E-S1 9.40 9.00 99.90
15521 2019-10-10 08:33:12 ESP12E-S1 9.20 8.78 99.90
15520 2019-10-10 08:04:56 ESP12E-S1 9.10 8.67 99.90
15519 2019-10-10 07:36:40 ESP12E-S1 9.10 8.67 99.90
15518 2019-10-10 07:08:27 ESP12E-S1 9.20 8.78 99.90
15517 2019-10-10 06:40:12 ESP12E-S1 9.30 8.89 99.90
15516 2019-10-10 06:11:58 ESP12E-S1 9.30 8.89 99.90
15515 2019-10-10 05:43:41 ESP12E-S1 9.30 8.89 99.90
15514 2019-10-10 05:15:26 ESP12E-S1 9.30 8.89 99.90
15513 2019-10-10 04:47:09 ESP12E-S1 9.30 8.89 99.90
15512 2019-10-10 04:18:54 ESP12E-S1 9.20 8.78 99.90
15511 2019-10-10 03:50:39 ESP12E-S1 9.30 8.89 99.90
15510 2019-10-10 03:22:25 ESP12E-S1 9.20 8.78 99.90
15509 2019-10-10 02:54:09 ESP12E-S1 9.20 8.78 99.90
15508 2019-10-10 02:25:55 ESP12E-S1 9.20 8.78 99.90
15507 2019-10-10 01:57:38 ESP12E-S1 9.10 8.67 99.90
15506 2019-10-10 01:29:23 ESP12E-S1 9.20 8.78 99.90
15505 2019-10-10 01:01:10 ESP12E-S1 9.40 9.00 99.90
15504 2019-10-10 00:32:54 ESP12E-S1 9.50 9.11 99.90
15503 2019-10-10 00:04:40 ESP12E-S1 9.60 9.22 99.90
15502 2019-10-09 23:36:26 ESP12E-S1 9.80 9.44 99.90
15501 2019-10-09 23:08:10 ESP12E-S1 10.00 9.66 99.90
15500 2019-10-09 22:39:55 ESP12E-S1 10.00 9.66 99.90
15499 2019-10-09 22:11:39 ESP12E-S1 10.10 9.77 99.90
15498 2019-10-09 21:43:24 ESP12E-S1 10.20 9.88 99.90
15497 2019-10-09 21:15:08 ESP12E-S1 10.20 9.88 99.90
15496 2019-10-09 20:46:53 ESP12E-S1 10.30 9.99 99.90
15495 2019-10-09 20:18:39 ESP12E-S1 10.40 10.10 99.90
15494 2019-10-09 19:50:25 ESP12E-S1 10.60 10.32 99.90
15493 2019-10-09 19:22:11 ESP12E-S1 10.70 10.43 99.90
15492 2019-10-09 18:53:56 ESP12E-S1 10.90 10.65 99.90
15491 2019-10-09 18:25:41 ESP12E-S1 11.10 10.87 99.90
15490 2019-10-09 17:57:29 ESP12E-S1 11.40 11.20 99.90
15489 2019-10-09 17:29:16 ESP12E-S1 11.90 11.75 99.90
15488 2019-10-09 17:00:59 ESP12E-S1 11.80 11.64 99.90
15487 2019-10-09 16:32:46 ESP12E-S1 12.40 12.30 99.90
15486 2019-10-09 16:04:16 ESP12E-S1 11.70 11.53 99.90
15485 2019-10-09 15:36:00 ESP12E-S1 11.70 11.53 99.90
15484 2019-10-09 15:07:44 ESP12E-S1 11.60 11.42 99.90
15483 2019-10-09 14:39:28 ESP12E-S1 11.60 11.42 99.90
15482 2019-10-09 14:11:15 ESP12E-S1 11.70 11.53 99.90
15481 2019-10-09 13:42:59 ESP12E-S1 11.90 11.75 99.90
15480 2019-10-09 13:14:44 ESP12E-S1 12.00 11.86 99.90
15479 2019-10-09 12:46:28 ESP12E-S1 11.90 11.75 99.90
15478 2019-10-09 12:18:12 ESP12E-S1 11.90 11.75 99.90
15477 2019-10-09 11:49:57 ESP12E-S1 12.00 11.86 99.90
15476 2019-10-09 11:21:39 ESP12E-S1 11.70 11.53 99.90
15475 2019-10-09 10:53:22 ESP12E-S1 11.60 11.42 99.90
15474 2019-10-09 10:25:04 ESP12E-S1 11.20 10.98 99.90
15473 2019-10-09 09:56:47 ESP12E-S1 10.80 10.54 99.90
15472 2019-10-09 09:28:30 ESP12E-S1 10.60 10.32 99.90
15471 2019-10-09 09:00:13 ESP12E-S1 10.50 10.21 99.90
15470 2019-10-09 08:31:57 ESP12E-S1 10.40 10.10 99.90
15469 2019-10-09 08:03:42 ESP12E-S1 10.40 10.10 99.90
15468 2019-10-09 07:35:25 ESP12E-S1 10.40 10.10 99.90
15467 2019-10-09 07:07:08 ESP12E-S1 10.30 9.99 99.90
15466 2019-10-09 06:38:52 ESP12E-S1 10.40 10.10 99.90
15465 2019-10-09 06:10:37 ESP12E-S1 10.50 10.21 99.90
15464 2019-10-09 05:42:21 ESP12E-S1 10.50 10.21 99.90
15463 2019-10-09 05:14:06 ESP12E-S1 10.50 10.21 99.90
15462 2019-10-09 04:45:50 ESP12E-S1 10.50 10.21 99.90
15461 2019-10-09 04:17:35 ESP12E-S1 10.50 10.21 99.90
15460 2019-10-09 03:49:20 ESP12E-S1 10.40 10.10 99.90
15459 2019-10-09 03:21:05 ESP12E-S1 10.40 10.10 99.90
15458 2019-10-09 02:52:49 ESP12E-S1 10.30 9.99 99.90
15457 2019-10-09 02:24:44 ESP12E-S1 10.50 10.21 99.90
15456 2019-10-09 01:56:26 ESP12E-S1 10.70 10.43 99.90
15455 2019-10-09 01:28:11 ESP12E-S1 10.90 10.65 99.90
15454 2019-10-09 00:59:56 ESP12E-S1 11.20 10.98 99.90
15453 2019-10-09 00:31:43 ESP12E-S1 11.40 11.20 99.90
15452 2019-10-09 00:03:27 ESP12E-S1 11.60 11.42 99.90
15451 2019-10-08 23:35:12 ESP12E-S1 11.70 11.53 99.90
15450 2019-10-08 23:06:58 ESP12E-S1 11.80 11.64 99.90
15449 2019-10-08 22:38:42 ESP12E-S1 12.00 11.86 99.90
15448 2019-10-08 22:10:26 ESP12E-S1 12.10 11.97 99.90
15447 2019-10-08 21:42:10 ESP12E-S1 12.10 11.97 99.90
15446 2019-10-08 21:13:54 ESP12E-S1 12.10 11.97 99.90
15445 2019-10-08 20:45:37 ESP12E-S1 12.10 11.97 99.90
15444 2019-10-08 20:17:21 ESP12E-S1 12.10 11.97 99.90
15443 2019-10-08 19:49:08 ESP12E-S1 12.00 11.86 99.90
15442 2019-10-08 19:21:27 ESP12E-S1 12.00 11.86 99.90
15441 2019-10-08 18:52:52 ESP12E-S1 11.90 11.75 99.90
15440 2019-10-08 18:24:37 ESP12E-S1 11.90 11.75 99.90
15439 2019-10-08 17:56:21 ESP12E-S1 11.90 11.75 99.90
15438 2019-10-08 17:28:05 ESP12E-S1 11.90 11.75 99.90
15437 2019-10-08 16:59:49 ESP12E-S1 11.90 11.75 99.90
15436 2019-10-08 16:31:33 ESP12E-S1 11.80 11.64 99.90
15435 2019-10-08 16:03:16 ESP12E-S1 11.70 11.53 99.90
15434 2019-10-08 15:34:59 ESP12E-S1 11.70 11.53 99.90
15433 2019-10-08 15:06:45 ESP12E-S1 11.80 11.64 99.90
15432 2019-10-08 14:38:29 ESP12E-S1 11.70 11.53 99.90
15431 2019-10-08 14:10:11 ESP12E-S1 11.70 11.53 99.90
15430 2019-10-08 13:41:55 ESP12E-S1 11.50 11.31 99.90
15429 2019-10-08 13:13:37 ESP12E-S1 11.40 11.20 99.90
15428 2019-10-08 12:45:20 ESP12E-S1 11.30 11.09 99.90
15427 2019-10-08 12:17:04 ESP12E-S1 11.20 10.98 99.90
15426 2019-10-08 11:48:47 ESP12E-S1 11.10 10.87 99.90
15425 2019-10-08 11:20:29 ESP12E-S1 10.90 10.65 99.90
15424 2019-10-08 10:52:13 ESP12E-S1 10.70 10.43 99.90
15423 2019-10-08 10:23:58 ESP12E-S1 10.60 10.32 99.90
15422 2019-10-08 09:55:40 ESP12E-S1 10.50 10.21 99.90
15421 2019-10-08 09:27:24 ESP12E-S1 10.40 10.10 99.90
15420 2019-10-08 08:59:09 ESP12E-S1 10.40 10.10 99.90
15419 2019-10-08 08:30:53 ESP12E-S1 10.30 9.99 99.90
15418 2019-10-08 08:02:36 ESP12E-S1 10.40 10.10 99.90
15417 2019-10-08 07:34:21 ESP12E-S1 10.40 10.10 99.90
15416 2019-10-08 07:06:05 ESP12E-S1 10.40 10.10 99.90
15415 2019-10-08 06:37:52 ESP12E-S1 10.50 10.21 99.90
15414 2019-10-08 06:09:35 ESP12E-S1 10.50 10.21 99.90
15413 2019-10-08 05:41:22 ESP12E-S1 10.40 10.10 99.90
15412 2019-10-08 05:13:06 ESP12E-S1 10.40 10.10 99.90
15411 2019-10-08 04:44:49 ESP12E-S1 10.40 10.10 99.90
15410 2019-10-08 04:16:33 ESP12E-S1 10.30 9.99 99.90
15409 2019-10-08 03:48:18 ESP12E-S1 10.20 9.88 99.90
15408 2019-10-08 03:20:01 ESP12E-S1 10.20 9.88 99.90
15407 2019-10-08 02:51:46 ESP12E-S1 10.10 9.77 99.90
15406 2019-10-08 02:23:31 ESP12E-S1 10.10 9.77 99.90
15405 2019-10-08 01:55:15 ESP12E-S1 10.10 9.77 99.90
15404 2019-10-08 01:27:00 ESP12E-S1 10.10 9.77 99.90
15403 2019-10-08 00:58:44 ESP12E-S1 10.10 9.77 99.90
15402 2019-10-08 00:30:28 ESP12E-S1 10.10 9.77 99.90
15401 2019-10-08 00:02:12 ESP12E-S1 10.10 9.77 99.90
15400 2019-10-07 23:33:57 ESP12E-S1 10.00 9.66 99.90
15399 2019-10-07 23:05:41 ESP12E-S1 10.00 9.66 99.90
15398 2019-10-07 22:37:26 ESP12E-S1 10.00 9.66 99.90
15397 2019-10-07 22:09:10 ESP12E-S1 10.00 9.66 99.90
15396 2019-10-07 21:40:54 ESP12E-S1 10.00 9.66 99.90
15395 2019-10-07 21:12:40 ESP12E-S1 10.00 9.66 99.90
15394 2019-10-07 20:44:26 ESP12E-S1 10.00 9.66 99.90
15393 2019-10-07 20:16:09 ESP12E-S1 10.10 9.77 99.90
15392 2019-10-07 19:47:53 ESP12E-S1 10.40 10.10 99.90
15391 2019-10-07 18:51:37 ESP12E-S1 10.20 9.88 99.90
15390 2019-10-07 18:23:22 ESP12E-S1 10.30 9.99 99.90
15389 2019-10-07 17:55:05 ESP12E-S1 10.30 9.99 99.90
15388 2019-10-07 17:26:50 ESP12E-S1 10.40 10.10 99.90
15387 2019-10-07 16:58:34 ESP12E-S1 10.40 10.10 99.90
15386 2019-10-07 16:30:18 ESP12E-S1 10.40 10.10 99.90
15385 2019-10-07 16:02:02 ESP12E-S1 10.30 9.99 99.90
15384 2019-10-07 15:33:44 ESP12E-S1 10.10 9.77 99.90
15383 2019-10-07 15:05:28 ESP12E-S1 10.00 9.66 99.90
15382 2019-10-07 14:37:13 ESP12E-S1 10.00 9.66 99.90
15381 2019-10-07 14:08:57 ESP12E-S1 9.90 9.55 99.90
15380 2019-10-07 13:40:39 ESP12E-S1 9.80 9.44 99.90
15379 2019-10-07 13:12:23 ESP12E-S1 9.70 9.33 99.90
15378 2019-10-07 12:44:09 ESP12E-S1 9.70 9.33 99.90
15377 2019-10-07 12:15:51 ESP12E-S1 9.60 9.22 99.90
15376 2019-10-07 11:47:35 ESP12E-S1 9.40 9.00 99.90
15375 2019-10-07 11:19:18 ESP12E-S1 9.20 8.78 99.90
15374 2019-10-07 10:51:01 ESP12E-S1 8.90 8.45 99.90
15373 2019-10-07 10:22:44 ESP12E-S1 8.80 8.34 99.90
15372 2019-10-07 09:54:28 ESP12E-S1 8.60 8.12 99.90
15371 2019-10-07 09:26:12 ESP12E-S1 8.50 8.01 99.90
15370 2019-10-07 08:57:56 ESP12E-S1 8.30 7.79 99.90
15369 2019-10-07 08:29:40 ESP12E-S1 8.20 7.68 99.90
15368 2019-10-07 08:01:24 ESP12E-S1 8.20 7.68 99.90
15367 2019-10-07 07:33:09 ESP12E-S1 8.10 7.57 99.90
15366 2019-10-07 07:04:54 ESP12E-S1 8.20 7.68 99.90
15365 2019-10-07 06:36:40 ESP12E-S1 8.20 7.68 99.90
15364 2019-10-07 06:08:23 ESP12E-S1 8.20 7.68 99.90
15363 2019-10-07 05:40:10 ESP12E-S1 8.20 7.68 99.90
15362 2019-10-07 05:12:02 ESP12E-S1 8.20 7.68 99.90
15361 2019-10-07 04:43:51 ESP12E-S1 8.20 7.68 99.90
15360 2019-10-07 04:15:35 ESP12E-S1 8.30 7.79 99.90
15359 2019-10-07 03:47:20 ESP12E-S1 8.30 7.79 99.90
15358 2019-10-07 03:19:05 ESP12E-S1 8.40 7.90 99.90
15357 2019-10-07 02:50:50 ESP12E-S1 8.40 7.90 99.90
15356 2019-10-07 02:22:34 ESP12E-S1 8.40 7.90 99.90
15355 2019-10-07 01:54:18 ESP12E-S1 8.50 8.01 99.90
15354 2019-10-07 01:26:03 ESP12E-S1 8.50 8.01 99.90
15353 2019-10-07 00:57:47 ESP12E-S1 8.50 8.01 99.90
15352 2019-10-07 00:29:33 ESP12E-S1 8.50 8.01 99.90
15351 2019-10-07 00:01:18 ESP12E-S1 8.60 8.12 99.90
15350 2019-10-06 23:33:03 ESP12E-S1 8.60 8.12 99.90
15349 2019-10-06 23:04:48 ESP12E-S1 8.60 8.12 99.90
15348 2019-10-06 22:36:32 ESP12E-S1 8.60 8.12 99.90
15347 2019-10-06 22:08:16 ESP12E-S1 8.60 8.12 99.90
15346 2019-10-06 21:40:01 ESP12E-S1 8.60 8.12 99.90
15345 2019-10-06 21:11:46 ESP12E-S1 8.60 8.12 99.90
15344 2019-10-06 20:43:30 ESP12E-S1 8.60 8.12 99.90
15343 2019-10-06 20:15:14 ESP12E-S1 8.60 8.12 99.90
15342 2019-10-06 19:46:59 ESP12E-S1 8.60 8.12 99.90
15341 2019-10-06 19:18:43 ESP12E-S1 8.60 8.12 99.90
15340 2019-10-06 18:50:29 ESP12E-S1 8.60 8.12 99.90
15339 2019-10-06 18:22:14 ESP12E-S1 8.60 8.12 99.90
15338 2019-10-06 17:54:03 ESP12E-S1 8.70 8.23 99.90
15337 2019-10-06 17:25:48 ESP12E-S1 8.60 8.12 99.90
15336 2019-10-06 16:57:33 ESP12E-S1 8.70 8.23 99.90
15335 2019-10-06 16:29:22 ESP12E-S1 8.70 8.23 99.90
15334 2019-10-06 16:01:08 ESP12E-S1 8.70 8.23 99.90
15333 2019-10-06 15:32:55 ESP12E-S1 8.60 8.12 99.90
15332 2019-10-06 15:04:42 ESP12E-S1 8.60 8.12 99.90
15331 2019-10-06 14:36:27 ESP12E-S1 8.60 8.12 99.90
15330 2019-10-06 14:08:11 ESP12E-S1 8.60 8.12 99.90
15329 2019-10-06 13:39:56 ESP12E-S1 8.60 8.12 99.90
15328 2019-10-06 13:11:40 ESP12E-S1 8.60 8.12 99.90
15327 2019-10-06 12:43:25 ESP12E-S1 8.70 8.23 99.90
15326 2019-10-06 12:15:09 ESP12E-S1 8.60 8.12 99.90
15325 2019-10-06 11:46:57 ESP12E-S1 8.60 8.12 99.90
15324 2019-10-06 11:18:41 ESP12E-S1 8.60 8.12 99.90
15323 2019-10-06 10:50:26 ESP12E-S1 8.50 8.01 99.90
15322 2019-10-06 10:22:12 ESP12E-S1 8.50 8.01 99.90
15321 2019-10-06 09:53:57 ESP12E-S1 8.40 7.90 99.90
15320 2019-10-06 09:25:40 ESP12E-S1 8.30 7.79 99.90
15319 2019-10-06 08:57:25 ESP12E-S1 8.20 7.68 99.90
15318 2019-10-06 08:29:09 ESP12E-S1 8.10 7.57 99.90
15317 2019-10-06 08:00:54 ESP12E-S1 8.10 7.57 99.90
15316 2019-10-06 07:32:38 ESP12E-S1 8.10 7.57 99.90
15315 2019-10-06 07:04:23 ESP12E-S1 8.10 7.57 99.90
15314 2019-10-06 06:36:08 ESP12E-S1 8.20 7.68 99.90
15313 2019-10-06 06:07:53 ESP12E-S1 8.20 7.68 99.90
15312 2019-10-06 05:39:37 ESP12E-S1 8.30 7.79 99.90
15311 2019-10-06 05:11:21 ESP12E-S1 8.30 7.79 99.90
15310 2019-10-06 04:43:05 ESP12E-S1 8.40 7.90 99.90
15309 2019-10-06 04:14:50 ESP12E-S1 8.40 7.90 99.90
15308 2019-10-06 03:46:34 ESP12E-S1 8.50 8.01 99.90
15307 2019-10-06 03:18:17 ESP12E-S1 8.50 8.01 99.90
15306 2019-10-06 02:50:02 ESP12E-S1 8.50 8.01 99.90
15305 2019-10-06 02:21:47 ESP12E-S1 8.50 8.01 99.90
15304 2019-10-06 01:53:34 ESP12E-S1 8.60 8.12 99.90
15303 2019-10-06 01:25:31 ESP12E-S1 8.70 8.23 99.90
15302 2019-10-06 00:57:25 ESP12E-S1 8.70 8.23 99.90
15301 2019-10-06 00:29:17 ESP12E-S1 8.60 8.12 99.90
15300 2019-10-06 00:01:00 ESP12E-S1 8.50 8.01 99.90
15299 2019-10-05 23:32:46 ESP12E-S1 8.60 8.12 99.90
15298 2019-10-05 23:04:33 ESP12E-S1 8.80 8.34 99.90
15297 2019-10-05 22:36:19 ESP12E-S1 9.10 8.67 99.90
15296 2019-10-05 22:08:03 ESP12E-S1 9.30 8.89 99.90
15295 2019-10-05 21:39:49 ESP12E-S1 9.40 9.00 99.90
15294 2019-10-05 21:11:34 ESP12E-S1 9.50 9.11 99.90
15293 2019-10-05 20:43:20 ESP12E-S1 9.60 9.22 99.90
15292 2019-10-05 20:15:06 ESP12E-S1 10.10 9.77 99.90
15291 2019-10-05 19:46:53 ESP12E-S1 10.20 9.88 99.90
15290 2019-10-05 19:18:39 ESP12E-S1 10.50 10.21 99.90
15289 2019-10-05 18:50:27 ESP12E-S1 11.10 10.87 99.90
15288 2019-10-05 18:22:15 ESP12E-S1 11.50 11.31 99.90
15287 2019-10-05 17:54:00 ESP12E-S1 11.70 11.53 99.90
15286 2019-10-05 17:25:48 ESP12E-S1 12.20 12.08 99.90
15285 2019-10-05 16:57:36 ESP12E-S1 12.80 12.74 99.80
15284 2019-10-05 16:29:18 ESP12E-S1 12.30 12.19 99.90
15283 2019-10-05 16:00:57 ESP12E-S1 12.50 12.41 99.90
15282 2019-10-05 15:32:29 ESP12E-S1 11.70 11.53 99.90
15281 2019-10-05 15:04:15 ESP12E-S1 11.50 11.31 99.90
15280 2019-10-05 14:35:58 ESP12E-S1 11.50 11.31 99.90
15279 2019-10-05 14:07:47 ESP12E-S1 11.50 11.31 99.90
15278 2019-10-05 13:39:33 ESP12E-S1 11.60 11.42 99.90
15277 2019-10-05 13:11:17 ESP12E-S1 11.50 11.31 99.90
15276 2019-10-05 12:43:01 ESP12E-S1 11.30 11.09 99.90
15275 2019-10-05 12:14:48 ESP12E-S1 11.80 11.64 99.90
15274 2019-10-05 11:46:37 ESP12E-S1 12.00 11.86 99.90
15273 2019-10-05 11:18:09 ESP12E-S1 10.50 10.21 99.90
15272 2019-10-05 10:49:55 ESP12E-S1 10.10 9.77 99.90
15271 2019-10-05 10:21:41 ESP12E-S1 10.40 10.10 99.90
15270 2019-10-05 09:53:27 ESP12E-S1 10.40 10.10 99.90
15269 2019-10-05 09:25:11 ESP12E-S1 10.30 9.99 99.90
15268 2019-10-05 08:56:54 ESP12E-S1 10.00 9.66 99.90
15267 2019-10-05 08:28:37 ESP12E-S1 9.80 9.44 99.90
15266 2019-10-05 08:00:22 ESP12E-S1 9.70 9.33 99.90
15265 2019-10-05 07:32:09 ESP12E-S1 9.80 9.44 99.90
15264 2019-10-05 07:03:55 ESP12E-S1 10.10 9.77 99.90
15263 2019-10-05 06:35:39 ESP12E-S1 10.40 10.10 99.90
15262 2019-10-05 06:07:24 ESP12E-S1 10.40 10.10 99.90
15261 2019-10-05 05:39:10 ESP12E-S1 10.60 10.32 99.90
15260 2019-10-05 05:10:55 ESP12E-S1 10.70 10.43 99.90
15259 2019-10-05 04:42:39 ESP12E-S1 10.70 10.43 99.90
15258 2019-10-05 04:14:26 ESP12E-S1 10.60 10.32 99.90
15257 2019-10-05 03:46:12 ESP12E-S1 10.60 10.32 99.90
15256 2019-10-05 03:17:55 ESP12E-S1 10.60 10.32 99.90
15255 2019-10-05 02:49:40 ESP12E-S1 10.50 10.21 99.90
15254 2019-10-05 02:21:24 ESP12E-S1 10.50 10.21 99.90
15253 2019-10-05 01:53:09 ESP12E-S1 10.50 10.21 99.90
15252 2019-10-05 01:24:55 ESP12E-S1 10.60 10.32 99.90
15251 2019-10-05 00:56:39 ESP12E-S1 10.60 10.32 99.90
15250 2019-10-05 00:28:26 ESP12E-S1 10.60 10.32 99.90
15249 2019-10-05 00:00:09 ESP12E-S1 10.60 10.32 99.90
15248 2019-10-04 23:31:53 ESP12E-S1 10.60 10.32 99.90
15247 2019-10-04 23:03:38 ESP12E-S1 10.60 10.32 99.90
15246 2019-10-04 22:35:23 ESP12E-S1 10.60 10.32 99.90
15245 2019-10-04 22:07:08 ESP12E-S1 10.60 10.32 99.90
15244 2019-10-04 21:38:54 ESP12E-S1 10.50 10.21 99.90
15243 2019-10-04 21:10:40 ESP12E-S1 10.50 10.21 99.90
15242 2019-10-04 20:42:25 ESP12E-S1 10.50 10.21 99.90
15241 2019-10-04 20:14:14 ESP12E-S1 10.60 10.32 99.90
15240 2019-10-04 19:45:59 ESP12E-S1 10.60 10.32 99.90
15239 2019-10-04 19:17:45 ESP12E-S1 10.70 10.43 99.90
15238 2019-10-04 18:49:29 ESP12E-S1 10.70 10.43 99.90
15237 2019-10-04 18:21:13 ESP12E-S1 10.70 10.43 99.90
15236 2019-10-04 17:52:56 ESP12E-S1 10.60 10.32 99.90
15235 2019-10-04 17:24:41 ESP12E-S1 10.50 10.21 99.90
15234 2019-10-04 16:56:25 ESP12E-S1 10.50 10.21 99.90
15233 2019-10-04 16:28:07 ESP12E-S1 10.30 9.99 99.90
15232 2019-10-04 15:59:52 ESP12E-S1 10.20 9.88 99.90
15231 2019-10-04 15:31:36 ESP12E-S1 10.00 9.66 99.90
15230 2019-10-04 15:03:18 ESP12E-S1 9.70 9.33 99.90
15229 2019-10-04 14:35:02 ESP12E-S1 9.50 9.11 99.90
15228 2019-10-04 14:06:47 ESP12E-S1 9.40 9.00 99.90
15227 2019-10-04 13:38:31 ESP12E-S1 9.30 8.89 99.90
15226 2019-10-04 13:10:16 ESP12E-S1 9.20 8.78 99.90
15225 2019-10-04 12:42:00 ESP12E-S1 9.20 8.78 99.90
15224 2019-10-04 12:13:45 ESP12E-S1 9.20 8.78 99.90
15223 2019-10-04 11:45:30 ESP12E-S1 9.10 8.67 99.90
15222 2019-10-04 11:17:15 ESP12E-S1 9.20 8.78 99.90
15221 2019-10-04 10:49:00 ESP12E-S1 9.30 8.89 99.90
15220 2019-10-04 10:20:43 ESP12E-S1 9.20 8.78 99.90
15219 2019-10-04 09:52:26 ESP12E-S1 9.00 8.56 99.90
15218 2019-10-04 09:24:10 ESP12E-S1 9.10 8.67 99.90
15217 2019-10-04 08:55:55 ESP12E-S1 9.00 8.56 99.90
15216 2019-10-04 08:27:38 ESP12E-S1 8.80 8.34 99.90
15215 2019-10-04 07:59:26 ESP12E-S1 8.80 8.34 99.90
15214 2019-10-04 07:31:11 ESP12E-S1 8.80 8.34 99.90
15213 2019-10-04 07:02:55 ESP12E-S1 8.80 8.34 99.90
15212 2019-10-04 06:34:40 ESP12E-S1 8.80 8.34 99.90
15211 2019-10-04 06:06:23 ESP12E-S1 8.80 8.34 99.90
15210 2019-10-04 05:38:06 ESP12E-S1 8.90 8.45 99.90
15209 2019-10-04 05:09:51 ESP12E-S1 8.90 8.45 99.90
15208 2019-10-04 04:41:36 ESP12E-S1 8.90 8.45 99.90
15207 2019-10-04 04:13:20 ESP12E-S1 8.90 8.45 99.90
15206 2019-10-04 03:45:03 ESP12E-S1 9.00 8.56 99.90
15205 2019-10-04 03:16:48 ESP12E-S1 9.00 8.56 99.90
15204 2019-10-04 02:48:32 ESP12E-S1 8.90 8.45 99.90
15203 2019-10-04 02:20:16 ESP12E-S1 8.80 8.34 99.90
15202 2019-10-04 01:52:00 ESP12E-S1 8.80 8.34 99.90
15201 2019-10-04 01:23:45 ESP12E-S1 8.80 8.34 99.90
15200 2019-10-04 00:55:32 ESP12E-S1 8.80 8.34 99.90
15199 2019-10-04 00:27:17 ESP12E-S1 8.90 8.45 99.90
15198 2019-10-03 23:59:04 ESP12E-S1 9.10 8.67 99.90
15197 2019-10-03 23:30:50 ESP12E-S1 9.30 8.89 99.90
15196 2019-10-03 23:02:37 ESP12E-S1 9.80 9.44 99.90
15195 2019-10-03 22:34:21 ESP12E-S1 9.90 9.55 99.90
15194 2019-10-03 22:06:07 ESP12E-S1 9.90 9.55 99.90
15193 2019-10-03 21:37:52 ESP12E-S1 10.10 9.77 99.90
15192 2019-10-03 21:09:36 ESP12E-S1 10.30 9.99 99.90
15191 2019-10-03 20:41:22 ESP12E-S1 10.40 10.10 99.90
15190 2019-10-03 20:13:06 ESP12E-S1 10.40 10.10 99.90
15189 2019-10-03 19:44:51 ESP12E-S1 10.30 9.99 99.90
15188 2019-10-03 19:16:37 ESP12E-S1 10.50 10.21 99.90
15187 2019-10-03 18:48:24 ESP12E-S1 10.90 10.65 99.90
15186 2019-10-03 18:20:11 ESP12E-S1 11.20 10.98 99.90
15178 2019-10-03 17:51:57 ESP12E-S1 11.40 11.20 99.90
15177 2019-10-03 17:23:45 ESP12E-S1 11.70 11.53 99.90
15176 2019-10-03 16:55:31 ESP12E-S1 11.80 11.64 99.90
15175 2019-10-03 16:27:22 ESP12E-S1 12.60 12.52 99.90
15174 2019-10-03 15:59:07 ESP12E-S1 11.90 11.75 99.90
15173 2019-10-03 15:30:57 ESP12E-S1 12.50 12.41 99.90
15172 2019-10-03 15:02:47 ESP12E-S1 13.10 13.07 99.90
15171 2019-10-03 14:34:19 ESP12E-S1 11.20 10.98 99.90
15170 2019-10-03 14:06:04 ESP12E-S1 11.10 10.87 99.90
15169 2019-10-03 13:37:49 ESP12E-S1 11.00 10.76 99.90
15168 2019-10-03 13:09:31 ESP12E-S1 10.70 10.43 99.90
15167 2019-10-03 12:41:15 ESP12E-S1 10.40 10.10 99.90
15166 2019-10-03 12:13:00 ESP12E-S1 10.40 10.10 99.90
15165 2019-10-03 11:44:45 ESP12E-S1 10.30 9.99 99.90
15164 2019-10-03 11:16:29 ESP12E-S1 10.10 9.77 99.90
15163 2019-10-03 10:48:14 ESP12E-S1 10.00 9.66 99.90
15162 2019-10-03 10:19:57 ESP12E-S1 9.80 9.44 99.90
15161 2019-10-03 09:51:41 ESP12E-S1 9.80 9.44 99.90
15160 2019-10-03 09:23:24 ESP12E-S1 9.70 9.33 99.90
15159 2019-10-03 08:55:07 ESP12E-S1 9.50 9.11 99.90
15158 2019-10-03 08:26:51 ESP12E-S1 9.50 9.11 99.90
15157 2019-10-03 07:58:36 ESP12E-S1 9.40 9.00 99.90
15156 2019-10-03 07:30:21 ESP12E-S1 9.40 9.00 99.90
15155 2019-10-03 07:02:06 ESP12E-S1 9.30 8.89 99.90
15154 2019-10-03 06:33:51 ESP12E-S1 9.40 9.00 99.90
15153 2019-10-03 06:05:35 ESP12E-S1 9.40 9.00 99.90
15152 2019-10-03 05:37:20 ESP12E-S1 9.40 9.00 99.90
15151 2019-10-03 05:09:06 ESP12E-S1 9.50 9.11 99.90
15150 2019-10-03 04:40:49 ESP12E-S1 9.50 9.11 99.90
15149 2019-10-03 04:12:35 ESP12E-S1 9.50 9.11 99.90
15148 2019-10-03 03:44:21 ESP12E-S1 9.60 9.22 99.90
15147 2019-10-03 03:16:07 ESP12E-S1 9.60 9.22 99.90
15146 2019-10-03 02:47:51 ESP12E-S1 9.60 9.22 99.90
15145 2019-10-03 02:19:35 ESP12E-S1 9.60 9.22 99.90
15144 2019-10-03 01:51:20 ESP12E-S1 9.70 9.33 99.90
15143 2019-10-03 01:23:05 ESP12E-S1 9.70 9.33 99.90
15142 2019-10-03 00:54:50 ESP12E-S1 9.70 9.33 99.90
15141 2019-10-03 00:26:35 ESP12E-S1 9.80 9.44 99.90
15140 2019-10-02 23:58:19 ESP12E-S1 9.80 9.44 99.90
15139 2019-10-02 23:30:05 ESP12E-S1 9.80 9.44 99.90
15138 2019-10-02 23:01:51 ESP12E-S1 10.00 9.66 99.90
15137 2019-10-02 22:33:36 ESP12E-S1 10.20 9.88 99.90
15136 2019-10-02 22:05:22 ESP12E-S1 10.50 10.10 95.50
15135 2019-10-02 21:37:07 ESP12E-S1 10.40 9.95 94.00
15134 2019-10-02 21:08:53 ESP12E-S1 10.70 10.26 93.40
15133 2019-10-02 20:40:40 ESP12E-S1 11.10 10.60 89.40
15132 2019-10-02 20:12:25 ESP12E-S1 11.40 10.73 81.90
15131 2019-10-02 19:44:12 ESP12E-S1 11.80 11.06 77.60
15130 2019-10-02 19:15:59 ESP12E-S1 12.20 11.42 74.60
15129 2019-10-02 18:47:46 ESP12E-S1 12.90 11.99 66.80
15128 2019-10-02 18:19:37 ESP12E-S1 13.90 13.02 64.30
15127 2019-10-02 17:51:27 ESP12E-S1 15.00 14.12 60.00
15126 2019-10-02 17:23:21 ESP12E-S1 17.60 16.91 57.10
15125 2019-10-02 16:55:15 ESP12E-S1 16.80 16.00 55.90
15124 2019-10-02 16:26:56 ESP12E-S1 17.80 17.25 61.80
15123 2019-10-02 15:58:43 ESP12E-S1 17.20 16.54 60.10
15122 2019-10-02 15:30:30 ESP12E-S1 17.90 17.35 61.50
15121 2019-10-02 15:02:09 ESP12E-S1 16.40 16.46 90.40
15120 2019-10-02 14:33:36 ESP12E-S1 13.90 13.95 99.90
15119 2019-10-02 14:05:16 ESP12E-S1 12.80 12.74 99.90
15118 2019-10-02 13:36:59 ESP12E-S1 12.60 12.52 99.90
15117 2019-10-02 13:08:44 ESP12E-S1 12.60 12.52 99.90
15116 2019-10-02 12:40:28 ESP12E-S1 12.50 12.41 99.90
15115 2019-10-02 12:12:12 ESP12E-S1 12.20 12.08 99.90
15114 2019-10-02 11:43:55 ESP12E-S1 12.00 11.86 99.90
15113 2019-10-02 11:15:39 ESP12E-S1 12.00 11.86 99.90
15112 2019-10-02 10:47:24 ESP12E-S1 12.30 12.19 99.90
15111 2019-10-02 10:19:09 ESP12E-S1 12.40 12.30 99.90
15110 2019-10-02 09:50:54 ESP12E-S1 12.50 12.41 99.90
15109 2019-10-02 09:22:41 ESP12E-S1 12.90 12.85 99.90
15108 2019-10-02 08:54:25 ESP12E-S1 13.10 13.07 99.90
15107 2019-10-02 08:26:11 ESP12E-S1 13.40 13.40 99.90
15106 2019-10-02 07:57:56 ESP12E-S1 13.40 13.40 99.90
15105 2019-10-02 07:29:41 ESP12E-S1 13.70 13.73 99.90
15104 2019-10-02 07:01:25 ESP12E-S1 13.80 13.84 99.90
15103 2019-10-02 06:33:10 ESP12E-S1 13.90 13.95 99.90
15102 2019-10-02 06:04:55 ESP12E-S1 14.00 14.06 99.90
15101 2019-10-02 05:36:40 ESP12E-S1 14.10 14.17 99.90
15100 2019-10-02 05:08:26 ESP12E-S1 14.20 14.28 99.90
15099 2019-10-02 04:40:10 ESP12E-S1 14.30 14.39 99.90
15098 2019-10-02 04:11:57 ESP12E-S1 14.30 14.39 99.90
15097 2019-10-02 03:43:42 ESP12E-S1 14.40 14.50 99.90
15096 2019-10-02 03:15:28 ESP12E-S1 14.40 14.50 99.90
15095 2019-10-02 02:47:13 ESP12E-S1 14.50 14.61 99.90
15094 2019-10-02 02:18:59 ESP12E-S1 14.60 14.72 99.90
15093 2019-10-02 01:50:43 ESP12E-S1 14.70 14.83 99.90
15092 2019-10-02 01:22:29 ESP12E-S1 14.70 14.83 99.90
15091 2019-10-02 00:54:14 ESP12E-S1 14.80 14.94 99.90
15090 2019-10-02 00:25:58 ESP12E-S1 14.90 15.05 99.90
15089 2019-10-01 23:57:43 ESP12E-S1 15.00 15.16 99.90
15088 2019-10-01 23:29:29 ESP12E-S1 15.00 15.16 99.90
15087 2019-10-01 23:01:12 ESP12E-S1 15.10 15.27 99.90
15086 2019-10-01 22:32:56 ESP12E-S1 15.20 15.38 99.90
15085 2019-10-01 22:04:40 ESP12E-S1 15.40 15.60 99.90
15084 2019-10-01 21:36:25 ESP12E-S1 15.40 15.60 99.90
15083 2019-10-01 21:08:09 ESP12E-S1 15.60 15.82 99.90
15082 2019-10-01 20:39:52 ESP12E-S1 15.70 15.93 99.90
15081 2019-10-01 20:11:37 ESP12E-S1 15.80 16.04 99.90
15080 2019-10-01 19:43:29 ESP12E-S1 15.90 16.15 99.90
15079 2019-10-01 19:15:11 ESP12E-S1 16.00 16.26 99.90
15078 2019-10-01 18:46:57 ESP12E-S1 16.00 16.26 99.90
15077 2019-10-01 18:18:42 ESP12E-S1 16.20 16.48 99.90
15076 2019-10-01 17:50:25 ESP12E-S1 16.30 16.59 99.90
15075 2019-10-01 17:22:09 ESP12E-S1 16.30 16.59 99.90
15074 2019-10-01 16:53:52 ESP12E-S1 16.00 16.26 99.90
15073 2019-10-01 16:25:36 ESP12E-S1 16.20 16.48 99.90
15072 2019-10-01 15:57:19 ESP12E-S1 16.10 16.37 99.90
15071 2019-10-01 15:29:04 ESP12E-S1 16.20 16.48 99.90
15070 2019-10-01 15:00:47 ESP12E-S1 16.10 16.37 99.90
15069 2019-10-01 14:32:30 ESP12E-S1 15.70 15.93 99.90
15068 2019-10-01 14:04:12 ESP12E-S1 15.40 15.60 99.90
15067 2019-10-01 13:35:54 ESP12E-S1 15.10 15.27 99.90
15066 2019-10-01 13:07:37 ESP12E-S1 15.00 15.16 99.90
15065 2019-10-01 12:39:19 ESP12E-S1 14.70 14.83 99.90
15064 2019-10-01 12:10:59 ESP12E-S1 14.00 14.06 99.90
15063 2019-10-01 11:42:41 ESP12E-S1 13.70 13.73 99.90
15062 2019-10-01 11:14:25 ESP12E-S1 13.40 13.40 99.90
15061 2019-10-01 10:46:07 ESP12E-S1 13.30 13.29 99.90
15060 2019-10-01 10:17:52 ESP12E-S1 13.10 13.07 99.90
15059 2019-10-01 09:49:35 ESP12E-S1 12.80 12.74 99.90
15058 2019-10-01 09:21:19 ESP12E-S1 12.70 12.63 99.90
15057 2019-10-01 08:53:02 ESP12E-S1 12.60 12.52 99.90
15056 2019-10-01 08:24:47 ESP12E-S1 12.60 12.52 99.90
15055 2019-10-01 07:56:33 ESP12E-S1 12.60 12.52 99.90
15054 2019-10-01 07:28:17 ESP12E-S1 12.60 12.52 99.90
15053 2019-10-01 07:00:02 ESP12E-S1 12.60 12.52 99.90
15052 2019-10-01 06:31:47 ESP12E-S1 12.60 12.52 99.90
15051 2019-10-01 06:03:32 ESP12E-S1 12.70 12.63 99.90
15050 2019-10-01 05:35:17 ESP12E-S1 12.80 12.74 99.90
15049 2019-10-01 05:07:01 ESP12E-S1 12.90 12.85 99.90
15048 2019-10-01 04:38:46 ESP12E-S1 13.00 12.96 99.90
15047 2019-10-01 04:10:31 ESP12E-S1 13.10 13.07 99.90
15046 2019-10-01 03:42:15 ESP12E-S1 13.10 13.07 99.90
15045 2019-10-01 03:13:58 ESP12E-S1 13.20 13.18 99.90
15044 2019-10-01 02:45:43 ESP12E-S1 13.10 13.07 99.90
15043 2019-10-01 02:17:27 ESP12E-S1 13.00 12.96 99.90
15042 2019-10-01 01:49:11 ESP12E-S1 12.90 12.85 99.90
15041 2019-10-01 01:20:56 ESP12E-S1 12.90 12.85 99.90
15040 2019-10-01 00:52:40 ESP12E-S1 12.90 12.85 99.90
15039 2019-10-01 00:24:27 ESP12E-S1 13.10 13.07 99.90
15038 2019-09-30 23:56:13 ESP12E-S1 13.50 13.51 99.90
15037 2019-09-30 23:27:59 ESP12E-S1 13.90 13.95 99.90
15036 2019-09-30 22:59:45 ESP12E-S1 14.10 14.17 99.90
15035 2019-09-30 22:31:30 ESP12E-S1 14.10 14.17 99.90
15034 2019-09-30 22:03:14 ESP12E-S1 14.20 14.28 99.90
15033 2019-09-30 21:34:59 ESP12E-S1 14.30 14.39 99.90
15032 2019-09-30 21:06:43 ESP12E-S1 14.30 14.39 99.90
15031 2019-09-30 20:38:28 ESP12E-S1 14.40 14.50 99.90
15030 2019-09-30 20:10:15 ESP12E-S1 14.70 14.83 99.90
15029 2019-09-30 19:42:03 ESP12E-S1 15.20 15.30 96.70
15028 2019-09-30 19:13:49 ESP12E-S1 15.80 15.86 93.00
15027 2019-09-30 18:45:36 ESP12E-S1 16.30 16.26 87.00
15026 2019-09-30 18:17:23 ESP12E-S1 16.90 16.76 80.90
15025 2019-09-30 17:49:09 ESP12E-S1 17.20 16.95 75.70
15024 2019-09-30 17:20:55 ESP12E-S1 17.70 17.56 77.80
15023 2019-09-30 16:52:39 ESP12E-S1 18.20 18.10 77.70
15022 2019-09-30 16:24:26 ESP12E-S1 18.30 18.14 74.90
15021 2019-09-30 15:56:08 ESP12E-S1 17.80 17.64 76.80
15020 2019-09-30 15:27:52 ESP12E-S1 17.70 17.59 79.10
15019 2019-09-30 14:59:33 ESP12E-S1 17.40 17.25 78.70
15018 2019-09-30 14:31:23 ESP12E-S1 18.00 17.81 74.90
15017 2019-09-30 14:03:14 ESP12E-S1 19.50 19.45 74.40
15016 2019-09-30 13:34:51 ESP12E-S1 19.10 19.16 80.30
15015 2019-09-30 13:06:35 ESP12E-S1 18.80 18.83 80.10
15014 2019-09-30 12:38:14 ESP12E-S1 18.30 18.44 86.40
15013 2019-09-30 12:09:51 ESP12E-S1 16.90 17.25 99.90
15012 2019-09-30 11:41:33 ESP12E-S1 16.40 16.68 98.80
15011 2019-09-30 11:13:12 ESP12E-S1 15.60 15.82 99.90
15010 2019-09-30 10:44:51 ESP12E-S1 14.90 15.05 99.90
15009 2019-09-30 10:16:29 ESP12E-S1 13.70 13.73 99.90
15008 2019-09-30 09:48:10 ESP12E-S1 13.30 13.29 99.90
15007 2019-09-30 09:19:53 ESP12E-S1 13.00 12.96 99.90
15006 2019-09-30 08:51:37 ESP12E-S1 12.90 12.85 99.90
15005 2019-09-30 08:23:20 ESP12E-S1 12.70 12.63 99.90
15004 2019-09-30 07:55:04 ESP12E-S1 12.70 12.63 99.90
15003 2019-09-30 07:26:48 ESP12E-S1 12.90 12.85 99.90
15002 2019-09-30 06:58:35 ESP12E-S1 13.10 13.07 99.90
15001 2019-09-30 06:30:20 ESP12E-S1 13.20 13.18 99.90
15000 2019-09-30 06:02:06 ESP12E-S1 13.40 13.40 99.90
14999 2019-09-30 05:33:53 ESP12E-S1 13.80 13.84 99.90
14998 2019-09-30 05:05:41 ESP12E-S1 14.20 14.28 99.90
14997 2019-09-30 04:37:27 ESP12E-S1 14.40 14.50 99.90
14996 2019-09-30 04:09:11 ESP12E-S1 14.30 14.39 99.90
14995 2019-09-30 03:40:55 ESP12E-S1 14.30 14.39 99.90
14994 2019-09-30 03:12:39 ESP12E-S1 14.30 14.39 99.90
14993 2019-09-30 02:44:24 ESP12E-S1 14.40 14.50 99.90
14992 2019-09-30 02:16:10 ESP12E-S1 14.50 14.61 99.90
14991 2019-09-30 01:47:56 ESP12E-S1 14.70 14.83 99.90
14990 2019-09-30 01:19:42 ESP12E-S1 14.90 15.05 99.90
14989 2019-09-30 00:51:28 ESP12E-S1 15.10 15.27 99.90
14988 2019-09-30 00:23:13 ESP12E-S1 15.10 15.27 99.90
14987 2019-09-29 23:54:59 ESP12E-S1 15.10 15.27 99.90
14986 2019-09-29 23:26:42 ESP12E-S1 15.00 15.16 99.90
14985 2019-09-29 22:58:25 ESP12E-S1 15.00 15.16 99.90
14984 2019-09-29 22:30:11 ESP12E-S1 14.90 15.05 99.90
14983 2019-09-29 22:01:53 ESP12E-S1 14.90 15.05 99.90
14982 2019-09-29 21:33:38 ESP12E-S1 14.80 14.94 99.90
14981 2019-09-29 21:05:22 ESP12E-S1 14.80 14.94 99.90
14980 2019-09-29 20:37:07 ESP12E-S1 14.80 14.94 99.90
14979 2019-09-29 20:08:56 ESP12E-S1 14.90 15.05 99.90
14978 2019-09-29 19:40:41 ESP12E-S1 14.90 15.05 99.90
14977 2019-09-29 19:12:25 ESP12E-S1 15.00 15.16 99.90
14976 2019-09-29 18:44:09 ESP12E-S1 15.10 15.27 99.90
14975 2019-09-29 18:15:56 ESP12E-S1 15.20 15.38 99.90
14974 2019-09-29 17:47:40 ESP12E-S1 15.40 15.60 99.90
14973 2019-09-29 17:19:33 ESP12E-S1 15.60 15.82 99.90
14972 2019-09-29 16:51:17 ESP12E-S1 16.00 16.26 99.90
14971 2019-09-29 16:23:16 ESP12E-S1 16.20 16.48 99.90
14970 2019-09-29 15:54:55 ESP12E-S1 15.90 16.15 99.90
14969 2019-09-29 15:26:40 ESP12E-S1 15.90 16.15 99.90
14968 2019-09-29 14:58:36 ESP12E-S1 15.90 16.15 99.90
14967 2019-09-29 14:30:16 ESP12E-S1 16.10 16.37 99.90
14966 2019-09-29 14:02:00 ESP12E-S1 16.00 16.26 99.90
14965 2019-09-29 13:33:45 ESP12E-S1 16.00 16.26 99.90
14964 2019-09-29 13:05:42 ESP12E-S1 16.20 16.48 99.90
14963 2019-09-29 12:37:18 ESP12E-S1 16.10 16.37 99.90
14962 2019-09-29 12:09:10 ESP12E-S1 15.30 15.49 99.90
14961 2019-09-29 11:40:51 ESP12E-S1 15.30 15.49 99.90
14960 2019-09-29 11:12:36 ESP12E-S1 15.20 15.38 99.90
14959 2019-09-29 10:44:10 ESP12E-S1 14.20 14.28 99.90
14958 2019-09-29 10:15:52 ESP12E-S1 13.80 13.84 99.90
14957 2019-09-29 09:47:36 ESP12E-S1 13.60 13.62 99.90
14956 2019-09-29 09:19:18 ESP12E-S1 13.10 13.07 99.90
14955 2019-09-29 08:51:02 ESP12E-S1 12.80 12.74 99.90
14954 2019-09-29 08:22:47 ESP12E-S1 12.60 12.52 99.90
14953 2019-09-29 07:54:32 ESP12E-S1 12.60 12.52 99.90
14952 2019-09-29 07:26:16 ESP12E-S1 12.60 12.52 99.90
14951 2019-09-29 06:58:01 ESP12E-S1 12.60 12.52 99.90
14950 2019-09-29 06:29:44 ESP12E-S1 12.50 12.41 99.90
14949 2019-09-29 06:01:28 ESP12E-S1 12.40 12.30 99.90
14948 2019-09-29 05:33:13 ESP12E-S1 12.30 12.19 99.90
14947 2019-09-29 05:04:58 ESP12E-S1 12.30 12.19 99.90
14946 2019-09-29 04:36:42 ESP12E-S1 12.20 12.08 99.90
14945 2019-09-29 04:08:29 ESP12E-S1 12.50 12.41 99.90
14944 2019-09-29 03:40:16 ESP12E-S1 12.70 12.63 99.90
14943 2019-09-29 03:12:01 ESP12E-S1 12.80 12.74 99.90
14942 2019-09-29 02:43:45 ESP12E-S1 12.80 12.74 99.90
14941 2019-09-29 02:15:29 ESP12E-S1 12.80 12.74 99.90
14940 2019-09-29 01:47:13 ESP12E-S1 12.80 12.74 99.90
14939 2019-09-29 01:19:09 ESP12E-S1 13.00 12.96 99.90
14938 2019-09-29 00:50:53 ESP12E-S1 13.20 13.18 99.90
14937 2019-09-29 00:22:43 ESP12E-S1 13.50 13.51 99.90
14936 2019-09-28 23:54:36 ESP12E-S1 13.60 13.62 99.90
14935 2019-09-28 23:26:18 ESP12E-S1 13.80 13.84 99.90
14934 2019-09-28 22:58:09 ESP12E-S1 14.00 14.06 99.90
14933 2019-09-28 22:29:52 ESP12E-S1 14.20 14.28 99.90
14932 2019-09-28 22:01:37 ESP12E-S1 14.50 14.61 99.90
14931 2019-09-28 21:33:22 ESP12E-S1 14.70 14.83 99.90
14930 2019-09-28 21:05:06 ESP12E-S1 14.90 15.05 99.90
14929 2019-09-28 20:37:02 ESP12E-S1 15.00 15.16 99.90
14928 2019-09-28 20:08:43 ESP12E-S1 15.10 15.27 99.90
14927 2019-09-28 19:40:28 ESP12E-S1 15.30 15.49 99.90
14926 2019-09-28 19:12:14 ESP12E-S1 15.60 15.82 99.90
14925 2019-09-28 18:44:00 ESP12E-S1 16.00 16.26 99.90
14924 2019-09-28 18:15:48 ESP12E-S1 16.20 16.48 99.90
14923 2019-09-28 17:47:35 ESP12E-S1 16.50 16.81 99.90
14922 2019-09-28 17:19:22 ESP12E-S1 16.90 17.25 99.90
14921 2019-09-28 16:51:10 ESP12E-S1 17.50 17.89 99.00
14920 2019-09-28 16:22:56 ESP12E-S1 18.10 18.55 99.00
14919 2019-09-28 15:54:36 ESP12E-S1 17.50 17.91 99.90
14918 2019-09-28 15:26:17 ESP12E-S1 17.10 17.47 99.90
14917 2019-09-28 14:57:59 ESP12E-S1 16.50 16.81 99.90
14916 2019-09-28 14:29:46 ESP12E-S1 16.80 17.14 99.90
14915 2019-09-28 14:01:29 ESP12E-S1 16.80 17.14 99.90
14914 2019-09-28 13:33:07 ESP12E-S1 16.00 16.26 99.90
14913 2019-09-28 13:04:48 ESP12E-S1 15.60 15.82 99.90
14912 2019-09-28 12:08:21 ESP12E-S1 15.60 15.82 99.90
14911 2019-09-28 11:40:03 ESP12E-S1 15.10 15.27 99.90
14910 2019-09-28 11:11:47 ESP12E-S1 15.20 15.38 99.90
14909 2019-09-28 10:43:26 ESP12E-S1 14.20 14.28 99.90
14908 2019-09-28 10:15:09 ESP12E-S1 13.70 13.73 99.90
14907 2019-09-28 09:46:54 ESP12E-S1 13.60 13.62 99.90
14906 2019-09-28 09:18:39 ESP12E-S1 13.60 13.62 99.90
14905 2019-09-28 08:50:25 ESP12E-S1 13.50 13.51 99.90
14904 2019-09-28 08:22:08 ESP12E-S1 13.50 13.51 99.90
14903 2019-09-28 07:53:52 ESP12E-S1 13.40 13.40 99.90
14902 2019-09-28 07:25:37 ESP12E-S1 13.40 13.40 99.90
14901 2019-09-28 06:57:22 ESP12E-S1 13.50 13.51 99.90
14900 2019-09-28 06:29:08 ESP12E-S1 13.50 13.51 99.90
14899 2019-09-28 06:00:51 ESP12E-S1 13.50 13.51 99.90
14898 2019-09-28 05:32:38 ESP12E-S1 13.50 13.51 99.90
14897 2019-09-28 05:04:21 ESP12E-S1 13.50 13.51 99.90
14896 2019-09-28 04:36:07 ESP12E-S1 13.50 13.51 99.90
14895 2019-09-28 04:07:50 ESP12E-S1 13.40 13.40 99.90
14894 2019-09-28 03:39:34 ESP12E-S1 13.50 13.51 99.90
14893 2019-09-28 03:11:19 ESP12E-S1 13.50 13.51 99.90
14892 2019-09-28 02:43:04 ESP12E-S1 13.40 13.40 99.90
14891 2019-09-28 02:14:47 ESP12E-S1 13.40 13.40 99.90
14890 2019-09-28 01:46:32 ESP12E-S1 13.30 13.29 99.90
14889 2019-09-28 01:18:18 ESP12E-S1 13.40 13.40 99.90
14888 2019-09-28 00:50:02 ESP12E-S1 13.40 13.40 99.90
14887 2019-09-28 00:21:47 ESP12E-S1 13.50 13.51 99.90
14886 2019-09-27 23:53:31 ESP12E-S1 13.60 13.62 99.90
14885 2019-09-27 23:25:16 ESP12E-S1 13.70 13.73 99.90
14884 2019-09-27 22:57:00 ESP12E-S1 13.80 13.84 99.90
14883 2019-09-27 22:28:44 ESP12E-S1 13.80 13.84 99.90
14882 2019-09-27 22:00:30 ESP12E-S1 14.10 14.17 99.90
14881 2019-09-27 21:32:16 ESP12E-S1 14.30 14.39 99.90
14880 2019-09-27 21:04:01 ESP12E-S1 14.50 14.61 99.90
14879 2019-09-27 20:35:47 ESP12E-S1 14.60 14.72 99.90
14878 2019-09-27 20:07:31 ESP12E-S1 14.80 14.94 99.90
14877 2019-09-27 19:39:15 ESP12E-S1 14.90 15.05 99.90
14876 2019-09-27 19:11:02 ESP12E-S1 15.20 15.38 99.90
14875 2019-09-27 18:42:48 ESP12E-S1 15.70 15.93 99.90
14874 2019-09-27 18:14:47 ESP12E-S1 16.10 16.37 99.90
14873 2019-09-27 17:46:33 ESP12E-S1 16.60 16.92 99.90
14872 2019-09-27 17:18:16 ESP12E-S1 17.10 17.47 99.90
14871 2019-09-27 16:50:00 ESP12E-S1 16.30 16.59 99.90
14870 2019-09-27 16:21:41 ESP12E-S1 15.50 15.71 99.90
14869 2019-09-27 15:53:26 ESP12E-S1 15.60 15.82 99.90
14868 2019-09-27 15:25:09 ESP12E-S1 15.60 15.82 99.90
14867 2019-09-27 14:56:51 ESP12E-S1 15.40 15.60 99.90
14866 2019-09-27 14:28:35 ESP12E-S1 15.40 15.60 99.90
14865 2019-09-27 14:00:19 ESP12E-S1 15.40 15.60 99.90
14864 2019-09-27 13:32:08 ESP12E-S1 15.40 15.60 99.90
14863 2019-09-27 13:03:48 ESP12E-S1 15.20 15.38 99.90
14862 2019-09-27 12:35:32 ESP12E-S1 15.10 15.27 99.90
14861 2019-09-27 12:07:15 ESP12E-S1 14.90 15.05 99.90
14860 2019-09-27 11:39:01 ESP12E-S1 15.10 15.27 99.90
14859 2019-09-27 11:10:45 ESP12E-S1 15.00 15.16 99.90
14858 2019-09-27 10:42:27 ESP12E-S1 14.80 14.94 99.90
14857 2019-09-27 10:14:11 ESP12E-S1 14.60 14.72 99.90
14856 2019-09-27 09:45:55 ESP12E-S1 14.60 14.72 99.90
14855 2019-09-27 09:17:39 ESP12E-S1 14.80 14.94 99.90
14854 2019-09-27 08:49:24 ESP12E-S1 14.80 14.94 99.90
14853 2019-09-27 08:21:08 ESP12E-S1 14.90 15.05 99.90
14852 2019-09-27 07:52:52 ESP12E-S1 14.90 15.05 99.90
14851 2019-09-27 07:24:36 ESP12E-S1 15.00 15.16 99.90
14850 2019-09-27 06:56:20 ESP12E-S1 15.00 15.16 99.90
14849 2019-09-27 06:28:05 ESP12E-S1 15.00 15.16 99.90
14848 2019-09-27 05:59:49 ESP12E-S1 15.00 15.16 99.90
14847 2019-09-27 05:31:34 ESP12E-S1 15.00 15.16 99.90
14846 2019-09-27 05:03:18 ESP12E-S1 15.10 15.27 99.90
14845 2019-09-27 04:35:03 ESP12E-S1 15.10 15.27 99.90
14844 2019-09-27 04:06:47 ESP12E-S1 15.20 15.38 99.90
14843 2019-09-27 03:38:31 ESP12E-S1 15.20 15.38 99.90
14842 2019-09-27 03:10:16 ESP12E-S1 15.30 15.49 99.90
14841 2019-09-27 02:42:00 ESP12E-S1 15.30 15.49 99.90
14840 2019-09-27 02:13:50 ESP12E-S1 15.30 15.49 99.90
14839 2019-09-27 01:45:31 ESP12E-S1 15.30 15.49 99.90
14838 2019-09-27 01:17:15 ESP12E-S1 15.40 15.60 99.90
14837 2019-09-27 00:48:59 ESP12E-S1 15.40 15.60 99.90
14836 2019-09-27 00:20:43 ESP12E-S1 15.40 15.60 99.90
14835 2019-09-26 23:52:26 ESP12E-S1 15.40 15.60 99.90
14834 2019-09-26 23:24:10 ESP12E-S1 15.40 15.60 99.90
14833 2019-09-26 22:55:54 ESP12E-S1 15.50 15.71 99.90
14832 2019-09-26 22:27:40 ESP12E-S1 15.50 15.71 99.90
14831 2019-09-26 21:59:23 ESP12E-S1 15.60 15.82 99.90
14830 2019-09-26 21:31:08 ESP12E-S1 15.80 16.04 99.90
14829 2019-09-26 21:02:54 ESP12E-S1 15.90 16.15 99.90
14828 2019-09-26 20:34:38 ESP12E-S1 15.90 16.15 99.90
14827 2019-09-26 20:06:21 ESP12E-S1 15.90 16.15 99.90
14826 2019-09-26 19:38:05 ESP12E-S1 15.90 16.15 99.90
14825 2019-09-26 19:09:48 ESP12E-S1 15.90 16.15 99.90
14824 2019-09-26 18:41:33 ESP12E-S1 15.90 16.15 99.90
14823 2019-09-26 18:13:16 ESP12E-S1 15.90 16.15 99.90
14822 2019-09-26 17:45:00 ESP12E-S1 15.90 16.15 99.90
14821 2019-09-26 17:16:44 ESP12E-S1 15.90 16.15 99.90
14820 2019-09-26 16:48:28 ESP12E-S1 15.90 16.15 99.90
14819 2019-09-26 16:20:12 ESP12E-S1 15.80 16.04 99.90
14818 2019-09-26 15:51:56 ESP12E-S1 15.70 15.93 99.90
14817 2019-09-26 15:23:38 ESP12E-S1 15.60 15.82 99.90
14816 2019-09-26 14:55:20 ESP12E-S1 15.40 15.60 99.90
14815 2019-09-26 14:27:03 ESP12E-S1 15.30 15.49 99.90
14814 2019-09-26 13:58:46 ESP12E-S1 15.20 15.38 99.90
14813 2019-09-26 13:30:29 ESP12E-S1 15.10 15.27 99.90
14812 2019-09-26 13:02:12 ESP12E-S1 15.10 15.27 99.90
14811 2019-09-26 12:33:57 ESP12E-S1 15.00 15.16 99.90
14810 2019-09-26 12:05:40 ESP12E-S1 14.80 14.94 99.90
14809 2019-09-26 11:37:22 ESP12E-S1 14.80 14.94 99.90
14808 2019-09-26 11:09:06 ESP12E-S1 14.70 14.83 99.90
14807 2019-09-26 10:40:50 ESP12E-S1 14.70 14.83 99.90
14806 2019-09-26 10:12:33 ESP12E-S1 14.60 14.72 99.90
14805 2019-09-26 09:44:16 ESP12E-S1 14.60 14.72 99.90
14804 2019-09-26 09:16:00 ESP12E-S1 14.50 14.61 99.90
14803 2019-09-26 08:47:43 ESP12E-S1 14.40 14.50 99.90
14802 2019-09-26 08:19:26 ESP12E-S1 14.30 14.39 99.90
14801 2019-09-26 07:51:15 ESP12E-S1 14.40 14.50 99.90
14800 2019-09-26 07:22:58 ESP12E-S1 14.30 14.39 99.90
14799 2019-09-26 06:54:42 ESP12E-S1 14.30 14.39 99.90
14798 2019-09-26 06:26:28 ESP12E-S1 14.30 14.39 99.90
14797 2019-09-26 05:58:12 ESP12E-S1 14.40 14.50 99.90
14796 2019-09-26 05:29:56 ESP12E-S1 14.40 14.50 99.90
14795 2019-09-26 05:01:42 ESP12E-S1 14.40 14.50 99.90
14794 2019-09-26 04:33:25 ESP12E-S1 14.40 14.50 99.90
14793 2019-09-26 04:05:11 ESP12E-S1 14.40 14.50 99.90
14792 2019-09-26 03:36:55 ESP12E-S1 14.50 14.61 99.90
14791 2019-09-26 03:08:39 ESP12E-S1 14.50 14.61 99.90
14790 2019-09-26 02:40:23 ESP12E-S1 14.60 14.72 99.90
14789 2019-09-26 02:12:08 ESP12E-S1 14.60 14.72 99.90
14788 2019-09-26 01:43:53 ESP12E-S1 14.70 14.83 99.90
14787 2019-09-26 01:15:37 ESP12E-S1 14.70 14.83 99.90
14786 2019-09-26 00:47:22 ESP12E-S1 14.80 14.94 99.90
14785 2019-09-26 00:19:06 ESP12E-S1 14.80 14.94 99.90
14784 2019-09-25 23:50:51 ESP12E-S1 14.80 14.94 99.90
14783 2019-09-25 23:22:35 ESP12E-S1 14.90 15.05 99.90
14782 2019-09-25 22:54:20 ESP12E-S1 14.90 15.05 99.90
14781 2019-09-25 22:26:05 ESP12E-S1 15.00 15.16 99.90
14780 2019-09-25 21:57:50 ESP12E-S1 15.20 15.38 99.90
14779 2019-09-25 21:29:35 ESP12E-S1 15.40 15.60 99.90
14778 2019-09-25 21:01:19 ESP12E-S1 15.60 15.82 99.90
14777 2019-09-25 20:33:03 ESP12E-S1 15.80 16.04 99.90
14776 2019-09-25 20:04:48 ESP12E-S1 16.00 16.26 99.90
14775 2019-09-25 19:36:34 ESP12E-S1 16.20 16.46 99.10
14774 2019-09-25 19:08:20 ESP12E-S1 16.50 16.73 96.70
14773 2019-09-25 18:40:06 ESP12E-S1 16.90 17.12 94.80
14772 2019-09-25 18:11:51 ESP12E-S1 17.30 17.53 93.80
14771 2019-09-25 17:43:39 ESP12E-S1 17.90 18.11 90.40
14770 2019-09-25 17:15:25 ESP12E-S1 18.20 18.34 86.80
14769 2019-09-25 16:47:09 ESP12E-S1 18.90 19.13 87.50
14768 2019-09-25 16:18:56 ESP12E-S1 19.00 19.08 81.20
14767 2019-09-25 15:50:40 ESP12E-S1 19.80 19.94 80.70
14766 2019-09-25 15:22:15 ESP12E-S1 18.40 18.72 92.90
14765 2019-09-25 14:54:25 ESP12E-S1 18.10 18.41 93.70
14764 2019-09-25 14:25:56 ESP12E-S1 18.10 18.47 96.00
14763 2019-09-25 13:57:38 ESP12E-S1 18.10 18.56 99.30
14762 2019-09-25 13:29:25 ESP12E-S1 18.40 18.90 99.90
14761 2019-09-25 13:01:06 ESP12E-S1 17.90 18.35 99.90
14760 2019-09-25 12:32:35 ESP12E-S1 16.00 16.26 99.90
14759 2019-09-25 12:04:17 ESP12E-S1 15.70 15.93 99.90
14758 2019-09-25 11:35:56 ESP12E-S1 14.80 14.94 99.90
14757 2019-09-25 11:07:37 ESP12E-S1 14.60 14.72 99.90
14756 2019-09-25 10:39:21 ESP12E-S1 14.40 14.50 99.90
14755 2019-09-25 10:11:06 ESP12E-S1 14.50 14.61 99.90
14754 2019-09-25 09:42:49 ESP12E-S1 14.40 14.50 99.90
14753 2019-09-25 09:14:34 ESP12E-S1 14.20 14.28 99.90
14752 2019-09-25 08:46:17 ESP12E-S1 13.80 13.84 99.90
14751 2019-09-25 08:18:03 ESP12E-S1 13.60 13.62 99.90
14750 2019-09-25 07:49:47 ESP12E-S1 13.60 13.62 99.90
14749 2019-09-25 07:21:33 ESP12E-S1 13.70 13.73 99.90
14748 2019-09-25 06:53:19 ESP12E-S1 13.90 13.95 99.90
14747 2019-09-25 06:25:05 ESP12E-S1 14.10 14.17 99.90
14746 2019-09-25 05:56:50 ESP12E-S1 14.20 14.28 99.90
14745 2019-09-25 05:28:34 ESP12E-S1 14.20 14.28 99.90
14744 2019-09-25 05:00:19 ESP12E-S1 14.30 14.39 99.90
14743 2019-09-25 04:32:03 ESP12E-S1 14.40 14.50 99.90
14742 2019-09-25 04:03:48 ESP12E-S1 14.40 14.50 99.90
14741 2019-09-25 03:35:32 ESP12E-S1 14.40 14.50 99.90
14740 2019-09-25 03:07:15 ESP12E-S1 14.30 14.39 99.90
14739 2019-09-25 02:39:01 ESP12E-S1 14.30 14.39 99.90
14738 2019-09-25 02:10:45 ESP12E-S1 14.40 14.50 99.90
14737 2019-09-25 01:42:28 ESP12E-S1 14.30 14.39 99.90
14736 2019-09-25 01:14:11 ESP12E-S1 14.30 14.39 99.90
14735 2019-09-25 00:45:56 ESP12E-S1 14.30 14.39 99.90
14734 2019-09-25 00:17:41 ESP12E-S1 14.30 14.39 99.90
14733 2019-09-24 23:49:25 ESP12E-S1 14.30 14.39 99.90
14732 2019-09-24 23:21:10 ESP12E-S1 14.50 14.61 99.90
14731 2019-09-24 22:24:39 ESP12E-S1 14.80 14.94 99.90
14730 2019-09-24 21:56:23 ESP12E-S1 14.90 15.05 99.90
14729 2019-09-24 21:28:08 ESP12E-S1 15.00 15.16 99.90
14728 2019-09-24 20:59:53 ESP12E-S1 15.20 15.38 99.90
14727 2019-09-24 20:31:37 ESP12E-S1 15.50 15.71 99.90
14726 2019-09-24 20:03:23 ESP12E-S1 15.80 16.04 99.90
14725 2019-09-24 19:35:09 ESP12E-S1 16.10 16.37 99.90
14724 2019-09-24 19:06:52 ESP12E-S1 16.40 16.70 99.90
14723 2019-09-24 18:38:36 ESP12E-S1 16.60 16.92 99.90
14722 2019-09-24 18:10:22 ESP12E-S1 16.80 17.14 99.90
14721 2019-09-24 17:42:07 ESP12E-S1 17.00 17.36 99.90
14720 2019-09-24 17:13:52 ESP12E-S1 17.20 17.53 97.90
14719 2019-09-24 16:45:38 ESP12E-S1 17.40 17.70 95.80
14718 2019-09-24 16:17:24 ESP12E-S1 17.50 17.79 95.00
14717 2019-09-24 15:49:09 ESP12E-S1 17.70 18.01 95.30
14716 2019-09-24 15:20:55 ESP12E-S1 18.10 18.39 93.00
14715 2019-09-24 14:52:41 ESP12E-S1 18.20 18.50 93.00
14714 2019-09-24 14:24:28 ESP12E-S1 18.60 18.93 92.50
14713 2019-09-24 13:56:09 ESP12E-S1 18.10 18.45 95.10
14712 2019-09-24 13:27:52 ESP12E-S1 17.60 17.98 98.40
14711 2019-09-24 12:59:35 ESP12E-S1 17.40 17.75 97.80
14710 2019-09-24 12:31:19 ESP12E-S1 17.40 17.75 97.80
14709 2019-09-24 12:03:02 ESP12E-S1 17.30 17.67 99.10
14708 2019-09-24 11:34:44 ESP12E-S1 17.20 17.57 99.30
14707 2019-09-24 11:06:21 ESP12E-S1 16.40 16.70 99.90
14706 2019-09-24 10:37:59 ESP12E-S1 15.70 15.93 99.90
14705 2019-09-24 10:09:39 ESP12E-S1 15.00 15.16 99.90
14704 2019-09-24 09:41:19 ESP12E-S1 14.20 14.28 99.90
14703 2019-09-24 09:13:00 ESP12E-S1 13.70 13.73 99.90
14702 2019-09-24 08:44:44 ESP12E-S1 13.20 13.18 99.90
14701 2019-09-24 08:16:25 ESP12E-S1 12.80 12.74 99.90
14700 2019-09-24 07:48:09 ESP12E-S1 12.50 12.41 99.90
14699 2019-09-24 07:19:52 ESP12E-S1 12.30 12.19 99.90
14698 2019-09-24 06:51:36 ESP12E-S1 12.30 12.19 99.90
14697 2019-09-24 06:23:24 ESP12E-S1 12.50 12.41 99.90
14696 2019-09-24 05:55:10 ESP12E-S1 12.70 12.63 99.90
14695 2019-09-24 05:26:56 ESP12E-S1 12.90 12.85 99.90
14694 2019-09-24 04:58:41 ESP12E-S1 13.00 12.96 99.90
14693 2019-09-24 04:30:28 ESP12E-S1 13.20 13.18 99.90
14692 2019-09-24 04:02:13 ESP12E-S1 13.40 13.40 99.90
14691 2019-09-24 03:33:59 ESP12E-S1 13.60 13.62 99.90
14690 2019-09-24 03:05:45 ESP12E-S1 13.90 13.95 99.90
14689 2019-09-24 02:37:30 ESP12E-S1 14.20 14.28 99.90
14688 2019-09-24 02:09:15 ESP12E-S1 14.20 14.28 99.90
14687 2019-09-24 01:40:59 ESP12E-S1 14.20 14.28 99.90
14686 2019-09-24 01:12:43 ESP12E-S1 13.90 13.95 99.90
14685 2019-09-24 00:44:28 ESP12E-S1 14.00 14.06 99.90
14684 2019-09-24 00:16:13 ESP12E-S1 14.20 14.28 99.90
14683 2019-09-23 23:47:58 ESP12E-S1 14.30 14.39 99.90
14682 2019-09-23 23:19:45 ESP12E-S1 14.50 14.61 99.90
14681 2019-09-23 22:51:30 ESP12E-S1 14.70 14.83 99.90
14680 2019-09-23 22:23:16 ESP12E-S1 14.90 15.05 99.90
14679 2019-09-23 21:55:02 ESP12E-S1 15.30 15.48 99.20
14678 2019-09-23 21:26:47 ESP12E-S1 15.70 15.91 98.80
14677 2019-09-23 20:58:35 ESP12E-S1 15.90 16.11 98.30
14676 2019-09-23 20:30:20 ESP12E-S1 16.30 16.52 97.10
14675 2019-09-23 20:02:06 ESP12E-S1 16.60 16.82 95.90
14674 2019-09-23 19:33:55 ESP12E-S1 17.30 17.57 95.10
14673 2019-09-23 19:05:43 ESP12E-S1 17.90 18.16 92.60
14672 2019-09-23 18:37:30 ESP12E-S1 18.40 18.65 90.30
14671 2019-09-23 18:09:16 ESP12E-S1 18.80 19.09 90.10
14670 2019-09-23 17:41:02 ESP12E-S1 19.30 19.64 90.00
14669 2019-09-23 17:12:49 ESP12E-S1 20.00 20.41 90.10
14668 2019-09-23 16:44:35 ESP12E-S1 20.20 20.68 92.00
14667 2019-09-23 16:16:16 ESP12E-S1 19.30 19.84 97.80
14666 2019-09-23 15:48:04 ESP12E-S1 19.90 20.43 95.20
14665 2019-09-23 15:19:45 ESP12E-S1 20.20 20.74 94.50
14664 2019-09-23 14:51:19 ESP12E-S1 19.00 19.56 99.90
14663 2019-09-23 14:23:03 ESP12E-S1 18.50 19.01 99.90
14662 2019-09-23 13:54:43 ESP12E-S1 17.70 18.13 99.90
14661 2019-09-23 13:26:25 ESP12E-S1 17.10 17.47 99.90
14660 2019-09-23 12:58:08 ESP12E-S1 17.00 17.36 99.90
14659 2019-09-23 12:29:48 ESP12E-S1 16.50 16.81 99.90
14658 2019-09-23 12:01:28 ESP12E-S1 16.30 16.59 99.90
14657 2019-09-23 11:33:11 ESP12E-S1 16.00 16.26 99.90
14656 2019-09-23 11:04:57 ESP12E-S1 16.00 16.26 99.90
14655 2019-09-23 10:36:38 ESP12E-S1 15.60 15.82 99.90
14654 2019-09-23 10:08:21 ESP12E-S1 15.20 15.38 99.90
14653 2019-09-23 09:40:05 ESP12E-S1 15.20 15.38 99.90
14652 2019-09-23 09:11:49 ESP12E-S1 15.20 15.38 99.90
14651 2019-09-23 08:43:32 ESP12E-S1 15.20 15.38 99.90
14650 2019-09-23 08:15:19 ESP12E-S1 15.40 15.60 99.90
14649 2019-09-23 07:47:03 ESP12E-S1 15.50 15.71 99.90
14648 2019-09-23 07:18:48 ESP12E-S1 15.70 15.93 99.90
14647 2019-09-23 06:50:34 ESP12E-S1 15.90 16.15 99.90
14646 2019-09-23 06:22:19 ESP12E-S1 16.10 16.35 98.80
14645 2019-09-23 05:54:07 ESP12E-S1 16.60 16.81 95.50
14644 2019-09-23 05:25:55 ESP12E-S1 17.00 17.20 93.70
14643 2019-09-23 04:57:42 ESP12E-S1 17.50 17.68 90.80
14642 2019-09-23 04:29:30 ESP12E-S1 17.90 17.97 85.10
14641 2019-09-23 04:01:14 ESP12E-S1 18.10 18.20 85.70
14640 2019-09-23 03:33:02 ESP12E-S1 18.30 18.36 83.10
14639 2019-09-22 23:47:02 ESP12E-S1 19.30 18.84 59.40
14638 2019-09-22 23:18:47 ESP12E-S1 19.40 18.97 60.20
14637 2019-09-22 22:50:33 ESP12E-S1 19.50 19.00 57.40
14636 2019-09-22 22:22:17 ESP12E-S1 19.60 19.11 57.30
14635 2019-09-22 21:54:05 ESP12E-S1 19.80 19.32 56.70
14634 2019-09-22 21:25:51 ESP12E-S1 20.00 19.53 56.40
14633 2019-09-22 20:57:41 ESP12E-S1 20.30 19.83 55.30
14632 2019-09-22 20:29:51 ESP12E-S1 20.50 20.01 53.80
14631 2019-09-22 20:01:36 ESP12E-S1 21.00 20.57 54.10
14630 2019-09-22 19:33:20 ESP12E-S1 21.30 20.88 53.60
14629 2019-09-22 19:05:11 ESP12E-S1 21.80 21.37 51.20
14628 2019-09-22 18:36:56 ESP12E-S1 22.40 21.97 49.00
14627 2019-09-22 18:08:44 ESP12E-S1 23.00 22.63 48.80
14626 2019-09-22 17:40:29 ESP12E-S1 23.50 23.14 47.40
14625 2019-09-22 17:12:19 ESP12E-S1 24.40 24.10 46.20
14624 2019-09-22 16:44:07 ESP12E-S1 25.60 25.39 45.00
14623 2019-09-22 16:15:49 ESP12E-S1 24.70 24.45 47.00
14622 2019-09-22 15:47:30 ESP12E-S1 24.50 24.23 46.90
14621 2019-09-22 15:19:16 ESP12E-S1 25.10 24.85 45.20
14620 2019-09-22 14:51:01 ESP12E-S1 24.60 24.34 46.80
14619 2019-09-22 14:22:48 ESP12E-S1 24.90 24.69 47.60
14618 2019-09-22 13:54:25 ESP12E-S1 23.60 23.28 48.50
14617 2019-09-22 13:26:10 ESP12E-S1 23.70 23.43 50.00
14616 2019-09-22 12:57:51 ESP12E-S1 22.90 22.59 51.50
14615 2019-09-22 12:29:28 ESP12E-S1 21.20 20.75 52.80
14614 2019-09-22 12:01:06 ESP12E-S1 20.10 19.59 54.40
14613 2019-09-22 11:32:43 ESP12E-S1 19.10 18.51 55.20
14612 2019-09-22 11:04:32 ESP12E-S1 18.20 55.80
14611 2019-09-22 10:36:09 ESP12E-S1 17.20 56.90
14610 2019-09-22 10:07:49 ESP12E-S1 16.40 58.50
14609 2019-09-22 09:39:30 ESP12E-S1 15.80 58.40
14608 2019-09-22 08:42:53 ESP12E-S1 14.70 61.90
14607 2019-09-22 08:14:36 ESP12E-S1 14.20 61.00
14606 2019-09-22 07:46:22 ESP12E-S1 14.10 59.60
14605 2019-09-22 07:18:09 ESP12E-S1 14.30 58.70
14604 2019-09-22 06:49:55 ESP12E-S1 14.50 57.70
14603 2019-09-22 06:21:43 ESP12E-S1 14.70 56.50
14602 2019-09-22 05:53:29 ESP12E-S1 15.00 56.20
14601 2019-09-22 05:25:13 ESP12E-S1 15.10 55.80
14600 2019-09-22 04:56:59 ESP12E-S1 15.20 55.10
14599 2019-09-22 04:28:46 ESP12E-S1 15.40 54.80
14598 2019-09-22 04:00:32 ESP12E-S1 15.60 54.10
14597 2019-09-22 03:32:17 ESP12E-S1 15.80 53.30
14596 2019-09-22 03:04:03 ESP12E-S1 16.00 53.00
14595 2019-09-22 02:35:49 ESP12E-S1 16.10 52.30
14594 2019-09-22 02:07:36 ESP12E-S1 16.30 51.30
14593 2019-09-22 01:39:21 ESP12E-S1 16.50 50.30
14592 2019-09-22 01:11:07 ESP12E-S1 16.70 50.00
14591 2019-09-22 00:42:53 ESP12E-S1 16.80 49.40
14590 2019-09-22 00:14:39 ESP12E-S1 17.00 49.00
14589 2019-09-21 23:46:25 ESP12E-S1 17.30 48.30
14588 2019-09-21 23:18:10 ESP12E-S1 17.50 47.40
14587 2019-09-21 22:49:55 ESP12E-S1 17.80 47.10
14586 2019-09-21 22:21:40 ESP12E-S1 18.00 46.80
14585 2019-09-21 21:53:26 ESP12E-S1 18.30 45.90
14584 2019-09-21 21:25:13 ESP12E-S1 18.60 44.90
14583 2019-09-21 20:57:00 ESP12E-S1 19.00 43.90
14582 2019-09-21 20:28:47 ESP12E-S1 19.50 44.20
14581 2019-09-21 20:00:33 ESP12E-S1 20.10 42.90
14580 2019-09-21 19:32:21 ESP12E-S1 20.70 42.60
14579 2019-09-21 19:04:11 ESP12E-S1 21.80 42.40
14578 2019-09-21 18:35:58 ESP12E-S1 22.60 40.50
14577 2019-09-21 18:07:45 ESP12E-S1 23.30 39.50
14576 2019-09-21 17:39:33 ESP12E-S1 24.30 38.70
14575 2019-09-21 17:11:17 ESP12E-S1 24.70 39.00
14574 2019-09-21 16:43:03 ESP12E-S1 25.20 38.30
14573 2019-09-21 16:14:48 ESP12E-S1 26.00 38.00
14572 2019-09-21 15:46:28 ESP12E-S1 25.70 36.90
14571 2019-09-21 15:18:09 ESP12E-S1 24.90 24.47 39.40
14570 2019-09-21 14:21:33 ESP12E-S1 23.60 23.09 41.10
14569 2019-09-21 13:53:14 ESP12E-S1 23.10 22.56 41.80
14568 2019-09-21 13:24:56 ESP12E-S1 22.70 22.16 43.60
14567 2019-09-21 12:56:39 ESP12E-S1 22.40 21.85 44.30
14566 2019-09-21 12:28:02 ESP12E-S1 19.70 18.97 47.60
14565 2019-09-21 11:59:39 ESP12E-S1 17.90 17.04 49.50
14564 2019-09-21 11:31:20 ESP12E-S1 16.90 15.99 51.60
14563 2019-09-21 11:02:56 ESP12E-S1 15.80 14.75 50.20
14562 2019-09-21 10:34:36 ESP12E-S1 14.80 13.71 52.50
14561 2019-09-21 10:06:15 ESP12E-S1 13.90 12.74 53.50
14560 2019-09-21 09:37:55 ESP12E-S1 13.20 11.99 54.20
14559 2019-09-21 09:09:37 ESP12E-S1 12.70 11.44 54.00
14558 2019-09-21 08:41:19 ESP12E-S1 12.30 11.03 55.40
14557 2019-09-21 08:13:01 ESP12E-S1 12.00 10.70 55.30
14556 2019-09-21 07:44:45 ESP12E-S1 11.80 10.47 54.80
14555 2019-09-21 07:16:31 ESP12E-S1 11.60 10.25 55.10
14554 2019-09-21 06:48:15 ESP12E-S1 11.70 10.34 54.20
14553 2019-09-21 06:20:01 ESP12E-S1 11.80 10.45 54.10
14552 2019-09-21 05:51:45 ESP12E-S1 11.90 10.55 53.70
14551 2019-09-21 05:23:30 ESP12E-S1 12.00 10.64 53.20
14550 2019-09-21 04:55:15 ESP12E-S1 12.00 10.63 52.80
14549 2019-09-21 04:26:59 ESP12E-S1 12.10 10.74 52.80
14548 2019-09-21 03:58:45 ESP12E-S1 12.20 10.84 52.20
14547 2019-09-21 03:30:30 ESP12E-S1 12.30 10.94 52.00
14546 2019-09-21 03:02:15 ESP12E-S1 12.40 11.04 51.40
14545 2019-09-21 02:34:02 ESP12E-S1 12.60 11.25 51.30
14544 2019-09-21 02:05:47 ESP12E-S1 12.80 11.46 50.80
14543 2019-09-21 01:37:33 ESP12E-S1 12.90 11.57 50.70
14542 2019-09-21 01:09:20 ESP12E-S1 13.10 11.77 50.00
14541 2019-09-21 00:41:05 ESP12E-S1 13.10 11.78 50.20
14540 2019-09-21 00:12:52 ESP12E-S1 13.20 11.89 50.40
14539 2019-09-20 23:44:37 ESP12E-S1 13.40 12.10 49.90
14538 2019-09-20 23:16:24 ESP12E-S1 13.60 12.32 49.80
14537 2019-09-20 22:48:11 ESP12E-S1 13.90 12.68 51.20
14536 2019-09-20 22:19:58 ESP12E-S1 14.20 13.04 52.30
14535 2019-09-20 21:51:44 ESP12E-S1 14.50 13.34 51.10
14534 2019-09-20 21:23:30 ESP12E-S1 14.80 13.65 50.30
14533 2019-09-20 20:55:15 ESP12E-S1 15.00 13.87 50.50
14532 2019-09-20 20:27:02 ESP12E-S1 15.50 14.40 49.70
14531 2019-09-20 19:58:51 ESP12E-S1 16.20 15.16 49.30
14530 2019-09-20 19:30:41 ESP12E-S1 17.20 16.25 48.70
14529 2019-09-20 19:02:29 ESP12E-S1 17.90 16.90 44.20
14528 2019-09-20 18:34:19 ESP12E-S1 18.80 17.82 41.50
14527 2019-09-20 18:06:08 ESP12E-S1 19.60 18.71 42.00
14526 2019-09-20 17:37:58 ESP12E-S1 20.80 19.96 39.10
14525 2019-09-20 17:09:46 ESP12E-S1 21.20 20.44 40.80
14524 2019-09-20 16:41:32 ESP12E-S1 21.80 21.05 38.80
14523 2019-09-20 16:13:18 ESP12E-S1 22.20 21.49 38.90
14522 2019-09-20 15:44:59 ESP12E-S1 22.00 21.32 40.70
14521 2019-09-20 15:16:39 ESP12E-S1 21.30 20.58 41.90
14520 2019-09-20 14:48:20 ESP12E-S1 20.60 19.81 42.00
14519 2019-09-20 14:20:03 ESP12E-S1 20.00 19.17 42.80
14518 2019-09-20 13:51:45 ESP12E-S1 19.60 18.79 45.10
14517 2019-09-20 13:23:28 ESP12E-S1 19.30 18.42 43.40
14516 2019-09-20 12:55:16 ESP12E-S1 18.60 17.75 47.40
14515 2019-09-20 12:26:54 ESP12E-S1 17.10 16.11 47.80
14514 2019-09-20 11:58:30 ESP12E-S1 15.70 14.71 53.10
14513 2019-09-20 11:30:09 ESP12E-S1 14.90 13.83 53.10
14512 2019-09-20 11:01:49 ESP12E-S1 13.80 12.70 56.10
14511 2019-09-20 10:33:29 ESP12E-S1 13.20 12.09 58.00
14510 2019-09-20 10:05:10 ESP12E-S1 12.30 11.17 60.70
14509 2019-09-20 09:36:51 ESP12E-S1 11.70 10.47 59.20
14508 2019-09-20 09:08:32 ESP12E-S1 11.00 9.90 67.00
14507 2019-09-20 08:40:15 ESP12E-S1 10.40 9.07 60.40
14506 2019-09-20 08:11:57 ESP12E-S1 9.90 8.57 62.10
14505 2019-09-20 07:43:43 ESP12E-S1 9.60 8.20 60.70
14504 2019-09-20 07:15:28 ESP12E-S1 9.50 8.08 60.30
14503 2019-09-20 06:47:13 ESP12E-S1 9.60 8.18 59.80
14502 2019-09-20 06:18:59 ESP12E-S1 9.70 8.29 59.80
14501 2019-09-20 05:50:46 ESP12E-S1 9.90 8.48 58.90
14500 2019-09-20 05:22:32 ESP12E-S1 10.00 8.56 57.80
14499 2019-09-20 04:54:17 ESP12E-S1 10.20 8.78 57.50
14498 2019-09-20 04:26:03 ESP12E-S1 10.40 8.99 57.30
14497 2019-09-20 03:57:48 ESP12E-S1 10.50 9.09 57.00
14496 2019-09-20 03:29:34 ESP12E-S1 10.60 9.19 56.40
14495 2019-09-20 03:01:20 ESP12E-S1 10.70 9.29 56.10
14494 2019-09-20 02:33:05 ESP12E-S1 10.90 9.49 55.20
14493 2019-09-20 02:04:51 ESP12E-S1 11.00 9.60 55.50
14492 2019-09-20 01:36:38 ESP12E-S1 11.20 9.80 54.50
14491 2019-09-20 01:08:25 ESP12E-S1 11.50 10.11 53.80
14490 2019-09-20 00:40:10 ESP12E-S1 11.70 10.30 52.70
14489 2019-09-20 00:11:56 ESP12E-S1 11.70 10.31 52.90
14488 2019-09-19 23:43:42 ESP12E-S1 12.10 10.72 51.80
14487 2019-09-19 23:15:33 ESP12E-S1 12.20 10.81 51.10
14486 2019-09-19 22:47:18 ESP12E-S1 12.30 10.92 51.10
14485 2019-09-19 22:19:05 ESP12E-S1 12.50 11.13 50.90
14484 2019-09-19 21:50:54 ESP12E-S1 12.90 11.56 50.30
14483 2019-09-19 21:22:41 ESP12E-S1 13.20 11.91 51.00
14482 2019-09-19 20:54:30 ESP12E-S1 13.70 12.41 49.10
14481 2019-09-19 20:26:19 ESP12E-S1 14.30 13.06 48.70
14480 2019-09-19 19:58:09 ESP12E-S1 15.00 13.80 47.50
14479 2019-09-19 19:29:59 ESP12E-S1 16.00 14.85 45.60
14478 2019-09-19 19:01:47 ESP12E-S1 16.70 15.59 44.60
14477 2019-09-19 18:33:37 ESP12E-S1 17.70 16.64 42.80
14476 2019-09-19 18:05:28 ESP12E-S1 18.60 17.61 42.10
14475 2019-09-19 17:37:24 ESP12E-S1 19.90 19.00 40.30
14474 2019-09-19 17:09:08 ESP12E-S1 20.20 19.33 40.40
14473 2019-09-19 16:40:58 ESP12E-S1 20.70 19.90 41.20
14472 2019-09-19 16:12:41 ESP12E-S1 21.20 20.46 41.40
14471 2019-09-19 15:44:23 ESP12E-S1 21.00 20.26 42.20
14470 2019-09-19 15:16:05 ESP12E-S1 20.40 19.79 49.70
14469 2019-09-19 14:47:48 ESP12E-S1 20.40 19.63 43.30
14468 2019-09-19 14:19:31 ESP12E-S1 20.00 19.23 44.90
14467 2019-09-19 13:51:15 ESP12E-S1 19.20 18.38 46.10
14466 2019-09-19 13:23:00 ESP12E-S1 19.20 18.37 45.90
14465 2019-09-19 12:54:49 ESP12E-S1 19.80 19.01 44.90
14464 2019-09-19 12:26:18 ESP12E-S1 17.80 16.87 47.40
14463 2019-09-19 11:57:59 ESP12E-S1 16.60 15.66 51.40
14462 2019-09-19 11:29:35 ESP12E-S1 15.60 14.63 54.20
14461 2019-09-19 11:01:14 ESP12E-S1 14.60 13.56 55.50
14460 2019-09-19 10:32:52 ESP12E-S1 13.60 12.58 59.80
14459 2019-09-19 10:04:35 ESP12E-S1 12.70 11.68 63.20
14458 2019-09-19 09:36:18 ESP12E-S1 12.00 10.92 63.70
14457 2019-09-19 09:07:59 ESP12E-S1 11.40 10.34 66.70
14456 2019-09-19 08:39:41 ESP12E-S1 10.90 9.86 69.50
14455 2019-09-19 08:11:23 ESP12E-S1 10.60 9.54 70.00
14454 2019-09-19 07:43:09 ESP12E-S1 10.50 9.41 69.10
14453 2019-09-19 07:14:54 ESP12E-S1 10.60 9.49 68.10
14452 2019-09-19 06:46:40 ESP12E-S1 10.70 9.59 67.40
14451 2019-09-19 06:18:25 ESP12E-S1 10.80 9.65 65.70
14450 2019-09-19 05:50:10 ESP12E-S1 11.10 9.99 66.10
14449 2019-09-19 05:21:56 ESP12E-S1 11.20 10.14 67.60
14448 2019-09-19 04:53:44 ESP12E-S1 11.30 10.23 66.80
14447 2019-09-19 04:25:29 ESP12E-S1 11.50 10.44 66.40
14446 2019-09-19 03:57:15 ESP12E-S1 11.70 10.66 66.40
14445 2019-09-19 03:29:00 ESP12E-S1 11.80 10.77 66.50
14444 2019-09-19 03:00:46 ESP12E-S1 12.00 10.98 66.00
14443 2019-09-19 02:32:31 ESP12E-S1 12.10 11.12 67.20
14442 2019-09-19 02:04:18 ESP12E-S1 12.30 11.31 66.00
14441 2019-09-19 01:36:03 ESP12E-S1 12.40 11.37 64.30
14440 2019-09-19 01:07:48 ESP12E-S1 12.40 11.34 62.90
14439 2019-09-19 00:39:33 ESP12E-S1 12.70 11.61 60.70
14438 2019-09-19 00:11:19 ESP12E-S1 12.80 11.69 59.40
14437 2019-09-18 23:43:06 ESP12E-S1 13.00 11.89 58.90
14436 2019-09-18 23:14:51 ESP12E-S1 13.20 12.08 57.50
14435 2019-09-18 22:46:39 ESP12E-S1 13.40 12.26 56.10
14434 2019-09-18 22:18:26 ESP12E-S1 13.60 12.42 53.90
14433 2019-09-18 21:50:14 ESP12E-S1 13.90 12.72 52.70
14432 2019-09-18 21:22:03 ESP12E-S1 14.10 12.93 52.40
14431 2019-09-18 20:53:50 ESP12E-S1 14.60 13.45 51.20
14430 2019-09-18 20:25:38 ESP12E-S1 15.00 13.87 50.20
14429 2019-09-18 19:57:26 ESP12E-S1 15.60 14.54 50.70
14428 2019-09-18 19:29:16 ESP12E-S1 16.60 15.67 52.00
14427 2019-09-18 19:01:04 ESP12E-S1 17.20 16.22 47.70
14426 2019-09-18 18:32:54 ESP12E-S1 17.80 16.80 44.70
14425 2019-09-18 18:04:43 ESP12E-S1 18.70 17.77 43.80
14424 2019-09-18 17:36:31 ESP12E-S1 19.70 18.89 44.70
14423 2019-09-18 17:08:19 ESP12E-S1 20.10 19.34 45.00
14422 2019-09-18 16:40:05 ESP12E-S1 20.00 19.22 44.60
14421 2019-09-18 16:11:49 ESP12E-S1 20.60 19.93 46.50
14420 2019-09-18 15:43:32 ESP12E-S1 20.20 19.49 46.40
14419 2019-09-18 15:15:09 ESP12E-S1 19.10 18.28 46.50
14418 2019-09-18 14:46:57 ESP12E-S1 19.50 18.76 47.90
14417 2019-09-18 14:18:40 ESP12E-S1 18.80 18.02 49.20
14416 2019-09-18 13:50:21 ESP12E-S1 19.20 18.51 51.20
14415 2019-09-18 13:22:03 ESP12E-S1 17.80 17.07 55.10
14414 2019-09-18 12:53:57 ESP12E-S1 18.00 17.22 52.20
14413 2019-09-18 12:25:27 ESP12E-S1 16.80 16.03 57.30
14412 2019-09-18 11:57:11 ESP12E-S1 16.40 15.60 57.50
14411 2019-09-18 11:28:47 ESP12E-S1 14.90 14.11 63.60
14410 2019-09-18 11:00:29 ESP12E-S1 13.70 12.80 64.00
14409 2019-09-18 10:32:13 ESP12E-S1 13.10 12.31 70.50
14408 2019-09-18 10:03:52 ESP12E-S1 12.50 11.84 77.90
14407 2019-09-18 09:35:35 ESP12E-S1 11.60 10.88 79.10
14406 2019-09-18 09:07:11 ESP12E-S1 10.70 10.00 83.20
14405 2019-09-18 08:38:52 ESP12E-S1 9.90 9.16 84.90
14404 2019-09-18 08:10:33 ESP12E-S1 9.50 8.68 83.40
14403 2019-09-18 07:42:19 ESP12E-S1 9.40 8.54 82.20
14402 2019-09-18 07:14:05 ESP12E-S1 9.60 8.72 80.60
14401 2019-09-18 06:45:50 ESP12E-S1 9.60 8.69 79.40
14400 2019-09-18 06:17:36 ESP12E-S1 9.80 8.87 77.90
14399 2019-09-18 05:49:22 ESP12E-S1 9.80 8.85 77.10
14398 2019-09-18 05:21:10 ESP12E-S1 10.20 9.20 73.80
14397 2019-09-18 04:52:56 ESP12E-S1 10.30 9.28 72.50
14396 2019-09-18 04:24:43 ESP12E-S1 10.40 9.33 70.40
14395 2019-09-18 03:56:30 ESP12E-S1 10.70 9.62 68.80
14394 2019-09-18 03:28:17 ESP12E-S1 11.20 10.12 66.80
14393 2019-09-18 03:00:03 ESP12E-S1 11.50 10.38 64.30
14392 2019-09-18 02:31:48 ESP12E-S1 11.80 10.70 63.70
14391 2019-09-18 02:03:36 ESP12E-S1 12.00 10.92 63.80
14390 2019-09-18 01:35:25 ESP12E-S1 12.40 11.33 62.60
14389 2019-09-18 01:07:12 ESP12E-S1 12.70 11.65 62.20
14388 2019-09-18 00:39:00 ESP12E-S1 13.20 12.17 61.20
14387 2019-09-18 00:10:49 ESP12E-S1 13.60 12.60 60.80
14386 2019-09-17 23:42:38 ESP12E-S1 14.10 13.11 59.20
14385 2019-09-17 23:14:24 ESP12E-S1 14.50 13.55 59.20
14384 2019-09-17 22:46:12 ESP12E-S1 14.70 13.87 62.90
14383 2019-09-17 22:18:07 ESP12E-S1 15.00 14.22 63.90
14382 2019-09-17 21:49:52 ESP12E-S1 15.30 14.52 62.70
14381 2019-09-17 21:21:38 ESP12E-S1 15.70 14.93 61.30
14380 2019-09-17 20:53:25 ESP12E-S1 16.10 15.31 59.20
14379 2019-09-17 20:25:14 ESP12E-S1 16.50 15.73 58.20
14378 2019-09-17 19:57:02 ESP12E-S1 16.90 16.11 56.10
14377 2019-09-17 19:28:50 ESP12E-S1 17.40 16.60 53.90
14376 2019-09-17 19:00:39 ESP12E-S1 18.00 17.23 52.50
14375 2019-09-17 18:32:27 ESP12E-S1 18.60 17.83 50.50
14374 2019-09-17 18:04:14 ESP12E-S1 19.20 18.46 49.20
14373 2019-09-17 17:36:02 ESP12E-S1 20.10 19.44 48.90
14372 2019-09-17 17:07:51 ESP12E-S1 20.60 20.04 50.70
14371 2019-09-17 16:39:37 ESP12E-S1 21.10 20.57 50.10
14370 2019-09-17 16:11:25 ESP12E-S1 21.30 20.78 49.40
14369 2019-09-17 15:43:10 ESP12E-S1 21.20 20.70 50.90
14368 2019-09-17 15:14:55 ESP12E-S1 21.10 20.62 52.00
14367 2019-09-17 14:46:42 ESP12E-S1 21.40 20.98 52.90
14366 2019-09-17 14:18:24 ESP12E-S1 21.10 20.69 54.50
14365 2019-09-17 13:50:08 ESP12E-S1 20.40 19.93 54.90
14364 2019-09-17 13:21:51 ESP12E-S1 20.20 19.75 56.60
14363 2019-09-17 12:53:30 ESP12E-S1 19.80 19.36 58.50
14362 2019-09-17 12:25:10 ESP12E-S1 18.80 18.34 61.30
14361 2019-09-17 11:56:50 ESP12E-S1 17.90 17.44 65.00
14360 2019-09-17 11:28:28 ESP12E-S1 17.10 16.76 72.70
14359 2019-09-17 11:00:08 ESP12E-S1 16.70 16.47 78.30
14358 2019-09-17 10:31:53 ESP12E-S1 16.80 16.57 78.10
14357 2019-09-17 10:03:35 ESP12E-S1 16.20 16.02 82.10
14356 2019-09-17 09:35:17 ESP12E-S1 15.80 15.60 83.00
14355 2019-09-17 09:06:58 ESP12E-S1 15.00 14.81 86.50
14354 2019-09-17 08:38:41 ESP12E-S1 14.40 14.15 86.50
14353 2019-09-17 08:10:26 ESP12E-S1 14.20 13.87 84.00
14352 2019-09-17 07:42:12 ESP12E-S1 14.30 13.93 82.30
14351 2019-09-17 07:13:59 ESP12E-S1 14.70 14.32 80.20
14350 2019-09-17 06:45:46 ESP12E-S1 14.90 14.65 84.60
14349 2019-09-17 06:17:33 ESP12E-S1 15.20 15.06 87.40
14348 2019-09-17 05:49:20 ESP12E-S1 15.40 15.23 85.70
14347 2019-09-17 05:21:06 ESP12E-S1 15.50 15.40 87.90
14346 2019-09-17 04:52:53 ESP12E-S1 15.30 15.11 85.20
14345 2019-09-17 04:24:38 ESP12E-S1 15.80 15.69 86.30
14344 2019-09-17 03:56:23 ESP12E-S1 16.00 16.07 92.30
14343 2019-09-17 03:28:11 ESP12E-S1 16.30 16.40 92.60
14342 2019-09-17 02:59:57 ESP12E-S1 16.40 16.55 93.90
14341 2019-09-17 02:31:43 ESP12E-S1 16.60 16.75 93.20
14340 2019-09-17 02:03:29 ESP12E-S1 16.80 16.97 93.10
14339 2019-09-17 01:35:15 ESP12E-S1 16.90 17.07 92.70
14338 2019-09-17 01:07:01 ESP12E-S1 17.10 17.28 92.60
14337 2019-09-17 00:38:49 ESP12E-S1 17.20 17.42 93.50
14336 2019-09-17 00:10:35 ESP12E-S1 17.40 17.61 92.60
14335 2019-09-16 23:42:19 ESP12E-S1 17.50 17.69 91.50
14334 2019-09-16 23:14:07 ESP12E-S1 17.60 17.78 90.60
14333 2019-09-16 22:45:54 ESP12E-S1 17.70 17.87 89.70
14332 2019-09-16 22:17:39 ESP12E-S1 17.90 18.00 86.50
14331 2019-09-16 21:49:25 ESP12E-S1 18.20 18.27 84.00
14330 2019-09-16 21:21:13 ESP12E-S1 18.50 18.47 79.10
14329 2019-09-16 20:52:59 ESP12E-S1 18.70 18.63 76.60
14328 2019-09-16 20:24:45 ESP12E-S1 19.10 18.93 71.40
14327 2019-09-16 19:56:31 ESP12E-S1 19.40 19.23 70.20
14326 2019-09-16 19:28:18 ESP12E-S1 19.80 19.52 64.40
14325 2019-09-16 19:00:04 ESP12E-S1 20.00 19.58 58.50
14324 2019-09-16 18:31:56 ESP12E-S1 20.30 19.90 58.00
14323 2019-09-16 18:03:41 ESP12E-S1 20.50 20.13 58.50
14322 2019-09-16 17:35:25 ESP12E-S1 20.80 20.48 59.00
14321 2019-09-16 17:07:10 ESP12E-S1 21.00 20.77 61.80
14320 2019-09-16 16:38:52 ESP12E-S1 21.00 20.99 70.20
14319 2019-09-16 16:10:35 ESP12E-S1 20.70 20.65 70.00
14318 2019-09-16 15:42:18 ESP12E-S1 20.60 20.45 66.60
14317 2019-09-16 15:14:14 ESP12E-S1 20.70 20.58 67.20
14316 2019-09-16 14:45:53 ESP12E-S1 20.70 20.60 67.90
14315 2019-09-16 14:17:36 ESP12E-S1 20.70 20.65 69.80
14314 2019-09-16 13:49:18 ESP12E-S1 20.20 20.14 71.60
14313 2019-09-16 13:21:03 ESP12E-S1 20.30 20.25 71.30
14312 2019-09-16 12:52:45 ESP12E-S1 20.10 20.05 72.10
14311 2019-09-16 12:24:27 ESP12E-S1 19.80 19.72 72.20
14310 2019-09-16 11:56:11 ESP12E-S1 19.50 19.39 72.00
14309 2019-09-16 11:27:49 ESP12E-S1 18.80 18.83 80.40
14308 2019-09-16 10:59:32 ESP12E-S1 18.30 18.34 82.50
14307 2019-09-16 10:31:13 ESP12E-S1 17.90 18.01 86.60
14306 2019-09-16 10:02:52 ESP12E-S1 17.40 17.50 88.40
14305 2019-09-16 09:34:33 ESP12E-S1 16.90 16.94 87.90
14304 2019-09-16 09:06:15 ESP12E-S1 16.60 16.56 85.90
14303 2019-09-16 08:38:10 ESP12E-S1 16.10 15.96 84.10
14302 2019-09-16 08:09:48 ESP12E-S1 16.00 15.78 81.40
14301 2019-09-16 07:41:31 ESP12E-S1 15.70 15.31 76.10
14300 2019-09-16 07:13:16 ESP12E-S1 15.50 14.94 70.20
14299 2019-09-16 06:45:01 ESP12E-S1 15.50 14.84 66.30
14298 2019-09-16 06:16:45 ESP12E-S1 15.60 14.87 63.20
14297 2019-09-16 05:48:29 ESP12E-S1 15.60 14.84 62.40
14296 2019-09-16 05:20:12 ESP12E-S1 15.60 14.80 60.50
14295 2019-09-16 04:51:57 ESP12E-S1 15.50 14.66 59.60
14294 2019-09-16 04:23:42 ESP12E-S1 15.80 14.96 58.30
14293 2019-09-16 03:55:28 ESP12E-S1 16.00 15.14 57.00
14292 2019-09-16 03:27:16 ESP12E-S1 16.40 15.55 55.80
14291 2019-09-16 02:59:01 ESP12E-S1 16.70 15.85 54.60
14290 2019-09-16 02:30:49 ESP12E-S1 17.10 16.29 54.40
14289 2019-09-16 02:02:35 ESP12E-S1 17.40 16.60 53.80
14288 2019-09-16 01:34:22 ESP12E-S1 17.80 17.01 52.80
14287 2019-09-16 01:06:06 ESP12E-S1 18.20 17.44 52.10
14286 2019-09-16 00:37:53 ESP12E-S1 18.20 17.40 50.70
14285 2019-09-16 00:09:40 ESP12E-S1 18.60 17.82 49.90
14284 2019-09-15 23:41:28 ESP12E-S1 19.40 18.62 46.90
14283 2019-09-15 23:13:14 ESP12E-S1 19.80 19.05 46.40
14282 2019-09-15 22:45:01 ESP12E-S1 20.50 19.76 44.30
14281 2019-09-15 22:16:47 ESP12E-S1 20.90 20.21 44.60
14280 2019-09-15 21:48:33 ESP12E-S1 21.30 20.67 45.30
14279 2019-09-15 21:20:20 ESP12E-S1 21.70 21.18 48.20
14278 2019-09-15 20:52:05 ESP12E-S1 22.10 21.72 51.70
14277 2019-09-15 20:23:52 ESP12E-S1 22.60 22.30 52.90
14276 2019-09-15 19:55:41 ESP12E-S1 23.00 22.73 52.50
14275 2019-09-15 19:27:28 ESP12E-S1 23.60 23.33 50.30
14274 2019-09-15 18:59:23 ESP12E-S1 24.40 24.18 49.10
14273 2019-09-15 18:31:08 ESP12E-S1 25.10 24.93 48.30
14272 2019-09-15 18:02:56 ESP12E-S1 26.00 25.87 46.40
14271 2019-09-15 17:34:48 ESP12E-S1 26.90 27.00 44.10
14270 2019-09-15 17:06:34 ESP12E-S1 27.30 27.42 45.70
14269 2019-09-15 16:38:18 ESP12E-S1 27.90 27.97 45.50
14268 2019-09-15 16:10:03 ESP12E-S1 28.30 28.41 45.90
14267 2019-09-15 15:41:43 ESP12E-S1 28.00 28.40 49.50
14266 2019-09-15 15:13:29 ESP12E-S1 27.30 28.00 54.00
14265 2019-09-15 14:45:08 ESP12E-S1 26.90 27.60 54.60
14264 2019-09-15 14:16:49 ESP12E-S1 26.40 27.18 56.40
14263 2019-09-15 13:48:31 ESP12E-S1 25.90 26.04 57.40
14262 2019-09-15 13:20:21 ESP12E-S1 25.80 25.96 58.50
14261 2019-09-15 12:51:55 ESP12E-S1 25.00 25.12 59.80
14260 2019-09-15 12:23:25 ESP12E-S1 22.60 22.84 73.80
14259 2019-09-15 11:55:09 ESP12E-S1 21.50 21.67 75.10
14258 2019-09-15 11:26:39 ESP12E-S1 19.90 20.02 79.30
14257 2019-09-15 10:58:15 ESP12E-S1 18.50 18.52 80.90
14256 2019-09-15 10:29:53 ESP12E-S1 17.40 17.41 84.80
14255 2019-09-15 10:01:30 ESP12E-S1 16.50 16.53 89.20
14254 2019-09-15 09:33:10 ESP12E-S1 15.70 15.74 92.40
14253 2019-09-15 09:04:51 ESP12E-S1 15.00 15.01 93.90
14252 2019-09-15 08:36:35 ESP12E-S1 14.50 14.48 94.90
14251 2019-09-15 08:08:18 ESP12E-S1 14.20 14.10 93.00
14250 2019-09-15 07:40:02 ESP12E-S1 14.10 13.95 91.20
14249 2019-09-15 07:11:47 ESP12E-S1 14.10 13.87 88.40
14248 2019-09-15 06:43:33 ESP12E-S1 14.30 14.00 84.70
14247 2019-09-15 06:15:19 ESP12E-S1 14.30 13.97 83.80
14246 2019-09-15 05:47:06 ESP12E-S1 14.60 14.20 80.00
14245 2019-09-15 05:18:52 ESP12E-S1 14.70 14.28 78.60
14244 2019-09-15 04:50:36 ESP12E-S1 14.70 14.26 78.00
14243 2019-09-15 04:22:23 ESP12E-S1 14.90 14.47 77.50
14242 2019-09-15 03:54:08 ESP12E-S1 15.20 14.73 74.90
14241 2019-09-15 03:25:52 ESP12E-S1 15.40 14.93 73.90
14240 2019-09-15 02:57:39 ESP12E-S1 15.70 15.22 72.70
14239 2019-09-15 02:29:25 ESP12E-S1 15.90 15.44 72.70
14238 2019-09-15 02:01:09 ESP12E-S1 16.00 15.54 72.00
14237 2019-09-15 01:32:55 ESP12E-S1 16.20 15.71 70.40
14236 2019-09-15 01:04:41 ESP12E-S1 16.60 16.08 67.70
14235 2019-09-15 00:36:29 ESP12E-S1 16.90 16.38 66.60
14234 2019-09-15 00:08:15 ESP12E-S1 17.10 16.57 65.20
14233 2019-09-14 23:40:07 ESP12E-S1 17.30 16.76 64.10
14232 2019-09-14 23:11:51 ESP12E-S1 17.50 16.96 63.20
14231 2019-09-14 22:43:38 ESP12E-S1 17.70 17.18 63.40
14230 2019-09-14 22:15:23 ESP12E-S1 18.10 17.58 62.00
14229 2019-09-14 21:47:09 ESP12E-S1 18.40 17.90 61.60
14228 2019-09-14 21:18:55 ESP12E-S1 18.70 18.23 61.40
14227 2019-09-14 20:50:41 ESP12E-S1 19.10 18.68 61.80
14226 2019-09-14 20:22:28 ESP12E-S1 19.60 19.23 62.00
14225 2019-09-14 19:54:18 ESP12E-S1 20.40 20.08 60.50
14224 2019-09-14 19:26:07 ESP12E-S1 21.60 21.30 56.80
14223 2019-09-14 18:57:52 ESP12E-S1 22.40 22.14 55.20
14222 2019-09-14 18:29:41 ESP12E-S1 23.10 22.85 53.10
14221 2019-09-14 18:01:27 ESP12E-S1 23.80 23.62 53.10
14220 2019-09-14 17:33:16 ESP12E-S1 24.70 24.63 53.90
14219 2019-09-14 17:05:02 ESP12E-S1 25.00 24.99 54.90
14218 2019-09-14 16:36:49 ESP12E-S1 25.70 25.68 51.90
14217 2019-09-14 16:08:34 ESP12E-S1 26.20 26.84 52.90
14216 2019-09-14 15:40:15 ESP12E-S1 25.70 25.78 55.60
14215 2019-09-14 15:11:58 ESP12E-S1 25.50 25.62 58.10
14214 2019-09-14 14:43:39 ESP12E-S1 25.30 25.43 59.20
14213 2019-09-14 14:15:22 ESP12E-S1 25.00 25.15 61.00
14212 2019-09-14 13:47:05 ESP12E-S1 24.80 24.97 62.70
14211 2019-09-14 13:18:53 ESP12E-S1 24.70 24.88 63.30
14210 2019-09-14 12:50:25 ESP12E-S1 23.90 24.17 69.80
14209 2019-09-14 12:21:56 ESP12E-S1 21.70 21.90 75.70
14208 2019-09-14 11:53:41 ESP12E-S1 20.90 21.14 80.10
14207 2019-09-14 11:25:12 ESP12E-S1 19.50 19.74 85.40
14206 2019-09-14 10:56:55 ESP12E-S1 18.40 18.66 90.60
14205 2019-09-14 10:28:31 ESP12E-S1 17.40 17.56 90.50
14204 2019-09-14 10:00:13 ESP12E-S1 16.70 16.86 93.10
14203 2019-09-14 09:31:51 ESP12E-S1 16.10 16.22 94.00
14202 2019-09-14 09:03:44 ESP12E-S1 15.70 15.80 94.70
14201 2019-09-14 08:37:32 ESP12E-S1 15.40 15.54 97.40
14200 2019-09-14 08:02:22 ESP12E-S1 14.70 14.79 98.30
14199 2019-09-14 07:31:24 ESP12E-S1 14.30 14.35 98.40
14198 2019-09-14 07:03:10 ESP12E-S1 14.30 14.33 97.50
14197 2019-09-14 06:34:58 ESP12E-S1 14.60 14.66 97.40
14196 2019-09-14 06:06:44 ESP12E-S1 14.80 14.89 97.80
14195 2019-09-14 05:38:30 ESP12E-S1 14.90 15.01 98.20
14194 2019-09-14 05:10:17 ESP12E-S1 15.20 15.34 98.30
14193 2019-09-14 04:42:03 ESP12E-S1 15.40 15.58 99.10
14192 2019-09-14 04:13:49 ESP12E-S1 15.40 15.56 98.30
14191 2019-09-14 03:45:36 ESP12E-S1 15.60 15.74 96.50
14190 2019-09-14 03:17:23 ESP12E-S1 16.00 16.15 95.50
14189 2019-09-14 02:49:10 ESP12E-S1 16.20 16.35 94.90
14188 2019-09-14 02:20:56 ESP12E-S1 16.50 16.67 94.30
14187 2019-09-14 01:52:43 ESP12E-S1 16.80 16.99 93.90
14186 2019-09-14 01:24:30 ESP12E-S1 17.10 17.29 92.90
14185 2019-09-14 00:56:17 ESP12E-S1 17.40 17.63 93.30
14184 2019-09-14 00:28:04 ESP12E-S1 17.70 17.92 91.70
14183 2019-09-13 23:59:53 ESP12E-S1 18.00 18.36 95.90
14182 2019-09-13 23:31:38 ESP12E-S1 18.10 18.43 94.50
14181 2019-09-13 23:03:24 ESP12E-S1 18.20 18.53 94.00
14180 2019-09-13 22:35:12 ESP12E-S1 18.40 18.78 95.20
14179 2019-09-13 22:06:56 ESP12E-S1 18.60 19.07 98.00
14178 2019-09-13 21:38:42 ESP12E-S1 18.80 19.34 99.90
14177 2019-09-13 21:10:27 ESP12E-S1 19.10 19.66 99.50
14176 2019-09-13 20:42:32 ESP12E-S1 19.20 19.73 97.70
14175 2019-09-13 20:14:11 ESP12E-S1 19.50 20.04 96.90
14174 2019-09-13 19:45:59 ESP12E-S1 19.80 20.36 96.70
14173 2019-09-13 19:17:45 ESP12E-S1 20.30 20.90 96.40
14172 2019-09-13 18:49:33 ESP12E-S1 21.10 21.72 94.10
14171 2019-09-13 18:21:21 ESP12E-S1 21.80 22.39 90.30
14170 2019-09-13 17:53:07 ESP12E-S1 22.40 23.00 88.30
14169 2019-09-13 17:24:50 ESP12E-S1 22.40 23.00 88.20
14168 2019-09-13 16:56:31 ESP12E-S1 22.30 22.88 87.90
14167 2019-09-13 16:28:16 ESP12E-S1 22.50 23.15 89.70
14166 2019-09-13 15:59:54 ESP12E-S1 22.10 22.78 92.30
14165 2019-09-13 15:31:35 ESP12E-S1 21.60 22.26 93.50
14164 2019-09-13 15:03:23 ESP12E-S1 20.70 21.31 95.10
14163 2019-09-13 14:35:13 ESP12E-S1 20.90 21.55 96.00
14162 2019-09-13 14:06:55 ESP12E-S1 20.70 21.36 96.90
14161 2019-09-13 13:38:43 ESP12E-S1 20.60 21.23 96.30
14160 2019-09-13 13:10:27 ESP12E-S1 20.70 21.36 97.20
14159 2019-09-13 12:41:54 ESP12E-S1 19.60 20.22 99.90
14158 2019-09-13 12:13:38 ESP12E-S1 19.40 20.00 99.90
14157 2019-09-13 11:45:27 ESP12E-S1 19.70 20.33 99.90
14156 2019-09-13 11:17:02 ESP12E-S1 18.10 18.57 99.90
14155 2019-09-13 10:48:41 ESP12E-S1 17.40 17.80 99.90
14154 2019-09-13 10:20:25 ESP12E-S1 17.20 17.58 99.90
14153 2019-09-13 09:52:08 ESP12E-S1 17.00 17.36 99.90
14152 2019-09-13 09:23:48 ESP12E-S1 16.50 16.81 99.90
14151 2019-09-13 08:55:29 ESP12E-S1 16.10 16.37 99.90
14150 2019-09-13 08:27:13 ESP12E-S1 16.00 16.26 99.90
14149 2019-09-13 07:58:56 ESP12E-S1 15.80 16.04 99.90
14148 2019-09-13 07:30:38 ESP12E-S1 15.60 15.82 99.90
14147 2019-09-13 07:02:22 ESP12E-S1 15.40 15.60 99.90
14146 2019-09-13 06:34:07 ESP12E-S1 15.10 15.27 99.90
14145 2019-09-13 06:05:53 ESP12E-S1 15.20 15.38 99.90
14144 2019-09-13 05:37:37 ESP12E-S1 15.30 15.49 99.90
14143 2019-09-13 05:09:23 ESP12E-S1 15.40 15.60 99.90
14142 2019-09-13 04:41:09 ESP12E-S1 15.70 15.93 99.90
14141 2019-09-13 04:12:55 ESP12E-S1 15.90 16.15 99.90
14140 2019-09-13 03:44:41 ESP12E-S1 16.10 16.37 99.90
14139 2019-09-13 03:16:27 ESP12E-S1 16.40 16.70 99.90
14138 2019-09-13 02:48:13 ESP12E-S1 16.60 16.92 99.90
14137 2019-09-13 02:19:59 ESP12E-S1 16.90 17.25 99.90
14136 2019-09-13 01:51:43 ESP12E-S1 17.10 17.47 99.90
14135 2019-09-13 01:23:27 ESP12E-S1 17.20 17.58 99.90
14134 2019-09-13 00:55:12 ESP12E-S1 17.30 17.69 99.90
14133 2019-09-13 00:26:56 ESP12E-S1 17.40 17.78 99.00
14132 2019-09-12 23:58:41 ESP12E-S1 17.60 18.00 98.80
14131 2019-09-12 23:30:26 ESP12E-S1 17.50 17.89 98.80
14130 2019-09-12 23:02:12 ESP12E-S1 18.00 18.38 96.50
14129 2019-09-12 22:33:56 ESP12E-S1 18.20 18.56 95.10
14128 2019-09-12 22:05:41 ESP12E-S1 18.30 18.68 95.40
14127 2019-09-12 21:37:25 ESP12E-S1 18.40 18.77 94.80
14126 2019-09-12 21:09:10 ESP12E-S1 18.80 19.19 94.10
14125 2019-09-12 20:40:56 ESP12E-S1 19.30 19.71 92.80
14124 2019-09-12 20:12:43 ESP12E-S1 19.90 20.33 91.40
14123 2019-09-12 19:44:30 ESP12E-S1 20.50 20.90 87.70
14122 2019-09-12 19:16:18 ESP12E-S1 21.10 21.50 85.40
14121 2019-09-12 18:48:04 ESP12E-S1 21.30 21.72 85.50
14120 2019-09-12 18:19:50 ESP12E-S1 21.60 22.06 85.80
14119 2019-09-12 17:51:36 ESP12E-S1 22.00 22.52 86.90
14118 2019-09-12 17:23:20 ESP12E-S1 21.90 22.46 88.50
14117 2019-09-12 16:55:06 ESP12E-S1 22.20 22.74 86.70
14116 2019-09-12 16:26:47 ESP12E-S1 21.80 22.36 89.00
14115 2019-09-12 15:58:32 ESP12E-S1 22.10 22.73 90.40
14114 2019-09-12 15:30:13 ESP12E-S1 21.80 22.41 91.10
14113 2019-09-12 15:01:56 ESP12E-S1 21.60 22.26 93.80
14112 2019-09-12 14:33:37 ESP12E-S1 20.60 21.30 98.80
14111 2019-09-12 14:05:21 ESP12E-S1 20.60 21.30 98.90
14110 2019-09-12 13:36:58 ESP12E-S1 19.80 20.44 99.90
14109 2019-09-12 13:08:40 ESP12E-S1 19.10 19.67 99.90
14108 2019-09-12 12:40:23 ESP12E-S1 18.90 19.45 99.90
14107 2019-09-12 12:12:07 ESP12E-S1 18.70 19.23 99.90
14106 2019-09-12 11:43:49 ESP12E-S1 18.50 19.01 99.90
14105 2019-09-12 11:15:33 ESP12E-S1 18.30 18.79 99.80
14104 2019-09-12 10:47:18 ESP12E-S1 18.40 18.89 99.40
14103 2019-09-12 10:18:58 ESP12E-S1 17.80 18.24 99.90
14102 2019-09-12 09:50:37 ESP12E-S1 17.50 17.91 99.90
14101 2019-09-12 09:22:15 ESP12E-S1 16.70 17.03 99.90
14100 2019-09-12 08:53:58 ESP12E-S1 16.30 16.59 99.90
14099 2019-09-12 08:25:41 ESP12E-S1 15.80 16.04 99.90
14098 2019-09-12 07:57:26 ESP12E-S1 15.80 16.01 98.50
14097 2019-09-12 07:01:06 ESP12E-S1 15.90 16.01 94.20
14096 2019-09-12 06:32:51 ESP12E-S1 15.90 16.04 95.60
14095 2019-09-12 06:04:35 ESP12E-S1 16.00 16.09 93.40
14094 2019-09-12 05:36:19 ESP12E-S1 16.00 16.09 93.40
14093 2019-09-12 05:08:04 ESP12E-S1 16.20 16.25 90.90
14092 2019-09-12 04:39:47 ESP12E-S1 16.20 16.34 94.30
14091 2019-09-12 04:11:31 ESP12E-S1 16.10 16.18 92.40
14090 2019-09-12 03:43:15 ESP12E-S1 16.10 16.29 96.70
14089 2019-09-12 03:14:59 ESP12E-S1 16.20 16.43 97.90
14088 2019-09-12 02:46:44 ESP12E-S1 16.20 16.31 93.30
14087 2019-09-12 02:18:30 ESP12E-S1 16.20 16.32 93.80
14086 2019-09-12 01:50:14 ESP12E-S1 16.20 16.47 99.40
14085 2019-09-12 01:22:00 ESP12E-S1 16.30 16.50 96.40
14084 2019-09-12 00:53:45 ESP12E-S1 16.40 16.63 97.00
14083 2019-09-12 00:25:32 ESP12E-S1 16.60 16.86 97.60
14082 2019-09-11 23:57:18 ESP12E-S1 16.80 16.95 92.40
14081 2019-09-11 23:29:03 ESP12E-S1 17.10 16.94 79.40
14080 2019-09-11 23:00:48 ESP12E-S1 17.30 16.81 66.10
14079 2019-09-11 22:32:33 ESP12E-S1 17.40 16.82 62.30
14078 2019-09-11 22:04:18 ESP12E-S1 17.60 16.97 59.60
14077 2019-09-11 21:36:04 ESP12E-S1 17.80 17.18 59.00
14076 2019-09-11 21:07:49 ESP12E-S1 17.90 17.27 58.50
14075 2019-09-11 20:39:35 ESP12E-S1 18.10 17.49 58.40
14074 2019-09-11 20:11:21 ESP12E-S1 18.30 17.70 58.00
14073 2019-09-11 19:43:07 ESP12E-S1 18.70 18.09 56.00
14072 2019-09-11 19:14:53 ESP12E-S1 19.10 18.48 54.20
14071 2019-09-11 18:46:40 ESP12E-S1 19.40 18.78 52.90
14070 2019-09-11 18:18:27 ESP12E-S1 19.90 19.32 52.70
14069 2019-09-11 17:50:14 ESP12E-S1 20.50 19.96 51.80
14068 2019-09-11 17:22:00 ESP12E-S1 21.00 20.50 51.60
14067 2019-09-11 16:53:45 ESP12E-S1 21.10 20.56 49.40
14066 2019-09-11 16:25:35 ESP12E-S1 22.00 21.57 50.50
14065 2019-09-11 15:57:25 ESP12E-S1 22.70 22.31 49.10
14064 2019-09-11 15:29:10 ESP12E-S1 23.00 22.58 47.00
14063 2019-09-11 15:00:55 ESP12E-S1 23.00 22.65 49.60
14062 2019-09-11 14:32:38 ESP12E-S1 23.50 23.26 51.70
14061 2019-09-11 13:36:07 ESP12E-S1 23.00 22.74 53.10
14060 2019-09-11 13:07:55 ESP12E-S1 23.10 22.84 52.60
14059 2019-09-11 12:39:19 ESP12E-S1 21.30 21.01 58.30
14058 2019-09-11 12:10:56 ESP12E-S1 19.40 19.19 68.90
14057 2019-09-11 11:42:32 ESP12E-S1 18.50 18.47 79.10
14056 2019-09-11 11:14:06 ESP12E-S1 16.90 17.00 90.00
14055 2019-09-11 10:45:41 ESP12E-S1 15.60 15.39 83.40
14054 2019-09-11 10:17:19 ESP12E-S1 14.50 14.33 89.10
14053 2019-09-11 09:20:39 ESP12E-S1 12.70 12.44 92.40
14052 2019-09-11 08:52:20 ESP12E-S1 12.00 11.75 95.70
14051 2019-09-11 08:24:02 ESP12E-S1 11.40 11.10 95.80
14050 2019-09-11 07:55:45 ESP12E-S1 10.90 10.50 94.00
14049 2019-09-11 07:27:30 ESP12E-S1 10.80 10.31 90.90
14048 2019-09-11 06:59:16 ESP12E-S1 10.70 10.14 88.60
14047 2019-09-11 06:31:02 ESP12E-S1 10.90 10.26 84.80
14046 2019-09-11 06:02:49 ESP12E-S1 11.10 10.45 83.50
14045 2019-09-11 05:34:36 ESP12E-S1 11.40 10.69 80.40
14044 2019-09-11 05:06:24 ESP12E-S1 11.80 11.05 77.10
14043 2019-09-11 04:38:11 ESP12E-S1 12.20 11.42 74.60
14042 2019-09-11 04:09:56 ESP12E-S1 12.30 11.48 72.50
14041 2019-09-11 03:41:41 ESP12E-S1 12.40 11.56 71.50
14040 2019-09-11 03:13:27 ESP12E-S1 12.50 11.63 69.90
14039 2019-09-11 02:45:12 ESP12E-S1 12.70 11.84 69.40
14038 2019-09-11 02:16:58 ESP12E-S1 12.90 12.04 68.80
14037 2019-09-11 01:48:47 ESP12E-S1 13.10 12.21 66.80
14036 2019-09-11 01:20:32 ESP12E-S1 13.30 12.40 65.80
14035 2019-09-11 00:52:18 ESP12E-S1 13.60 12.72 65.30
14034 2019-09-11 00:24:04 ESP12E-S1 13.90 13.00 63.50
14033 2019-09-10 23:55:50 ESP12E-S1 14.10 13.16 61.10
14032 2019-09-10 23:27:35 ESP12E-S1 14.30 13.36 60.40
14031 2019-09-10 22:59:20 ESP12E-S1 14.50 13.56 59.40
14030 2019-09-10 22:31:06 ESP12E-S1 14.60 13.59 56.40
14029 2019-09-10 22:02:52 ESP12E-S1 14.90 13.85 53.90
14028 2019-09-10 21:34:38 ESP12E-S1 15.20 14.22 55.40
14027 2019-09-10 21:06:26 ESP12E-S1 15.70 14.84 58.10
14026 2019-09-10 20:38:22 ESP12E-S1 16.40 15.65 59.70
14025 2019-09-10 20:10:08 ESP12E-S1 16.80 16.20 63.90
14024 2019-09-10 19:41:55 ESP12E-S1 17.60 17.04 62.30
14023 2019-09-10 19:13:43 ESP12E-S1 18.30 17.72 58.60
14022 2019-09-10 18:45:31 ESP12E-S1 18.80 18.20 56.20
14021 2019-09-10 18:17:17 ESP12E-S1 19.20 18.68 57.50
14020 2019-09-10 17:49:03 ESP12E-S1 19.50 18.95 55.40
14019 2019-09-10 17:20:50 ESP12E-S1 19.90 19.41 56.10
14018 2019-09-10 16:52:41 ESP12E-S1 21.10 20.60 51.30
14017 2019-09-10 16:24:27 ESP12E-S1 21.60 21.15 51.10
14016 2019-09-10 15:56:13 ESP12E-S1 22.10 21.70 51.20
14015 2019-09-10 15:27:53 ESP12E-S1 21.50 21.03 50.70
14014 2019-09-10 14:59:37 ESP12E-S1 22.10 21.74 52.70
14013 2019-09-10 14:31:18 ESP12E-S1 21.70 21.37 55.30
14012 2019-09-10 14:03:01 ESP12E-S1 21.60 21.30 56.80
14011 2019-09-10 13:34:47 ESP12E-S1 21.30 21.08 60.90
14010 2019-09-10 12:38:02 ESP12E-S1 19.80 19.67 70.40
14009 2019-09-10 12:09:47 ESP12E-S1 18.20 18.31 85.70
14008 2019-09-10 11:12:51 ESP12E-S1 15.30 15.49 99.80
14007 2019-09-10 10:44:28 ESP12E-S1 14.10 14.17 99.90
14006 2019-09-10 10:16:07 ESP12E-S1 13.20 13.18 99.90
14005 2019-09-10 09:47:48 ESP12E-S1 12.40 12.30 99.90
14004 2019-09-10 08:51:19 ESP12E-S1 11.10 10.87 99.90
14003 2019-09-10 08:23:01 ESP12E-S1 10.60 10.32 99.90
14002 2019-09-10 07:54:45 ESP12E-S1 10.30 9.99 99.90
14001 2019-09-10 07:26:30 ESP12E-S1 10.10 9.77 99.90
14000 2019-09-10 06:58:17 ESP12E-S1 10.10 9.77 99.90
13999 2019-09-10 06:30:02 ESP12E-S1 10.30 9.99 99.90
13998 2019-09-10 06:01:49 ESP12E-S1 10.30 9.99 99.90
13997 2019-09-10 05:33:34 ESP12E-S1 10.30 9.99 99.90
13996 2019-09-10 05:05:20 ESP12E-S1 10.30 9.99 99.90
13995 2019-09-10 04:37:06 ESP12E-S1 10.60 10.32 99.90
13994 2019-09-10 04:08:52 ESP12E-S1 10.60 10.32 99.90
13993 2019-09-10 03:40:38 ESP12E-S1 10.70 10.43 99.90
13992 2019-09-10 03:12:25 ESP12E-S1 10.70 10.43 99.90
13991 2019-09-10 02:44:10 ESP12E-S1 10.80 10.54 99.90
13990 2019-09-10 02:15:55 ESP12E-S1 10.90 10.65 99.90
13989 2019-09-10 01:47:40 ESP12E-S1 11.10 10.87 99.90
13988 2019-09-10 01:19:27 ESP12E-S1 11.30 11.09 99.90
13987 2019-09-10 00:51:13 ESP12E-S1 11.40 11.20 99.90
13986 2019-09-10 00:22:58 ESP12E-S1 11.50 11.31 99.90
13985 2019-09-09 23:54:43 ESP12E-S1 11.60 11.42 99.90
13984 2019-09-09 23:26:30 ESP12E-S1 11.70 11.53 99.90
13983 2019-09-09 22:58:16 ESP12E-S1 11.90 11.75 99.90
13982 2019-09-09 22:30:03 ESP12E-S1 12.00 11.86 99.90
13981 2019-09-09 22:01:49 ESP12E-S1 12.20 12.08 99.90
13980 2019-09-09 21:33:35 ESP12E-S1 12.50 12.41 99.90
13979 2019-09-09 21:05:22 ESP12E-S1 12.70 12.63 99.90
13978 2019-09-09 20:37:10 ESP12E-S1 13.30 13.29 99.90
13977 2019-09-09 20:08:57 ESP12E-S1 13.80 13.84 99.90
13976 2019-09-09 19:12:43 ESP12E-S1 14.90 14.81 90.70
13975 2019-09-09 18:44:29 ESP12E-S1 15.20 15.15 90.80
13974 2019-09-09 17:47:59 ESP12E-S1 15.20 15.27 95.70
13973 2019-09-09 16:51:35 ESP12E-S1 15.70 15.83 95.80
13972 2019-09-09 16:23:22 ESP12E-S1 16.20 16.35 94.60
13971 2019-09-09 15:55:08 ESP12E-S1 16.40 16.65 98.00
13970 2019-09-09 15:26:49 ESP12E-S1 15.90 16.15 99.90
13969 2019-09-09 14:58:30 ESP12E-S1 15.10 15.27 99.90
13968 2019-09-09 14:30:14 ESP12E-S1 14.60 14.72 99.90
13967 2019-09-09 14:01:53 ESP12E-S1 13.90 13.95 99.90
13966 2019-09-09 13:33:35 ESP12E-S1 13.40 13.40 99.90
13965 2019-09-09 13:05:16 ESP12E-S1 13.00 12.96 99.90
13964 2019-09-09 12:36:59 ESP12E-S1 12.80 12.74 99.90
13963 2019-09-09 12:08:40 ESP12E-S1 12.60 12.52 99.90
13962 2019-09-09 11:40:25 ESP12E-S1 12.60 12.52 99.90
13961 2019-09-09 11:12:09 ESP12E-S1 12.50 12.41 99.90
13960 2019-09-09 10:44:02 ESP12E-S1 12.40 12.30 99.90
13959 2019-09-09 10:15:44 ESP12E-S1 12.30 12.19 99.90
13958 2019-09-09 09:47:30 ESP12E-S1 12.40 12.30 99.90
13957 2019-09-09 09:19:14 ESP12E-S1 12.40 12.30 99.90
13956 2019-09-09 08:50:58 ESP12E-S1 12.40 12.30 99.90
13955 2019-09-09 08:22:46 ESP12E-S1 12.30 12.19 99.90
13954 2019-09-09 07:54:30 ESP12E-S1 12.10 11.97 99.90
13953 2019-09-09 07:26:16 ESP12E-S1 12.20 12.08 99.90
13952 2019-09-09 06:58:00 ESP12E-S1 12.10 11.97 99.90
13951 2019-09-09 06:29:45 ESP12E-S1 12.00 11.86 99.90
13950 2019-09-09 06:01:30 ESP12E-S1 12.10 11.97 99.90
13949 2019-09-09 05:33:15 ESP12E-S1 12.20 12.08 99.90
13948 2019-09-09 05:04:59 ESP12E-S1 12.20 12.08 99.90
13947 2019-09-09 04:36:45 ESP12E-S1 12.20 12.08 99.90
13946 2019-09-09 04:08:31 ESP12E-S1 12.30 12.19 99.90
13945 2019-09-09 03:40:15 ESP12E-S1 12.30 12.19 99.90
13944 2019-09-09 03:12:02 ESP12E-S1 12.30 12.19 99.90
13943 2019-09-09 02:43:47 ESP12E-S1 12.40 12.30 99.90
13942 2019-09-09 02:15:33 ESP12E-S1 12.50 12.41 99.90
13941 2019-09-09 01:47:18 ESP12E-S1 12.60 12.52 99.90
13940 2019-09-09 01:19:03 ESP12E-S1 12.60 12.52 99.90
13939 2019-09-09 00:50:54 ESP12E-S1 12.70 12.63 99.90
13938 2019-09-09 00:22:38 ESP12E-S1 12.90 12.85 99.90
13937 2019-09-08 23:54:23 ESP12E-S1 12.80 12.74 99.90
13936 2019-09-08 23:26:06 ESP12E-S1 12.80 12.74 99.90
13935 2019-09-08 22:57:52 ESP12E-S1 12.90 12.85 99.90
13934 2019-09-08 22:29:36 ESP12E-S1 13.00 12.96 99.90
13933 2019-09-08 22:01:21 ESP12E-S1 13.10 13.07 99.90
13932 2019-09-08 21:33:07 ESP12E-S1 13.20 13.18 99.90
13931 2019-09-08 21:04:52 ESP12E-S1 13.20 13.18 99.90
13930 2019-09-08 20:36:37 ESP12E-S1 13.30 13.29 99.90
13929 2019-09-08 20:08:22 ESP12E-S1 13.50 13.51 99.90
13928 2019-09-08 19:40:09 ESP12E-S1 13.80 13.84 99.90
13927 2019-09-08 19:11:55 ESP12E-S1 14.20 14.28 99.90
13926 2019-09-08 18:43:42 ESP12E-S1 14.50 14.61 99.90
13925 2019-09-08 18:15:27 ESP12E-S1 14.60 14.72 99.90
13924 2019-09-08 17:47:12 ESP12E-S1 15.00 15.16 99.90
13923 2019-09-08 17:18:59 ESP12E-S1 15.30 15.49 99.90
13922 2019-09-08 16:50:46 ESP12E-S1 15.70 15.93 99.90
13921 2019-09-08 16:22:31 ESP12E-S1 16.00 16.23 98.70
13920 2019-09-08 15:54:15 ESP12E-S1 16.00 16.26 99.90
13919 2019-09-08 15:25:56 ESP12E-S1 15.60 15.82 99.90
13918 2019-09-08 14:57:30 ESP12E-S1 14.20 14.28 99.90
13917 2019-09-08 14:29:13 ESP12E-S1 13.70 13.73 99.90
13916 2019-09-08 14:00:58 ESP12E-S1 13.70 13.73 99.90
13915 2019-09-08 13:32:42 ESP12E-S1 13.80 13.84 99.90
13914 2019-09-08 13:04:36 ESP12E-S1 13.90 13.95 99.90
13913 2019-09-08 12:36:19 ESP12E-S1 13.90 13.95 99.90
13912 2019-09-08 12:08:01 ESP12E-S1 13.60 13.62 99.90
13911 2019-09-08 11:39:45 ESP12E-S1 13.40 13.40 99.90
13910 2019-09-08 11:11:28 ESP12E-S1 13.30 13.29 99.90
13909 2019-09-08 10:43:12 ESP12E-S1 13.10 13.07 99.90
13908 2019-09-08 10:14:56 ESP12E-S1 13.00 12.96 99.90
13907 2019-09-08 09:46:40 ESP12E-S1 12.80 12.74 99.90
13906 2019-09-08 09:18:24 ESP12E-S1 12.70 12.63 99.90
13905 2019-09-08 08:50:08 ESP12E-S1 12.50 12.41 99.90
13904 2019-09-08 08:21:54 ESP12E-S1 12.40 12.30 99.90
13903 2019-09-08 07:53:38 ESP12E-S1 12.20 12.08 99.90
13902 2019-09-08 07:25:23 ESP12E-S1 12.20 12.08 99.90
13901 2019-09-08 06:57:07 ESP12E-S1 12.30 12.19 99.90
13900 2019-09-08 06:28:52 ESP12E-S1 12.40 12.30 99.90
13899 2019-09-08 06:00:36 ESP12E-S1 12.40 12.30 99.90
13898 2019-09-08 05:32:21 ESP12E-S1 12.50 12.41 99.90
13897 2019-09-08 05:04:07 ESP12E-S1 12.50 12.41 99.90
13896 2019-09-08 04:35:51 ESP12E-S1 12.60 12.52 99.90
13895 2019-09-08 04:07:37 ESP12E-S1 12.70 12.63 99.90
13894 2019-09-08 03:39:22 ESP12E-S1 12.80 12.74 99.90
13893 2019-09-08 03:11:07 ESP12E-S1 12.80 12.74 99.90
13892 2019-09-08 02:42:52 ESP12E-S1 12.90 12.85 99.90
13891 2019-09-08 02:14:38 ESP12E-S1 13.00 12.96 99.90
13890 2019-09-08 01:46:24 ESP12E-S1 13.10 13.07 99.90
13889 2019-09-08 01:18:08 ESP12E-S1 13.20 13.18 99.90
13888 2019-09-08 00:49:53 ESP12E-S1 13.20 13.18 99.90
13887 2019-09-08 00:21:39 ESP12E-S1 13.30 13.29 99.90
13886 2019-09-07 23:53:25 ESP12E-S1 13.40 13.40 99.90
13885 2019-09-07 23:25:11 ESP12E-S1 13.40 13.40 99.90
13884 2019-09-07 22:56:56 ESP12E-S1 13.30 13.29 99.90
13883 2019-09-07 22:28:42 ESP12E-S1 13.50 13.51 99.90
13882 2019-09-07 22:00:28 ESP12E-S1 13.50 13.51 99.90
13881 2019-09-07 21:32:14 ESP12E-S1 13.60 13.62 99.90
13880 2019-09-07 21:04:00 ESP12E-S1 13.80 13.84 99.90
13879 2019-09-07 20:35:46 ESP12E-S1 13.90 13.95 99.90
13878 2019-09-07 20:07:32 ESP12E-S1 14.10 14.17 99.90
13877 2019-09-07 19:39:21 ESP12E-S1 14.30 14.39 99.90
13876 2019-09-07 19:11:07 ESP12E-S1 14.40 14.50 99.90
13875 2019-09-07 18:42:57 ESP12E-S1 14.50 14.61 99.90
13874 2019-09-07 18:14:42 ESP12E-S1 14.60 14.72 99.90
13873 2019-09-07 17:46:26 ESP12E-S1 14.50 14.61 99.90
13872 2019-09-07 17:18:13 ESP12E-S1 14.40 14.50 99.90
13871 2019-09-07 16:49:56 ESP12E-S1 14.50 14.61 99.90
13870 2019-09-07 16:21:40 ESP12E-S1 14.30 14.39 99.90
13869 2019-09-07 15:53:32 ESP12E-S1 14.00 14.06 99.90
13868 2019-09-07 15:25:16 ESP12E-S1 14.00 14.06 99.90
13867 2019-09-07 14:56:59 ESP12E-S1 13.80 13.84 99.90
13866 2019-09-07 14:28:44 ESP12E-S1 13.80 13.84 99.90
13865 2019-09-07 14:00:28 ESP12E-S1 13.70 13.73 99.90
13864 2019-09-07 13:32:24 ESP12E-S1 13.70 13.70 98.60
13863 2019-09-07 13:04:09 ESP12E-S1 13.70 13.66 96.90
13862 2019-09-07 12:35:55 ESP12E-S1 13.70 13.67 97.40
13861 2019-09-07 12:07:41 ESP12E-S1 13.70 13.59 94.50
13860 2019-09-07 11:39:28 ESP12E-S1 13.80 13.64 92.00
13859 2019-09-07 11:11:14 ESP12E-S1 13.80 13.60 90.40
13858 2019-09-07 10:42:59 ESP12E-S1 13.80 13.53 87.90
13857 2019-09-07 10:14:44 ESP12E-S1 14.00 13.67 85.00
13856 2019-09-07 09:46:30 ESP12E-S1 14.00 13.66 84.30
13855 2019-09-07 09:18:16 ESP12E-S1 14.10 13.53 75.40
13854 2019-09-07 08:50:02 ESP12E-S1 14.30 13.56 67.80
13853 2019-09-07 08:21:48 ESP12E-S1 14.50 13.62 61.90
13852 2019-09-07 07:53:33 ESP12E-S1 14.30 13.34 59.70
13851 2019-09-07 07:25:17 ESP12E-S1 14.30 13.26 56.60
13850 2019-09-07 06:57:03 ESP12E-S1 14.50 13.49 56.70
13849 2019-09-07 06:28:50 ESP12E-S1 14.60 13.54 54.50
13848 2019-09-07 06:00:35 ESP12E-S1 14.50 13.43 54.60
13847 2019-09-07 05:32:23 ESP12E-S1 14.50 13.45 55.50
13846 2019-09-07 05:04:11 ESP12E-S1 14.70 13.64 54.00
13845 2019-09-07 04:35:59 ESP12E-S1 15.20 14.17 53.60
13844 2019-09-07 04:07:43 ESP12E-S1 15.30 14.26 52.70
13843 2019-09-07 03:39:30 ESP12E-S1 15.20 14.12 51.40
13842 2019-09-07 03:11:14 ESP12E-S1 15.10 13.99 50.70
13841 2019-09-07 02:42:58 ESP12E-S1 14.80 13.69 51.80
13840 2019-09-07 02:14:44 ESP12E-S1 14.70 13.66 54.80
13839 2019-09-07 01:46:30 ESP12E-S1 14.80 13.77 55.10
13838 2019-09-07 01:18:16 ESP12E-S1 15.00 13.98 54.50
13837 2019-09-07 00:50:02 ESP12E-S1 15.10 14.06 53.60
13836 2019-09-07 00:21:49 ESP12E-S1 15.30 14.29 53.70
13835 2019-09-06 23:53:35 ESP12E-S1 15.40 14.37 52.80
13834 2019-09-06 23:25:21 ESP12E-S1 15.50 14.48 52.50
13833 2019-09-06 22:57:08 ESP12E-S1 15.60 14.57 52.00
13832 2019-09-06 22:28:55 ESP12E-S1 15.90 14.87 50.60
13831 2019-09-06 22:00:42 ESP12E-S1 16.20 15.18 49.90
13830 2019-09-06 21:32:36 ESP12E-S1 16.50 15.49 49.30
13829 2019-09-06 21:04:22 ESP12E-S1 17.00 16.02 48.40
13828 2019-09-06 20:36:10 ESP